[[{"header":{"parameterUnit":"m.s-1","parameterCategory":1,"la1":30.6,"la2":28.766,"lo1":-90.7593,"lo2":-88.6598,"dy":0.0162,"dx":0.0183,"nx":116,"ny":114,"refTime":"2024-05-20T12:00:00:Z","depth":0,"parameterNumber":2,"parameterNumberName":"U-component_of_WINDS"},"data":[0.0,0.0,0.0,0.0,0.0,0.0,0.0,0.0,0.0,0.0,0.0,0.0,0.0,0.0,0.0,0.0,0.0,0.0,0.0,0.0,0.0,0.0,0.0,0.0,0.0,0.0,0.0,0.0,0.0,0.0,0.0,0.0,0.0,0.0,0.0,0.0,0.0,0.0,0.0,0.0,0.0,0.0,0.0,0.0,0.0,0.0,0.0,0.0,0.0,0.0,0.0,0.0,0.0,0.0,0.0,0.0,0.0,0.0,0.0,0.0,0.0,0.0,0.0,0.0,0.0,0.0,0.0,0.0,0.0,0.0,0.0,0.0,0.0,0.0,0.0,0.0,0.0,0.0,0.0,0.0,0.0,0.0,0.0,0.0,0.0,0.0,0.0,0.0,0.0,0.0,0.0,0.0,0.0,0.0,0.0,0.0,0.0,0.0,0.0,0.0,0.0,0.0,0.0,0.0,0.0,0.0,0.0,0.0,0.0,0.0,0.0,0.0,0.0,0.0,0.0,0.0,0.0,0.0,0.0,0.0,0.0,0.0,0.0,0.0,0.0,0.0,0.0,0.0,0.0,0.0,0.0,0.0,0.0,0.0,0.0,0.0,0.0,0.0,0.0,0.0,0.0,0.0,0.0,0.0,0.0,0.0,0.0,0.0,0.0,0.0,0.0,0.0,0.0,0.0,0.0,0.0,0.0,0.0,0.0,0.0,0.0,0.0,0.0,0.0,0.0,0.0,0.0,0.0,0.0,0.0,0.0,0.0,0.0,0.0,0.0,0.0,0.0,0.0,0.0,0.0,0.0,0.0,0.0,0.0,0.0,0.0,0.0,0.0,0.0,0.0,0.0,0.0,0.0,0.0,0.0,0.0,0.0,0.0,0.0,0.0,0.0,0.0,0.0,0.0,0.0,0.0,0.0,0.0,0.0,0.0,0.0,0.0,0.0,0.0,0.0,0.0,0.0,0.0,0.0,0.0,0.0,0.0,0.0,0.0,0.0,0.0,0.0,0.0,0.0,0.0,0.0,0.0,0.0,0.0,0.0,0.0,0.0,0.0,0.0,0.0,0.0,0.0,0.0,0.0,0.0,0.0,0.0,0.0,0.0,0.0,0.0,0.0,0.0,0.0,0.0,0.0,0.0,0.0,0.0,0.0,0.0,0.0,0.0,0.0,0.0,0.0,0.0,0.0,0.0,0.0,0.0,0.0,0.0,0.0,0.0,0.0,0.0,0.0,0.0,0.0,0.0,0.0,0.0,0.0,0.0,0.0,0.0,0.0,0.0,0.0,0.0,0.0,0.0,0.0,0.0,0.0,0.0,0.0,0.0,0.0,0.0,0.0,0.0,0.0,0.0,0.0,0.0,0.0,0.0,0.0,0.0,0.0,0.0,0.0,0.0,0.0,0.0,0.0,0.0,0.0,0.0,0.0,0.0,0.0,0.0,0.0,0.0,0.0,0.0,0.0,0.0,0.0,0.0,0.0,0.0,0.0,0.0,0.0,0.0,0.0,0.0,0.0,0.0,0.0,0.0,0.0,0.0,0.0,0.0,0.0,0.0,0.0,0.0,0.0,0.0,0.0,0.0,0.0,0.0,0.0,0.0,0.0,0.0,0.0,0.0,0.0,0.0,0.0,0.0,0.0,0.0,0.0,0.0,0.0,0.0,0.0,0.0,0.0,0.0,0.0,0.0,0.0,0.0,0.0,0.0,0.0,0.0,0.0,0.0,0.0,0.0,0.0,0.0,0.0,0.0,0.0,0.0,0.0,0.0,0.0,0.0,0.0,0.0,0.0,0.0,0.0,0.0,0.0,0.0,0.0,0.0,0.0,0.0,0.0,0.0,0.0,0.0,0.0,0.0,0.0,0.0,0.0,0.0,0.0,0.0,0.0,0.0,0.0,0.0,0.0,0.0,0.0,0.0,0.0,0.0,0.0,0.0,0.0,0.0,0.0,0.0,0.0,0.0,0.0,0.0,0.0,0.0,0.0,0.0,0.0,0.0,0.0,0.0,0.0,0.0,0.0,0.0,0.0,0.0,0.0,0.0,0.0,0.0,0.0,0.0,0.0,0.0,0.0,0.0,0.0,0.0,0.0,0.0,0.0,0.0,0.0,0.0,0.0,0.0,0.0,0.0,0.0,0.0,0.0,0.0,0.0,0.0,0.0,0.0,0.0,0.0,0.0,0.0,0.0,0.0,0.0,0.0,0.0,0.0,0.0,0.0,0.0,0.0,0.0,0.0,0.0,0.0,0.0,0.0,0.0,0.0,0.0,0.0,0.0,0.0,0.0,0.0,0.0,0.0,0.0,0.0,0.0,0.0,0.0,0.0,0.0,0.0,0.0,0.0,0.0,0.0,0.0,0.0,0.0,0.0,0.0,0.0,0.0,0.0,0.0,0.0,0.0,0.0,0.0,0.0,0.0,0.0,0.0,0.0,0.0,0.0,0.0,0.0,0.0,0.0,0.0,0.0,0.0,0.0,0.0,0.0,0.0,0.0,0.0,0.0,0.0,0.0,0.0,0.0,0.0,0.0,0.0,0.0,0.0,0.0,0.0,0.0,0.0,0.0,0.0,0.0,0.0,0.0,0.0,0.0,0.0,0.0,0.0,0.0,0.0,0.0,0.0,0.0,0.0,0.0,0.0,0.0,0.0,0.0,0.0,0.0,0.0,0.0,0.0,0.0,0.0,0.0,0.0,0.0,0.0,0.0,0.0,0.0,0.0,0.0,0.0,0.0,0.0,0.0,0.0,0.0,0.0,0.0,0.0,0.0,0.0,0.0,0.0,0.0,0.0,0.0,0.0,0.0,0.0,0.0,0.0,0.0,0.0,0.0,0.0,0.0,0.0,0.0,0.0,0.0,0.0,0.0,0.0,0.0,0.0,0.0,0.0,0.0,0.0,0.0,0.0,0.0,0.0,0.0,0.0,0.0,0.0,0.0,0.0,0.0,0.0,0.0,0.0,0.0,0.0,0.0,0.0,0.0,0.0,0.0,0.0,0.0,0.0,0.0,0.0,0.0,0.0,0.0,0.0,0.0,0.0,0.0,0.0,0.0,0.0,0.0,0.0,0.0,0.0,0.0,0.0,0.0,0.0,0.0,0.0,0.0,0.0,0.0,0.0,0.0,0.0,0.0,0.0,0.0,0.0,0.0,0.0,0.0,0.0,0.0,0.0,0.0,0.0,0.0,0.0,0.0,0.0,0.0,0.0,0.0,0.0,0.0,0.0,0.0,0.0,0.0,0.0,0.0,0.0,0.0,0.0,0.0,0.0,0.0,0.0,0.0,0.0,0.0,0.0,0.0,0.0,0.0,0.0,0.0,0.0,0.0,0.0,0.0,0.0,0.0,0.0,0.0,0.0,0.0,0.0,0.0,0.0,0.0,0.0,0.0,0.0,0.0,0.0,0.0,0.0,0.0,0.0,0.0,0.0,0.0,0.0,0.0,0.0,0.0,0.0,0.0,0.0,0.0,0.0,0.0,0.0,0.0,0.0,0.0,0.0,0.0,0.0,0.0,0.0,0.0,0.0,0.0,0.0,0.0,0.0,0.0,0.0,0.0,0.0,0.0,0.0,0.0,0.0,0.0,0.0,0.0,0.0,0.0,0.0,0.0,0.0,0.0,0.0,0.0,0.0,0.0,0.0,0.0,0.0,0.0,0.0,0.0,0.0,0.0,0.0,0.0,0.0,0.0,0.0,0.0,0.0,0.0,0.0,0.0,0.0,0.0,0.0,0.0,0.0,0.0,0.0,0.0,0.0,0.0,0.0,0.0,0.0,0.0,0.0,0.0,0.0,0.0,0.0,0.0,0.0,0.0,0.0,0.0,0.0,0.0,0.0,0.0,0.0,0.0,0.0,0.0,0.0,0.0,0.0,0.0,0.0,0.0,0.0,0.0,0.0,0.0,0.0,0.0,0.0,0.0,0.0,0.0,0.0,0.0,0.0,0.0,0.0,0.0,0.0,0.0,0.0,0.0,0.0,0.0,0.0,0.0,0.0,0.0,0.0,0.0,0.0,0.0,0.0,0.0,0.0,0.0,0.0,0.0,0.0,0.0,0.0,0.0,0.0,0.0,0.0,0.0,0.0,0.0,0.0,0.0,0.0,0.0,0.0,0.0,0.0,0.0,0.0,0.0,0.0,0.0,0.0,0.0,0.0,0.0,0.0,0.0,0.0,0.0,0.0,0.0,0.0,0.0,0.0,0.0,0.0,0.0,0.0,0.0,0.0,0.0,0.0,0.0,0.0,0.0,0.0,0.0,0.0,0.0,0.0,0.0,0.0,0.0,0.0,0.0,0.0,0.0,0.0,0.0,0.0,0.0,0.0,0.0,0.0,0.0,0.0,0.0,0.0,0.0,0.0,0.0,0.0,0.0,0.0,0.0,0.0,0.0,0.0,0.0,0.0,0.0,0.0,0.0,0.0,0.0,0.0,0.0,0.0,0.0,0.0,0.0,0.0,0.0,0.0,0.0,0.0,0.0,0.0,0.0,0.0,0.0,0.0,0.0,0.0,0.0,0.0,0.0,0.0,0.0,0.0,0.0,0.0,0.0,0.0,0.0,0.0,0.0,0.0,0.0,0.0,0.0,0.0,0.0,0.0,0.0,0.0,0.0,0.0,0.0,0.0,0.0,0.0,0.0,0.0,0.0,0.0,0.0,0.0,0.0,0.0,0.0,0.0,0.0,0.0,0.0,0.0,0.0,0.0,0.0,0.0,0.0,0.0,0.0,0.0,0.0,0.0,0.0,0.0,0.0,0.0,0.0,0.0,0.0,0.0,0.0,0.0,0.0,0.0,0.0,0.0,0.0,0.0,0.0,0.0,0.0,0.0,0.0,0.0,0.0,0.0,0.0,0.0,0.0,0.0,0.0,0.0,0.0,0.0,0.0,0.0,0.0,0.0,0.0,0.0,0.0,0.0,0.0,0.0,0.0,0.0,0.0,0.0,0.0,0.0,0.0,0.0,0.0,0.0,0.0,0.0,0.0,0.0,0.0,0.0,0.0,0.0,0.0,0.0,0.0,0.0,0.0,0.0,0.0,0.0,0.0,0.0,0.0,0.0,0.0,0.0,0.0,0.0,0.0,0.0,0.0,0.0,0.0,0.0,0.0,0.0,0.0,0.0,0.0,0.0,0.0,0.0,0.0,0.0,0.0,0.0,0.0,0.0,0.0,0.0,0.0,0.0,0.0,0.0,0.0,0.0,0.0,0.0,0.0,0.0,0.0,0.0,0.0,0.0,0.0,0.0,0.0,0.0,0.0,0.0,0.0,0.0,0.0,0.0,0.0,0.0,0.0,0.0,0.0,0.0,0.0,0.0,0.0,0.0,0.0,0.0,0.0,0.0,0.0,0.0,0.0,0.0,0.0,0.0,0.0,0.0,0.0,0.0,0.0,0.0,0.0,0.0,0.0,0.0,0.0,0.0,0.0,0.0,0.0,0.0,0.0,0.0,0.0,0.0,0.0,0.0,0.0,0.0,0.0,0.0,0.0,0.0,0.0,0.0,0.0,0.0,0.0,0.0,0.0,0.0,0.0,0.0,0.0,0.0,0.0,0.0,0.0,0.0,0.0,0.0,0.0,0.0,0.0,0.0,0.0,0.0,0.0,0.0,0.0,0.0,0.0,0.0,0.0,0.0,0.0,0.0,0.0,0.0,0.0,0.0,0.0,0.0,0.0,0.0,0.0,0.0,0.0,0.0,0.0,0.0,0.0,0.0,0.0,0.0,0.0,0.0,0.0,0.0,0.0,0.0,0.0,0.0,0.0,0.0,0.0,0.0,0.0,0.0,0.0,0.0,0.0,0.0,0.0,0.0,0.0,0.0,0.0,0.0,0.0,0.0,0.0,0.0,0.0,0.0,0.0,0.0,0.0,0.0,0.0,0.0,0.0,0.0,0.0,0.0,0.0,0.0,0.0,0.0,0.0,0.0,0.0,0.0,0.0,0.0,0.0,0.0,0.0,0.0,0.0,0.0,0.0,0.0,0.0,0.0,0.0,0.0,0.0,0.0,0.0,0.0,0.0,0.0,0.0,0.0,0.0,0.0,0.0,0.0,0.0,0.0,0.0,0.0,0.0,0.0,0.0,0.0,0.0,0.0,0.0,0.0,0.0,0.0,-2.7758,0.0,0.0,0.0,0.0,0.0,0.0,0.0,0.0,0.0,0.0,0.0,0.0,0.0,0.0,0.0,0.0,0.0,0.0,0.0,0.0,0.0,0.0,0.0,0.0,-1.9779,-2.0125,-2.0013,-2.0119,-2.0143,-2.0015,0.0,0.0,0.0,0.0,0.0,-2.0297,-2.0156,-2.0558,-2.1486,-2.1102,-2.1261,-2.198,-2.2739,-2.2623,-2.1768,0.0,0.0,0.0,0.0,0.0,0.0,0.0,0.0,0.0,0.0,0.0,0.0,0.0,0.0,0.0,0.0,0.0,0.0,0.0,0.0,0.0,0.0,0.0,0.0,0.0,0.0,0.0,0.0,0.0,0.0,0.0,0.0,0.0,0.0,0.0,0.0,0.0,0.0,0.0,0.0,0.0,0.0,0.0,0.0,0.0,0.0,0.0,0.0,0.0,0.0,0.0,0.0,0.0,0.0,0.0,0.0,0.0,0.0,0.0,0.0,0.0,0.0,0.0,0.0,0.0,0.0,0.0,0.0,0.0,0.0,0.0,-2.8131,0.0,0.0,0.0,0.0,0.0,0.0,0.0,0.0,0.0,0.0,0.0,0.0,0.0,0.0,0.0,0.0,0.0,0.0,0.0,0.0,0.0,-1.8197,-1.939,-2.0124,-2.0348,-1.9899,-2.0273,-2.0348,-1.9884,-1.9768,0.0,0.0,0.0,-1.9856,-2.0193,-2.021,-2.0672,-2.1604,-2.1699,-2.2092,-2.2719,-2.2848,-2.2465,-2.1681,-2.2083,0.0,0.0,0.0,0.0,0.0,0.0,0.0,0.0,0.0,0.0,0.0,0.0,0.0,0.0,0.0,0.0,0.0,0.0,0.0,0.0,0.0,0.0,0.0,0.0,0.0,0.0,0.0,0.0,0.0,0.0,0.0,0.0,0.0,0.0,0.0,0.0,0.0,0.0,0.0,0.0,0.0,0.0,0.0,0.0,0.0,0.0,0.0,0.0,0.0,0.0,0.0,0.0,0.0,0.0,0.0,0.0,0.0,0.0,0.0,0.0,0.0,0.0,0.0,-3.2514,-3.2477,-3.226,-3.21,-3.2027,-3.196,-3.0833,-3.0084,-2.958,0.0,0.0,0.0,0.0,0.0,0.0,0.0,0.0,0.0,0.0,0.0,0.0,0.0,0.0,0.0,0.0,0.0,0.0,0.0,0.0,-1.8112,-1.8755,-1.942,-2.0034,-2.0543,-2.0124,-2.0034,-2.0543,-2.0019,0.0,0.0,-1.9708,-1.9711,-1.9782,-1.9782,-1.9849,-1.9997,-2.0528,-2.1063,-2.1616,-2.2271,-2.2512,-2.2374,-2.2724,-2.3204,-2.3654,0.0,0.0,0.0,0.0,0.0,0.0,0.0,0.0,0.0,0.0,0.0,0.0,0.0,0.0,0.0,0.0,0.0,0.0,0.0,0.0,0.0,0.0,0.0,0.0,0.0,0.0,0.0,0.0,0.0,0.0,0.0,0.0,0.0,0.0,0.0,0.0,0.0,0.0,0.0,0.0,0.0,-2.7479,-2.7622,0.0,0.0,0.0,0.0,0.0,0.0,0.0,0.0,0.0,0.0,0.0,0.0,0.0,0.0,-3.3359,-3.4213,-3.4604,-3.4582,-3.5349,-3.5684,-3.5624,-3.4857,-3.4527,-3.4472,-3.3616,0.0,-3.0051,-2.9318,0.0,0.0,0.0,0.0,0.0,0.0,0.0,0.0,0.0,0.0,0.0,0.0,0.0,0.0,0.0,0.0,0.0,0.0,0.0,0.0,0.0,-1.9237,-1.9775,-1.9698,-2.0084,-2.0277,-2.02,-1.9607,-1.9372,-1.9676,-1.9118,-1.8949,-1.9244,-1.9258,-1.9749,-2.0773,-2.1694,-2.2276,-2.2535,-2.2859,-2.3007,-2.3003,-2.3144,-2.3344,-2.3514,-2.2855,0.0,0.0,0.0,0.0,0.0,0.0,0.0,0.0,0.0,0.0,0.0,0.0,0.0,0.0,0.0,0.0,0.0,0.0,0.0,0.0,0.0,0.0,0.0,0.0,0.0,0.0,0.0,0.0,0.0,0.0,0.0,0.0,0.0,0.0,0.0,0.0,0.0,0.0,0.0,-2.7548,-2.9057,-2.8833,-2.9412,-2.924,0.0,0.0,0.0,0.0,0.0,0.0,0.0,0.0,0.0,-3.3335,-3.3408,-3.4009,-3.5183,-3.555,-3.5734,-3.5752,-3.6119,-3.6303,-3.6285,-3.5899,-3.5463,-3.4986,-3.4619,-3.361,-3.2131,-3.0954,-2.9948,-2.9014,0.0,0.0,0.0,0.0,0.0,-2.5985,0.0,0.0,0.0,0.0,0.0,0.0,0.0,0.0,0.0,0.0,0.0,0.0,-1.8232,-1.9238,-1.9795,-1.9614,-2.0287,-2.0616,0.0,-1.9421,-1.9086,-1.9474,-1.8603,-1.8352,-1.8892,-1.9196,-2.0034,-2.1454,-2.2562,-2.3178,-2.3326,-2.3514,-2.3634,-2.3634,-2.3846,-2.3808,-2.3554,-2.3069,-2.2443,0.0,0.0,0.0,0.0,0.0,0.0,0.0,0.0,0.0,0.0,0.0,0.0,0.0,0.0,0.0,0.0,0.0,0.0,0.0,0.0,0.0,0.0,0.0,0.0,0.0,0.0,0.0,0.0,0.0,0.0,0.0,0.0,0.0,0.0,0.0,0.0,0.0,0.0,-2.8961,-3.0527,-3.0247,-3.122,-3.117,0.0,0.0,0.0,0.0,0.0,0.0,-3.2247,-3.232,-3.344,-3.5866,-3.5958,-3.6362,-3.7202,-3.7221,-3.711,-3.6909,-3.6909,-3.6909,-3.6909,-3.6688,-3.6248,-3.5628,-3.5426,-3.4857,-3.399,-3.2375,-3.1347,-3.0662,-2.9211,-2.8637,-2.8528,-2.7671,-2.7261,-2.7109,0.0,0.0,0.0,0.0,0.0,0.0,0.0,0.0,0.0,0.0,0.0,-1.7691,-1.8734,-1.9427,-2.0242,-2.1376,-2.0936,-2.0867,0.0,0.0,-1.892,-1.8941,-1.8403,-1.8348,-1.8886,-1.9957,-2.0682,-2.1033,-2.1933,-2.2623,-2.314,-2.3881,-2.4257,-2.4286,-2.4981,-2.4942,-2.4246,-2.3051,-2.3094,-2.3814,0.0,0.0,0.0,0.0,0.0,0.0,0.0,0.0,0.0,0.0,0.0,0.0,0.0,0.0,0.0,0.0,0.0,0.0,0.0,0.0,0.0,0.0,0.0,0.0,0.0,0.0,0.0,0.0,0.0,0.0,0.0,0.0,0.0,0.0,0.0,0.0,0.0,0.0,0.0,-3.187,-3.2782,0.0,0.0,0.0,0.0,-3.1729,-3.2454,-3.3459,-3.4756,-3.4821,-3.5958,-3.845,-3.8505,-3.8909,-3.9698,-3.9732,-3.9331,-3.8579,-3.8579,-3.8579,-3.856,-3.7804,-3.7419,-3.7327,-3.656,-3.5752,-3.4821,-3.3206,-3.2509,-3.2307,-3.0717,-3.0093,-2.9921,-2.8334,-2.7765,-2.7644,0.0,0.0,0.0,0.0,0.0,-1.1792,-1.1792,-1.2787,-1.3596,-1.3786,-1.5087,-1.6168,0.0,-1.7605,-1.8701,-1.9647,-1.9783,-2.0179,-2.0966,0.0,-1.8777,-1.9451,-1.8297,-1.7987,-1.8696,-1.8977,-1.9448,-2.016,-2.0868,-2.1594,-2.231,-2.2604,-2.304,-2.3543,-2.3813,-2.3992,-2.4103,-2.3373,-2.3059,-2.2965,-2.1907,-2.1332,0.0,0.0,0.0,0.0,0.0,0.0,0.0,0.0,0.0,0.0,0.0,0.0,0.0,0.0,0.0,0.0,0.0,0.0,0.0,0.0,0.0,0.0,0.0,0.0,0.0,0.0,0.0,0.0,0.0,0.0,0.0,0.0,0.0,0.0,0.0,0.0,0.0,-3.3266,-3.478,0.0,-3.3185,-3.4403,-3.487,-3.3719,-3.4853,-3.6025,-3.7006,-3.6594,-3.7377,-3.9602,-3.92,-3.9259,-3.9882,-3.99,-3.9496,-3.8707,-3.8707,-3.853,-3.8183,-3.7893,-3.7291,-3.6447,-3.6161,-3.5301,-3.4046,-3.3474,-3.3291,-3.3256,-3.2161,-3.1739,-3.161,-3.0522,-2.9787,-2.931,0.0,0.0,0.0,0.0,-1.1292,-1.1292,-1.1292,-1.2247,-1.2961,-1.2961,-1.4326,-1.5385,-1.5577,-1.677,-1.7878,-1.8762,-1.8988,-1.9387,-2.0121,0.0,-1.8423,-1.9128,-1.8287,-1.7889,-1.8051,-1.8569,-1.9069,-1.9583,-2.0263,-2.089,-2.1459,-2.1753,-2.2199,-2.2689,-2.2975,-2.3321,-2.3701,-2.3631,-2.3365,-2.2933,-2.2658,-2.2167,-2.1528,0.0,0.0,0.0,0.0,0.0,0.0,0.0,0.0,0.0,0.0,0.0,0.0,0.0,0.0,0.0,0.0,0.0,0.0,0.0,0.0,0.0,0.0,0.0,0.0,0.0,0.0,0.0,0.0,0.0,0.0,0.0,0.0,0.0,0.0,0.0,-3.3629,-3.4328,-3.594,-3.646,-3.5097,-3.6367,-3.6931,-3.6029,-3.6941,-3.7865,-3.8574,-3.8137,-3.8633,-4.0281,-3.9769,-3.957,-3.9764,-3.9847,-3.9317,-3.8203,-3.835,-3.8167,-3.7667,-3.7667,-3.7166,-3.6339,-3.6339,-3.5455,-3.3987,-3.3987,-3.3754,-3.3335,-3.2953,-3.2794,-3.2716,-3.2062,-3.1292,-3.0522,0.0,0.0,0.0,-1.0224,-1.0303,-1.0303,-1.0322,-1.1542,-1.2468,-1.2457,-1.4097,-1.5481,-1.6045,-1.6982,-1.7952,-1.897,-1.8693,-1.8654,-1.9056,-1.8313,-1.7865,-1.7889,-1.8307,-1.8085,-1.7055,-1.8823,-1.9562,-1.9276,-2.0107,-2.0526,-2.059,-2.1428,-2.1846,-2.1939,-2.2689,-2.309,-2.317,-2.3753,-2.405,-2.4055,-2.3487,-2.2925,-2.2283,0.0,0.0,0.0,0.0,0.0,0.0,0.0,0.0,0.0,0.0,0.0,0.0,0.0,0.0,0.0,0.0,0.0,0.0,0.0,0.0,0.0,0.0,0.0,0.0,0.0,0.0,0.0,0.0,0.0,0.0,0.0,0.0,0.0,-3.1751,-3.2494,-3.3527,-3.5103,-3.6188,-3.6846,-3.688,-3.7533,-3.8142,-3.8575,-3.8637,-3.8855,-3.94,-3.9403,-3.9758,-4.0615,-4.0314,-3.9942,-3.9532,-3.9746,-3.8965,-3.7209,-3.7685,-3.7649,-3.719,-3.7173,-3.7173,-3.7135,-3.7135,-3.6251,-3.4783,-3.4765,-3.3846,-3.2536,-3.3001,-3.3184,-3.3138,-3.2734,-3.2093,-3.1152,0.0,0.0,-0.9414,-1.0175,-1.0303,-1.04,-1.0693,-1.137,-1.1782,-1.158,-1.3214,-1.4316,-1.3992,-1.5489,-1.6872,-1.7793,-1.7688,-1.7872,-1.8614,0.0,-1.7236,-1.761,-1.7577,-1.7736,-1.8062,-1.8055,-1.8162,-1.8361,-1.8596,-1.9044,-1.9661,-1.9911,-2.0687,-2.1908,-2.2137,-2.28,-2.3766,-2.3929,-2.4224,-2.4582,-2.4465,-2.3832,-2.2882,0.0,0.0,0.0,0.0,0.0,0.0,0.0,0.0,0.0,0.0,0.0,0.0,0.0,0.0,0.0,0.0,0.0,0.0,0.0,0.0,0.0,0.0,0.0,0.0,0.0,0.0,0.0,0.0,0.0,0.0,0.0,0.0,-3.2415,-3.2219,-3.3274,-3.4836,-3.6911,-3.7424,-3.7804,-3.8328,-3.9063,-3.9316,-3.8925,-3.9409,-3.9754,-3.9898,-3.9384,-3.9841,-4.1414,-3.9937,-3.9416,-4.0073,-3.9245,-3.8272,-3.7209,-3.7685,-3.7452,-3.6623,-3.702,-3.6783,-3.6054,-3.6054,-3.5488,-3.4545,-3.4014,-3.3225,-3.2376,-3.2595,-3.2697,-3.2679,-3.2577,-3.1858,-3.0771,0.0,-0.9004,-0.9277,-1.0156,-1.0303,-1.0341,-1.0469,-1.0884,-1.1088,-1.083,-1.2171,-1.3159,-1.3114,-1.4268,-1.5458,-1.648,-1.6337,-1.6407,-1.691,-1.6791,-1.6954,-1.7608,-1.7717,-1.7833,-1.8017,-1.777,-1.7764,-1.8008,-1.8008,-1.8269,-1.8754,-1.9144,-1.9857,-2.0846,-2.1553,-2.2337,-2.3176,-2.3735,-2.4318,-2.4808,-2.5084,-2.4651,-2.3748,-2.3326,-2.2909,-2.2456,-2.1706,-2.1452,-2.1486,-2.1426,0.0,0.0,0.0,0.0,0.0,0.0,0.0,0.0,0.0,0.0,0.0,0.0,0.0,0.0,0.0,0.0,0.0,0.0,0.0,0.0,0.0,0.0,0.0,0.0,-3.3085,-3.4303,-3.4206,-3.4934,-3.618,-3.8125,-3.8362,-3.865,-3.9402,-3.9859,-3.9926,-3.9503,-3.9859,-4.0096,-4.0096,-3.9706,-3.9966,-4.1059,-3.9515,-3.885,-3.9288,-3.8373,-3.7439,-3.6542,-3.7022,-3.6865,-3.6075,-3.6378,-3.6186,0.0,-3.56,-3.5008,-3.4015,-3.3592,-3.278,0.0,0.0,0.0,0.0,0.0,-3.1667,-3.0676,0.0,-0.9043,-0.9326,-1.0166,-1.0303,-1.0242,-1.0013,-1.0338,-1.0495,-1.0197,0.0,-1.2085,-1.2742,-1.3237,-1.4013,-1.5129,-1.4972,-1.4852,0.0,0.0,-1.6827,-1.7719,-1.8143,-1.808,-1.7484,-1.7822,-1.8037,-1.8076,-1.8076,-1.8105,-1.8154,-1.8941,-1.9335,-1.9449,-2.099,-2.1769,-2.1975,-2.3232,-2.416,-2.4825,-2.5322,-2.5272,-2.4763,-2.3636,-2.3512,-2.3729,-2.2047,-2.1547,-2.1616,-2.1488,0.0,0.0,0.0,0.0,0.0,0.0,0.0,0.0,0.0,0.0,0.0,0.0,0.0,0.0,0.0,0.0,0.0,0.0,0.0,0.0,0.0,0.0,0.0,0.0,-3.4957,-3.6248,-3.6965,-3.7134,-3.7642,-3.8836,-3.8988,-3.9276,-4.0028,-4.0096,-4.0096,-4.0096,-4.0096,-4.0096,-4.0096,0.0,0.0,0.0,0.0,-3.8345,-3.8007,-3.7346,-3.6542,-3.56,-3.6139,-3.6118,-3.56,-3.565,-3.5667,-3.56,-3.56,-3.4805,-3.3525,-3.344,-3.2527,-3.1249,-3.1603,-3.1734,-3.1756,-3.1825,-3.1347,0.0,0.0,-0.926,-0.965,-1.0195,-1.0303,-1.0337,-1.0456,-1.0539,-1.0429,-0.9938,-1.0872,-1.1438,-1.105,-1.2326,-1.3451,-1.4061,-1.4543,-1.5107,0.0,0.0,-1.6574,-1.7434,-1.7553,-1.7695,-1.7881,-1.7969,-1.8174,-1.8481,-1.8481,-1.8691,-1.9043,-1.9213,-1.9455,-1.981,-2.0139,-2.0884,-2.192,-2.2183,-2.3271,-2.48,-2.4901,-2.5159,-2.5357,-2.4369,-2.3574,-2.2829,-2.1661,-2.1518,-2.1855,-2.1793,-2.1873,-2.1889,-2.145,0.0,0.0,0.0,0.0,0.0,0.0,0.0,0.0,0.0,0.0,0.0,0.0,0.0,0.0,0.0,0.0,0.0,0.0,0.0,0.0,-3.4925,-3.6958,-3.8396,-3.8548,-3.9097,-3.9351,-3.9039,-3.8988,-3.9276,-4.0028,-4.0096,-4.0096,-4.0096,-4.0096,-4.0096,-4.0096,-4.0096,0.0,-4.0733,-3.8982,-3.8196,-3.8535,-3.6791,-3.5827,-3.56,0.0,0.0,-3.5622,-3.6054,-3.6028,-3.56,-3.56,-3.5115,-3.4235,-3.3643,-3.2527,-3.121,-3.1291,-3.1329,-3.1268,-3.0994,-3.04,-2.9833,-0.926,-0.9474,-0.9747,-1.0224,-1.0479,-1.0606,-1.0614,-1.0777,-1.0757,-1.0351,-1.0934,-1.1419,-1.1489,-1.2219,-1.2958,-1.3602,-1.4136,0.0,0.0,-1.5592,-1.5877,-1.6294,-1.6296,-1.6387,-1.6576,-1.6739,-1.6893,-1.709,-1.7242,-1.7715,-1.8498,-1.8498,-1.8887,-1.9611,-2.0058,-2.0509,-2.096,-2.2101,-2.3187,-2.4222,-2.4933,-2.5536,-2.5966,-2.5194,-2.4135,-2.3007,-2.2246,-2.1666,-2.1239,-2.1239,-2.1631,-2.2006,-2.1427,-2.1524,-2.1642,0.0,0.0,0.0,0.0,0.0,0.0,0.0,0.0,0.0,0.0,0.0,0.0,0.0,0.0,-2.9783,0.0,0.0,-3.502,-3.6487,-3.8008,-3.9123,-3.9503,-3.9876,-3.996,-3.9605,-3.9554,-3.9706,-4.0062,-4.0096,-4.0096,-4.0096,-4.0096,-4.0096,-4.0096,-4.0096,-4.0229,-4.0497,-3.8802,-3.8037,-3.8294,-3.6508,-3.56,-3.56,-3.5876,-3.5854,-3.5622,-3.5876,-3.5854,-3.56,-3.56,-3.5182,-3.4404,-3.3305,-3.2188,-3.119,-3.119,-3.119,-3.1147,-3.078,-3.0404,-3.0092,-0.9728,-0.9737,-0.9854,-1.0225,-1.0625,-1.0836,-1.0619,-1.0938,-1.1109,-1.0847,-1.1043,-1.1443,-1.2095,-1.2199,-1.2494,0.0,0.0,0.0,-1.448,-1.485,-1.5107,-1.5201,-1.5199,-1.5232,-1.5262,-1.5478,-1.5655,-1.5794,-1.6043,-1.6644,-1.7623,-1.7623,-1.8153,-1.9147,-1.9839,-2.0113,-2.0173,-2.2015,-2.3102,-2.3714,-2.4755,-2.5606,-2.626,-2.5661,-2.4632,-2.3421,-2.262,-2.1527,-2.0456,-2.0364,-2.0885,-2.1478,-2.1239,-2.1668,-2.2056,-2.1195,-2.1277,0.0,0.0,0.0,0.0,0.0,0.0,0.0,0.0,0.0,-2.6688,-2.8734,-3.0069,-3.1305,-3.2714,-3.4404,-3.6085,-3.7551,-3.8461,-3.9227,-3.9986,-4.0096,-4.0096,-4.0096,-4.0096,-4.0096,-4.0096,-4.0096,-4.0096,-4.0096,-4.0096,-4.0096,-4.0096,-4.0096,-4.0096,-4.0096,-3.8667,-3.7905,-3.7905,-3.636,-3.56,-3.56,-3.56,-3.56,-3.56,-3.56,-3.56,-3.5583,-3.5295,-3.4844,-3.4167,-3.2699,-3.1752,-3.119,-3.119,-3.119,-3.1164,-3.0897,-3.0661,-3.0507,0.0,-1.0215,-1.0244,-1.0293,-1.0625,-1.0836,-1.0619,-1.0938,-1.1109,-1.0847,-1.0829,-1.0905,-1.0981,-1.1511,-1.2065,-1.2583,0.0,-1.3673,-1.3708,-1.4046,-1.4505,-1.5165,-1.5199,-1.5312,-1.5552,-1.5601,-1.593,-1.6571,-1.6612,-1.6888,-1.7339,-1.7339,-1.772,-1.8413,-1.8519,-1.9292,-2.0529,-2.0783,-2.213,-2.4101,-2.3706,-2.4399,-2.5636,-2.5109,-2.4312,-2.329,-2.1623,-2.0577,-1.9934,-1.9576,-1.9758,-2.0307,-2.1435,-2.1887,-2.1982,-2.2077,0.0,-2.1983,-2.0877,-2.103,-2.1639,-2.2233,-2.3203,-2.4552,0.0,0.0,-2.8607,-3.0741,-3.1748,-3.2701,-3.4041,-3.5012,-3.609,-3.7539,-3.8434,-3.9189,-3.9978,-4.0096,-4.0096,-4.0096,-4.0096,-4.0096,-4.0096,-4.0096,-4.0096,-4.0096,-4.0096,-4.0096,-4.0096,-4.0096,-4.0096,-4.0096,-3.8667,-3.7905,-3.7905,-3.636,-3.56,-3.56,-3.56,-3.56,-3.56,-3.56,-3.56,-3.5532,-3.4197,-3.3609,-3.3406,-3.1935,-3.1258,-3.119,-3.119,-3.119,-3.121,-3.1167,-3.0709,-3.0291,0.0,-1.0303,-1.0361,-1.0605,-1.1006,-1.1371,-1.1514,-1.1907,-1.2156,-1.203,-1.2024,-1.2024,-1.2024,-1.227,-1.2345,-1.2117,-1.3032,-1.3269,-1.2477,-1.3177,-1.36,-1.3534,-1.352,-1.3543,-1.3682,-1.4026,-1.4355,-1.4658,-1.4999,-1.5569,-1.6355,-1.6355,-1.6847,-1.7749,-1.8429,-1.8904,-1.9349,-2.0794,-2.1732,-2.2335,-2.3735,-2.4318,-2.445,-2.5025,-2.4432,-2.3152,-2.223,-2.0989,0.0,0.0,-1.9787,-2.0168,-2.073,-2.1054,-2.1268,-2.1722,-2.1832,0.0,-2.1656,-2.1602,-2.177,-2.2683,-2.3804,-2.5139,-2.6772,-2.8058,-2.9348,-3.0981,-3.2256,-3.3366,-3.4319,-3.5416,-3.6541,0.0,-3.8412,-3.9166,-3.9995,-4.0096,-4.0096,-4.0096,-4.0096,-4.0096,-4.0096,-4.0096,-4.0096,-4.0096,-4.0096,-4.0096,-4.0096,-4.0096,-4.0096,-4.0096,-3.9089,-3.8328,-3.7905,-3.684,-3.6062,-3.56,-3.56,-3.56,-3.56,-3.56,-3.56,-3.5566,-3.494,-3.418,-3.3355,-3.273,-3.1968,-3.119,-3.119,-3.119,-3.114,-3.0717,-3.0632,-3.0755,0.0,-1.0303,-1.0479,-1.0996,-1.1369,-1.1731,-1.2135,-1.2607,-1.2905,-1.2905,-1.2905,-1.2905,-1.2905,-1.2905,-1.2608,-1.1864,-1.2573,-1.263,-1.1523,-1.2273,-1.2607,-1.2208,-1.2258,-1.2385,-1.2552,-1.2986,-1.3293,-1.3454,-1.3881,-1.4489,-1.5255,-1.5255,-1.5827,-1.6887,-1.7738,-1.8232,-1.862,-2.04,-2.1093,-2.1165,-2.3289,-2.379,-2.3389,-2.4484,-2.4048,-2.2855,-2.2585,-2.128,0.0,0.0,-1.9458,-1.9726,-1.9927,-2.0238,-2.0704,-2.1487,-2.1565,-2.1497,-2.2138,-2.1948,-2.1861,-2.2847,-2.4165,-2.554,-2.6649,-2.7796,-2.9124,-3.084,-3.1964,-3.3031,-3.4277,-3.5321,-3.6398,-3.7616,-3.8262,-3.8951,-3.9952,-4.0096,-4.0096,-4.0096,-4.0096,-4.0096,-4.0096,-3.9926,-3.9893,-4.0079,-3.991,-3.9893,-4.0096,-4.0096,-4.0096,-4.0096,-3.9174,-3.8531,-3.821,-3.7043,-3.6282,-3.5943,-3.5701,-3.56,-3.56,-3.56,-3.56,-3.5583,-3.538,-3.4568,-3.3389,-3.3186,-3.2341,-3.119,-3.119,-3.119,-3.114,-3.0598,-3.0734,-3.1123,0.0,0.0,-1.0567,-1.1439,-1.1596,-1.1731,-1.2135,-1.2607,-1.2905,-1.2905,-1.2905,-1.2905,-1.2905,-1.2905,-1.2608,-1.1864,-1.1776,-1.1557,-1.1152,-1.1328,-1.1605,-1.1906,-1.2151,-1.2579,-1.3173,-1.32,-1.3487,-1.4062,-1.4082,-1.413,-1.413,-1.413,-1.4734,-1.5737,-1.5779,-1.6993,-1.8979,-1.9067,-1.9985,-2.1412,-2.1829,-2.2273,-2.2767,-2.3065,-2.2819,-2.2293,-2.203,0.0,0.0,0.0,-1.8222,-1.8481,-1.9188,-1.9783,0.0,-2.1878,-2.1692,-2.1206,-2.2064,-2.2108,-2.2089,-2.2914,-2.4356,-2.5813,-2.6705,-2.6929,-2.7777,-3.0608,-3.0807,-3.1315,-3.4004,-3.4518,-3.5262,-3.7449,-3.7822,-3.8374,-3.9876,-4.0096,-4.0096,-4.0096,-4.0096,-4.0096,0.0,-3.9445,-3.9326,-4.0045,-3.9453,-3.9368,-4.0062,-4.0096,-4.0096,-4.0096,-3.8684,-3.8278,-3.8954,-3.6755,-3.6028,-3.6761,-3.5977,-3.56,-3.56,-3.56,-3.56,-3.5549,-3.4844,-3.41,-3.3339,-3.2632,-3.1904,-3.119,-3.119,-3.119,-3.119,-3.1173,-3.1173,-3.119,0.0,0.0,0.0,-1.1855,-1.2002,-1.2148,-1.2598,-1.2807,-1.2905,-1.2905,-1.2905,0.0,0.0,0.0,0.0,0.0,-1.1982,-1.2068,-1.1964,-1.1845,-1.208,-1.2684,-1.2435,-1.2398,-1.2605,-1.2837,-1.3038,-1.3239,-1.34,-1.3507,-1.3514,-1.366,-1.3953,-1.4351,-1.5277,-1.6519,-1.7908,-1.8678,-1.9711,-2.0969,-2.2027,-2.2318,-2.2294,-2.3315,-2.2899,-2.1766,0.0,0.0,0.0,-1.9337,-1.9028,-1.8875,-1.9478,0.0,0.0,-2.0409,-2.0974,-2.1551,-2.2572,-2.2747,-2.3022,-2.443,-2.5184,-2.5799,-2.648,-2.6778,-2.7322,-2.8771,-2.9421,-3.0309,-3.2154,-3.3245,-3.4379,-3.6063,-3.6697,-3.7381,-3.843,-3.8569,-3.8569,-3.8569,-3.8569,0.0,0.0,0.0,0.0,-4.0045,-3.9436,-3.9309,-4.0062,-3.9656,-3.9385,-3.9385,-3.8886,-3.8278,-3.7557,-3.7263,-3.6755,-3.6011,-3.5718,-3.56,-3.56,-3.56,-3.56,-3.5583,-3.5329,-3.4539,-3.3389,-3.3136,-3.2307,-3.119,-3.119,-3.119,-3.119,-3.119,-3.119,-3.119,0.0,0.0,0.0,0.0,0.0,0.0,0.0,0.0,0.0,0.0,0.0,0.0,0.0,0.0,0.0,0.0,0.0,-1.2325,-1.2369,-1.2145,-1.2305,-1.2948,-1.2631,-1.2621,-1.3021,-1.3085,-1.3337,-1.3742,-1.3882,-1.4047,-1.4194,-1.4403,-1.4449,-1.4504,-1.5408,-1.6421,-1.7468,-1.8222,-1.9221,-2.0457,-2.168,-2.2071,-2.203,-2.3229,-2.2899,0.0,0.0,0.0,0.0,-1.9572,-1.9429,-1.9413,-1.9723,-1.9999,-2.0233,-2.038,-2.1135,-2.2157,-2.3147,-2.3455,-2.3862,-2.5256,-2.5749,-2.5984,-2.6147,-2.6164,-2.6448,-2.7513,-2.8041,-2.8915,-3.0786,-3.1854,-3.3035,-3.4977,-3.5653,-3.6372,-3.7626,-3.7793,-3.7793,-3.7793,-3.7793,-3.7978,0.0,0.0,0.0,-3.9995,-3.9436,-3.9309,-4.0062,-3.9656,-3.9259,-3.9005,-3.8734,-3.8142,-3.7195,-3.7127,-3.6563,-3.56,-3.56,-3.56,-3.56,-3.56,-3.56,-3.5583,-3.5312,-3.4413,-3.3057,-3.2794,-3.1968,-3.0858,-3.0638,-3.0679,-3.0878,-3.0878,-3.0878,-3.0898,0.0,0.0,0.0,0.0,0.0,0.0,0.0,0.0,0.0,0.0,0.0,0.0,0.0,0.0,0.0,0.0,0.0,0.0,-1.2446,-1.2299,-1.2453,-1.2954,-1.2812,-1.3267,-1.4356,-1.4021,-1.4338,-1.5454,-1.5454,-1.5626,-1.5991,-1.607,-1.6086,-1.6086,-1.6119,-1.6757,-1.7775,-1.7775,-1.8588,-2.0002,-2.0818,-2.1472,-2.2006,-2.2768,0.0,0.0,0.0,0.0,0.0,-1.9214,-1.9522,-2.013,-2.0096,-2.118,-2.2349,-2.1756,-2.2161,-2.2959,-2.3816,-2.4206,-2.456,-2.5423,-2.6084,-2.6336,-2.5724,-2.5197,-2.5218,-2.6737,-2.6684,-2.7145,0.0,0.0,-3.139,-3.4145,-3.4647,-3.5406,-3.7398,-3.7677,-3.7677,0.0,0.0,0.0,0.0,0.0,0.0,-3.9825,0.0,-3.9285,-4.0062,-4.0062,-3.9706,-3.8954,-3.8261,-3.7872,-3.7787,-3.6326,-3.5577,-3.5538,-3.5538,-3.5515,-3.5492,-3.5492,-3.5476,-3.5408,-3.4705,-3.3645,-3.2335,-3.1644,-3.0914,-3.0187,-2.9629,-2.9761,-3.0251,-3.0251,-3.0251,-3.0351,0.0,0.0,0.0,0.0,0.0,0.0,0.0,0.0,0.0,0.0,0.0,0.0,0.0,0.0,0.0,0.0,0.0,0.0,-1.4482,-1.4174,-1.4328,-1.5158,-1.4825,-1.4923,-1.5625,-1.5542,-1.5643,-1.5913,-1.5913,-1.5968,-1.6111,-1.6697,-1.6972,-1.7,-1.7632,-1.821,-1.868,-1.868,-1.9275,-2.0281,0.0,-2.1229,-2.2214,0.0,0.0,0.0,0.0,0.0,0.0,0.0,0.0,0.0,0.0,-2.3025,-2.3306,-2.3011,-2.3376,-2.4017,-2.4476,-2.492,-2.5439,-2.6092,-2.6386,-2.6336,-2.5724,-2.5197,-2.4855,-2.5017,-2.5375,-2.605,0.0,0.0,0.0,-3.2792,-3.391,0.0,-3.5931,-3.6085,0.0,-3.6085,0.0,-3.6305,-3.6843,-3.6747,0.0,0.0,-3.8212,-3.8687,-4.0037,-3.9588,-3.8937,-3.821,-3.8007,-3.7364,-3.6191,-3.5802,-3.5362,-3.4854,-3.4854,-3.4592,-3.4128,-3.4128,-3.3835,-3.334,-3.3161,-3.2293,-3.0988,-3.081,-3.0287,-2.9607,-2.9451,-2.9496,-2.9629,-2.9629,-2.9629,-2.9651,0.0,0.0,0.0,0.0,0.0,0.0,0.0,0.0,0.0,0.0,0.0,0.0,0.0,0.0,0.0,0.0,0.0,0.0,0.0,-1.4796,-1.5069,-1.6058,-1.5409,-1.5577,-1.6741,-1.6895,-1.7141,-1.7467,0.0,0.0,-1.7764,-1.8495,-1.8543,-1.8054,-1.8809,-1.9079,-1.8959,-1.8959,0.0,0.0,0.0,0.0,0.0,0.0,0.0,0.0,0.0,0.0,0.0,0.0,0.0,-2.3618,-2.4653,-2.5149,-2.5274,-2.4873,0.0,-2.5982,-2.576,-2.6128,-2.6529,-2.6514,-2.6499,-2.6223,-2.5134,-2.4858,-2.4564,-2.3727,-2.4277,0.0,-2.5655,-2.7647,0.0,0.0,0.0,0.0,-3.5325,-3.5504,-3.5504,0.0,-3.5504,0.0,-3.6086,-3.6117,-3.643,0.0,-3.7592,-3.8308,-3.9499,-3.8871,-3.8271,-3.7878,-3.7277,-3.6233,-3.4745,-3.4728,-3.452,-3.4161,-3.4161,-3.3962,-3.3582,-3.3582,-3.3399,-3.3024,0.0,-3.1796,-3.052,-3.018,-2.9635,-2.8989,-2.8717,-2.8764,-2.9012,-2.9012,-2.9012,-2.9042,0.0,0.0,0.0,0.0,0.0,0.0,0.0,0.0,0.0,0.0,0.0,0.0,0.0,0.0,0.0,0.0,0.0,0.0,0.0,0.0,0.0,-1.6418,-1.5621,-1.602,-1.7862,-1.8188,-1.8684,-1.9409,0.0,0.0,0.0,0.0,0.0,0.0,0.0,0.0,0.0,0.0,0.0,0.0,0.0,0.0,0.0,0.0,0.0,0.0,0.0,-2.2422,-2.2614,-2.3968,-2.4559,-2.498,-2.639,-2.725,-2.7673,-2.706,-2.7587,-2.818,-2.739,-2.7503,-2.7703,-2.7007,-2.6752,-2.6273,-2.4653,-2.4514,-2.4302,-2.2766,0.0,-2.4186,-2.4508,-2.6104,-2.8095,-3.0276,0.0,-3.3185,-3.522,-3.5504,-3.5504,-3.5504,-3.5504,-3.5504,-3.5504,-3.5504,-3.575,-3.6415,-3.71,-3.7863,-3.8718,-3.8149,-3.7693,-3.7527,-3.6163,-3.483,-3.3598,-3.3582,-3.3572,-3.3469,-3.3469,-3.3417,-3.3323,-3.3323,-3.3276,-3.3149,0.0,0.0,-3.0263,-2.9657,-2.8984,-2.8334,-2.781,-2.7919,-2.8367,-2.8367,-2.8367,-2.8463,0.0,0.0,0.0,0.0,0.0,0.0,0.0,0.0,0.0,0.0,-1.5222,-1.4878,0.0,0.0,0.0,0.0,0.0,0.0,0.0,0.0,0.0,-1.7797,-1.7697,-1.8169,-1.9383,-1.9481,-1.9843,0.0,0.0,0.0,0.0,0.0,0.0,0.0,0.0,0.0,0.0,0.0,0.0,0.0,0.0,0.0,0.0,0.0,0.0,0.0,0.0,-2.2957,-2.3152,-2.456,-2.5492,-2.6288,-2.7597,-2.857,-2.9191,-2.8901,-2.8941,-2.9048,-2.8699,-2.8698,-2.8748,-2.8588,-2.8157,-2.74,-2.6047,-2.5035,0.0,0.0,-2.2315,-2.3098,-2.3742,-2.5457,-2.7771,-3.0842,-3.1974,-3.3185,-3.522,-3.5504,-3.5504,0.0,-3.5504,-3.5504,0.0,0.0,0.0,0.0,0.0,-3.6508,-3.7921,-3.7863,-3.7287,-3.6082,-3.4717,-3.3838,-3.3582,-3.3582,-3.3313,-3.2761,-3.2761,-3.2449,-3.1866,-3.1866,-3.1548,-3.1031,0.0,0.0,-2.8951,-2.8804,-2.8353,-2.7735,-2.765,-2.766,-2.776,-2.776,-2.776,-2.776,0.0,0.0,0.0,0.0,0.0,0.0,0.0,-1.6561,-1.735,-1.8527,-1.7676,-1.6932,-1.692,-1.6692,-1.6545,0.0,0.0,0.0,0.0,0.0,0.0,0.0,0.0,-1.8444,-1.9826,-2.0529,0.0,0.0,0.0,0.0,0.0,0.0,0.0,0.0,0.0,0.0,0.0,0.0,0.0,0.0,0.0,0.0,0.0,0.0,0.0,0.0,0.0,-2.292,-2.2816,-2.3795,-2.4662,-2.5763,-2.8111,-2.9663,-3.0572,-3.0468,-3.0441,-3.0324,-2.9803,-2.9659,-2.9566,-2.9097,-2.8202,-2.705,-2.5542,0.0,0.0,0.0,-2.1353,-2.2058,-2.2155,-2.4297,0.0,-2.8636,-3.0357,-3.2168,-3.4173,-3.4457,0.0,-3.5429,-3.5504,0.0,0.0,0.0,0.0,0.0,0.0,-3.599,-3.713,-3.6843,-3.6007,-3.4603,-3.3568,-3.2872,-3.2516,-3.2516,-3.2367,-3.2035,-3.2035,-3.1853,-3.1511,-3.1511,-3.1122,-3.0522,-3.0881,0.0,-2.8622,-2.8966,-2.8528,-2.76,-2.76,-2.76,-2.76,-2.76,-2.76,-2.76,0.0,0.0,0.0,0.0,0.0,0.0,0.0,-1.7871,-1.8623,-2.0548,-2.0063,-1.9358,-1.8806,-1.853,-1.8154,0.0,0.0,0.0,0.0,0.0,0.0,0.0,0.0,0.0,0.0,0.0,0.0,0.0,0.0,0.0,0.0,0.0,0.0,0.0,0.0,0.0,0.0,0.0,0.0,0.0,0.0,0.0,0.0,0.0,0.0,0.0,0.0,0.0,-2.2548,-2.3166,-2.3891,-2.5085,-2.8054,-2.9855,-3.092,-3.1213,-3.1286,-3.1186,-3.0704,-3.0554,-3.0389,-2.969,-2.8388,-2.6785,-2.5222,-2.39,0.0,-2.0402,-2.0589,-2.1107,-2.1038,-2.3134,-2.5312,0.0,-2.875,-3.1023,-3.3185,-3.3619,-3.4158,0.0,-3.5504,0.0,0.0,0.0,0.0,0.0,0.0,0.0,-3.6322,-3.5599,-3.4637,-3.3545,-3.2721,-3.2034,-3.1511,-3.1511,-3.1511,-3.1511,-3.1511,-3.1511,-3.1511,-3.1511,-3.1122,-3.0537,-3.1047,0.0,0.0,-2.916,-2.8678,-2.76,-2.76,-2.76,-2.76,-2.76,-2.76,-2.76,0.0,0.0,0.0,0.0,0.0,0.0,0.0,-1.9353,-1.9931,-2.0711,-2.1142,-2.1134,-2.0545,-1.9547,-1.8707,0.0,0.0,0.0,0.0,0.0,0.0,0.0,0.0,0.0,0.0,0.0,0.0,0.0,0.0,0.0,0.0,0.0,0.0,0.0,0.0,0.0,0.0,0.0,0.0,0.0,0.0,0.0,0.0,0.0,0.0,0.0,0.0,0.0,0.0,-2.393,0.0,-2.5429,-2.7144,-2.8148,-2.8926,-3.0207,0.0,0.0,-3.123,-3.138,-3.138,-3.1278,-2.974,-2.7911,-2.6623,0.0,-2.2269,-2.0915,-2.025,-2.0334,-2.1495,-2.2339,-2.3878,-2.7002,0.0,-3.0456,-3.3109,-3.4008,-3.4666,-3.5415,0.0,0.0,0.0,0.0,0.0,0.0,0.0,0.0,0.0,-3.4403,-3.3636,-3.3499,-3.2243,-3.157,-3.1511,-3.1511,-3.1511,-3.1511,-3.1511,-3.1511,-3.1511,-3.1511,-3.1122,-3.0507,0.0,0.0,0.0,-2.8667,-2.8248,-2.76,-2.76,-2.76,-2.76,-2.76,-2.76,-2.76,0.0,0.0,0.0,0.0,0.0,0.0,-1.9383,-1.9419,-1.9891,-2.1556,-2.1636,-2.1575,-2.1665,-2.0966,-2.0024,-1.8782,0.0,0.0,0.0,0.0,0.0,0.0,0.0,0.0,0.0,0.0,0.0,0.0,0.0,0.0,0.0,0.0,0.0,0.0,0.0,0.0,0.0,0.0,0.0,0.0,0.0,0.0,0.0,0.0,0.0,0.0,0.0,0.0,0.0,0.0,0.0,0.0,-2.48,-2.5578,0.0,0.0,-3.0223,-3.0567,-3.0836,-3.1182,-3.138,-3.0896,-2.926,-2.7366,-2.6015,-2.3764,-2.169,-2.0858,-2.0515,-2.0482,-2.1054,-2.2217,-2.3662,-2.5432,-2.6824,-2.8474,-3.0811,-3.1689,-3.2632,-3.4113,0.0,0.0,0.0,0.0,0.0,0.0,0.0,0.0,0.0,-3.4008,-3.3499,-3.3499,-3.2183,-3.1511,-3.1511,-3.1511,-3.1511,-3.1511,-3.1511,-3.1511,-3.1511,-3.1511,-3.0956,-2.9968,0.0,0.0,0.0,-2.8427,-2.8188,-2.76,-2.76,-2.76,-2.76,-2.76,-2.76,-2.76,0.0,0.0,0.0,0.0,0.0,-1.916,-2.0328,-2.0171,-2.0493,-2.2118,-2.2177,-2.2048,-2.2056,-2.187,-2.1192,-1.9874,-1.9284,0.0,0.0,0.0,0.0,0.0,0.0,0.0,0.0,0.0,0.0,0.0,0.0,0.0,0.0,0.0,0.0,0.0,0.0,0.0,0.0,0.0,0.0,0.0,0.0,0.0,0.0,0.0,0.0,0.0,0.0,0.0,0.0,0.0,0.0,0.0,-2.3591,-2.4147,-2.5066,0.0,-2.9322,-2.9759,-3.0342,-3.0823,-3.1009,-3.0219,-2.8661,-2.6886,-2.533,-2.316,-2.138,-2.1018,-2.0805,-2.0742,-2.0905,-2.2103,-2.3382,-2.4338,-2.5597,-2.7285,-2.9545,-3.0402,-3.148,0.0,0.0,0.0,0.0,0.0,0.0,0.0,0.0,0.0,0.0,-3.3664,-3.32,-3.32,-3.2093,-3.1511,-3.1511,-3.1511,-3.1511,-3.1511,-3.1511,-3.1406,-3.1197,-3.1197,-3.0522,-2.9337,0.0,0.0,0.0,-2.8124,-2.8034,-2.76,-2.76,-2.76,-2.76,-2.76,-2.76,-2.76,0.0,0.0,0.0,0.0,0.0,0.0,-2.18,-2.2144,-2.2244,-2.2198,-2.2881,-2.2896,-2.166,-2.1983,-2.2071,-2.1506,-1.9974,0.0,0.0,0.0,0.0,0.0,0.0,0.0,0.0,0.0,-2.3621,-2.5477,-2.5564,0.0,0.0,0.0,0.0,0.0,0.0,0.0,0.0,0.0,0.0,0.0,0.0,0.0,0.0,0.0,0.0,0.0,0.0,0.0,0.0,0.0,0.0,0.0,0.0,-2.4445,-2.4836,-2.6986,-2.763,-2.8049,-2.9983,-3.0507,-3.0324,-2.9595,-2.8364,-2.6775,-2.4851,-2.2905,-2.1493,-2.1481,-2.1069,-2.0855,-2.138,-2.1933,-2.2788,-2.4257,-2.5564,-2.7371,-3.0103,-3.1062,0.0,0.0,0.0,0.0,0.0,0.0,0.0,0.0,0.0,0.0,0.0,-3.3245,-3.2497,-3.2497,-3.1854,-3.1511,-3.1511,-3.1511,-3.1511,-3.1511,-3.1511,-3.1152,-3.0507,-3.0507,-2.9819,0.0,0.0,0.0,0.0,-2.76,-2.76,-2.76,-2.76,-2.76,-2.76,-2.76,-2.76,-2.76,0.0,0.0,0.0,0.0,0.0,0.0,0.0,-2.1101,-2.1237,-2.2087,-2.1777,-2.179,-2.2644,-2.2168,-2.1832,-2.2033,-2.123,0.0,0.0,0.0,0.0,0.0,0.0,0.0,0.0,0.0,-2.3563,-2.55,-2.6436,-2.6686,-2.6283,0.0,0.0,0.0,0.0,0.0,0.0,0.0,0.0,0.0,0.0,0.0,0.0,0.0,0.0,0.0,0.0,0.0,0.0,0.0,0.0,0.0,0.0,0.0,0.0,-2.5048,-2.648,-2.763,-2.7784,-2.8169,-2.8212,-2.6975,-2.5989,-2.501,-2.3802,-2.2461,-2.1594,-2.197,-2.1606,-2.1393,-2.1945,-2.2498,-2.3314,-2.4691,-2.5253,0.0,0.0,0.0,0.0,0.0,0.0,0.0,0.0,0.0,0.0,0.0,0.0,0.0,0.0,-3.2736,-3.2512,-3.2512,-3.1854,-3.1511,-3.1511,-3.1511,-3.1511,-3.1496,-3.1032,-3.0717,-3.0492,-3.0058,0.0,0.0,0.0,0.0,0.0,-2.6508,-2.6375,-2.68,-2.6295,-2.6108,-2.6162,-2.6654,-2.6522,-2.6162,0.0,0.0,0.0,0.0,0.0,0.0,0.0,-2.1182,-2.1231,-2.2024,-2.1453,-2.1486,-2.2827,-2.2281,-2.202,-2.2543,-2.2309,0.0,0.0,0.0,0.0,0.0,0.0,0.0,0.0,-2.2239,-2.3878,-2.5855,-2.6956,-2.7592,-2.77,-2.6651,-2.5259,0.0,0.0,0.0,0.0,0.0,0.0,0.0,0.0,0.0,0.0,0.0,0.0,0.0,0.0,0.0,0.0,0.0,0.0,0.0,0.0,0.0,0.0,0.0,-2.4358,-2.5808,-2.6135,-2.6535,-2.649,-2.508,-2.4403,-2.3828,-2.2752,-2.1983,-2.1644,-2.2196,-2.2033,-2.197,-2.2493,-2.2869,-2.3479,-2.4619,-2.4804,-2.5528,0.0,0.0,0.0,0.0,0.0,0.0,0.0,0.0,0.0,0.0,0.0,0.0,0.0,0.0,-3.2108,-3.2108,-3.172,-3.1511,-3.1511,-3.1511,-3.1511,-3.1496,-3.0808,-3.0218,-2.9684,-2.9079,0.0,0.0,0.0,0.0,0.0,-2.5783,-2.5673,-2.6041,-2.5563,-2.5398,-2.5453,-2.5933,-2.5783,-2.5481,0.0,0.0,0.0,0.0,0.0,0.0,0.0,-2.2065,-2.1951,-2.1997,-2.1737,-2.1757,-2.2353,-2.2347,-2.2502,-2.2995,0.0,0.0,0.0,0.0,0.0,0.0,0.0,0.0,0.0,-2.2813,-2.4415,-2.6537,-2.7172,-2.8236,-2.9639,-2.8039,-2.6657,-2.5495,-2.3894,0.0,0.0,0.0,0.0,0.0,0.0,0.0,0.0,0.0,0.0,0.0,0.0,0.0,0.0,0.0,0.0,0.0,0.0,0.0,0.0,0.0,0.0,0.0,0.0,-2.5293,-2.5026,-2.3784,-2.3444,-2.3035,-2.1726,-2.143,0.0,-2.2184,-2.2284,-2.2447,-2.3045,-2.3133,-2.336,-2.4207,-2.4337,-2.4999,0.0,-2.7343,0.0,0.0,0.0,0.0,0.0,0.0,0.0,0.0,0.0,0.0,0.0,0.0,-3.1262,-3.1322,-3.1306,-3.1335,-3.1511,-3.1438,-3.1423,-3.1421,-3.0648,-2.9585,-2.8309,-2.7648,0.0,0.0,0.0,0.0,0.0,-2.5287,-2.5259,-2.5315,-2.5259,-2.5231,-2.5231,-2.5287,-2.5287,-2.5231,0.0,0.0,0.0,0.0,0.0,0.0,0.0,0.0,0.0,0.0,-2.1451,-2.1319,-2.2428,-2.2459,-2.2405,0.0,0.0,0.0,0.0,0.0,0.0,0.0,0.0,0.0,0.0,-2.3524,-2.4885,-2.7925,-2.754,-2.8354,-3.0255,-2.8693,-2.7324,-2.6103,-2.4516,0.0,0.0,0.0,0.0,0.0,0.0,0.0,0.0,0.0,0.0,0.0,0.0,-2.1757,0.0,0.0,0.0,0.0,0.0,0.0,0.0,0.0,-2.1664,-2.1358,-2.1787,0.0,-2.2614,-2.2248,-2.1771,-2.1302,0.0,-2.0893,-2.1169,-2.2108,-2.197,-2.2108,-2.354,-2.3409,-2.3444,-2.45,-2.4671,-2.5203,-2.6751,0.0,0.0,0.0,0.0,0.0,0.0,0.0,0.0,0.0,0.0,0.0,0.0,0.0,-2.9179,-2.9552,-2.9207,-2.9779,-3.1467,-3.0896,-3.0646,-3.0703,-2.8857,-2.7883,-2.7661,-2.6454,0.0,0.0,0.0,0.0,-2.5315,-2.4134,-2.3989,-2.4509,-2.3872,-2.3636,-2.3725,-2.4337,-2.4163,-2.3725,0.0,0.0,0.0,0.0,0.0,0.0,0.0,0.0,0.0,0.0,0.0,0.0,0.0,0.0,0.0,0.0,0.0,0.0,0.0,0.0,0.0,0.0,0.0,0.0,-2.4484,-2.4682,-2.5965,-2.8396,-2.8296,-2.9189,-3.0914,-2.9062,-2.7684,-2.6713,-2.43,-2.2976,0.0,0.0,0.0,0.0,0.0,0.0,0.0,0.0,0.0,0.0,-2.0519,-2.0916,0.0,-2.1405,-2.1882,-2.2334,0.0,0.0,0.0,0.0,-2.0811,-2.0396,-2.0734,-2.1416,-2.1996,-2.1691,-2.1339,-2.1069,-2.1069,-2.088,-2.0867,-2.1458,-2.1518,-2.1845,-2.3012,-2.2945,-2.3095,-2.4255,-2.4443,0.0,0.0,0.0,0.0,0.0,0.0,0.0,0.0,0.0,0.0,0.0,0.0,0.0,0.0,0.0,-2.821,-2.8207,-2.821,-2.8886,-3.0329,-2.9665,-2.9381,-2.9406,-2.7678,-2.67,-2.6397,-2.5364,0.0,0.0,0.0,0.0,-2.4266,-2.3442,-2.3365,-2.3708,-2.3275,-2.3108,-2.3155,-2.3603,-2.3484,-2.3155,0.0,0.0,0.0,0.0,0.0,0.0,0.0,0.0,0.0,0.0,0.0,0.0,0.0,0.0,0.0,0.0,0.0,0.0,0.0,0.0,0.0,0.0,0.0,-2.4595,-2.495,-2.5925,-2.7173,-2.871,-2.9059,-3.0017,-3.1452,-2.9318,-2.7826,-2.6786,-2.3874,-2.2374,0.0,0.0,0.0,0.0,0.0,0.0,0.0,0.0,0.0,0.0,0.0,0.0,0.0,-2.0941,-2.1405,-2.1581,-2.1446,0.0,0.0,0.0,0.0,0.0,-2.0614,-2.1642,-2.2354,-2.1682,-2.1564,-2.1594,-2.1506,-2.1157,-2.0817,-2.0817,-2.1257,-2.1782,-2.2305,-2.251,0.0,0.0,0.0,0.0,0.0,0.0,0.0,0.0,0.0,0.0,0.0,0.0,0.0,0.0,0.0,0.0,0.0,0.0,0.0,-2.7064,-2.7362,-2.781,-2.8348,-2.8126,-2.7977,-2.7906,-2.6646,-2.5691,-2.5054,-2.4416,-2.3738,0.0,0.0,0.0,-2.3108,-2.3108,-2.3108,-2.3108,-2.3108,-2.3108,-2.3108,-2.3108,-2.3108,-2.3108,0.0,0.0,0.0,0.0,0.0,0.0,0.0,0.0,0.0,0.0,0.0,0.0,0.0,0.0,0.0,0.0,0.0,0.0,0.0,0.0,0.0,0.0,-2.4368,-2.5293,-2.7006,-2.6693,-2.7694,-3.0175,-2.9084,-2.9549,-3.1467,-2.9697,-2.7552,-2.5141,-2.4179,-2.3423,-2.2884,0.0,0.0,0.0,0.0,0.0,0.0,0.0,0.0,0.0,0.0,0.0,0.0,-2.0162,-2.1004,-2.202,-2.1119,0.0,0.0,0.0,0.0,0.0,-2.056,-2.1837,-2.2769,-2.1835,-2.1884,-2.2071,-2.1594,-2.1458,-2.1395,-2.1395,-2.1794,-2.2347,-2.2882,-2.3371,-2.3954,0.0,0.0,0.0,0.0,0.0,0.0,0.0,0.0,0.0,0.0,0.0,0.0,0.0,0.0,0.0,0.0,0.0,0.0,-2.5863,-2.5058,-2.4892,-2.5422,-2.6553,-2.6954,-2.6658,-2.5122,-2.4387,-2.4411,-2.3628,-2.3215,0.0,0.0,-2.3108,-2.3108,-2.3108,-2.3108,-2.3108,-2.3108,-2.3108,-2.3108,-2.3108,-2.3108,-2.3108,0.0,0.0,0.0,0.0,0.0,0.0,0.0,0.0,0.0,0.0,0.0,0.0,0.0,0.0,0.0,0.0,0.0,0.0,0.0,0.0,0.0,-2.3632,-2.4129,-2.5356,-2.7459,-2.7927,-2.8926,-3.0507,-3.0199,-3.0554,-3.1452,-2.9549,-2.7374,-2.4999,-2.4425,-2.3769,-2.3078,-2.2702,0.0,0.0,0.0,0.0,0.0,0.0,0.0,0.0,0.0,0.0,0.0,0.0,-2.0978,-2.1732,-2.0943,0.0,0.0,0.0,0.0,0.0,-2.0125,-2.1418,-2.2556,-2.2084,-2.2816,-2.3602,-2.3351,-2.2824,-2.2297,-2.1995,-2.1762,-2.1672,0.0,0.0,-2.3233,-2.4289,0.0,0.0,0.0,0.0,0.0,0.0,0.0,0.0,0.0,0.0,0.0,0.0,0.0,0.0,0.0,0.0,0.0,0.0,-2.4092,-2.3966,-2.3885,-2.4854,-2.5273,-2.509,-2.4019,-2.3571,-2.3632,-2.3275,-2.3108,-2.3108,0.0,-2.3108,-2.3108,-2.3108,-2.3108,-2.3108,-2.3108,-2.3108,-2.3108,-2.3108,-2.3108,-2.3108,0.0,0.0,0.0,0.0,0.0,0.0,0.0,0.0,0.0,0.0,0.0,0.0,0.0,0.0,0.0,0.0,0.0,0.0,0.0,0.0,-2.3108,-2.3108,-2.3884,-2.529,-2.7411,-2.8548,-2.9625,-3.0746,-3.1077,-3.126,-3.116,-2.9218,-2.7261,-2.5372,-2.477,-2.3985,-2.3108,-2.3108,-2.3108,0.0,0.0,0.0,0.0,0.0,0.0,0.0,0.0,0.0,0.0,0.0,0.0,0.0,0.0,0.0,0.0,-2.0263,-1.9911,-1.9823,-1.9962,-2.0919,-2.1944,-2.2226,-2.3346,-2.4462,-2.4725,-2.3754,-2.2694,-2.2422,-2.1728,0.0,0.0,-2.1639,0.0,-2.385,0.0,0.0,0.0,0.0,0.0,0.0,0.0,0.0,0.0,0.0,0.0,0.0,0.0,0.0,0.0,0.0,0.0,0.0,-2.364,-2.359,-2.3108,-2.3547,-2.3803,-2.3791,-2.3321,-2.3108,-2.3108,-2.3108,-2.3108,-2.3108,-2.3108,-2.3108,-2.3108,-2.3108,-2.3108,-2.3108,-2.3108,-2.3108,-2.3108,-2.3108,-2.3108,-2.3108,0.0,0.0,0.0,0.0,0.0,0.0,0.0,0.0,0.0,0.0,0.0,0.0,0.0,0.0,0.0,0.0,0.0,0.0,0.0,0.0,-2.3108,-2.3108,-2.3884,-2.5249,-2.7275,-2.754,-2.8904,-3.1436,-3.0838,-3.0496,-3.0345,-2.8769,-2.7322,-2.6008,-2.5348,-2.4318,-2.3108,-2.3108,-2.3108,-2.3058,0.0,0.0,0.0,0.0,0.0,0.0,0.0,0.0,0.0,0.0,0.0,0.0,0.0,0.0,-2.0729,-2.0654,-2.0251,-1.9924,-2.0478,-2.06,-2.0805,-2.1998,-2.2757,-2.3496,-2.455,-2.3245,-2.1922,-2.2404,-2.2144,0.0,0.0,-2.2064,-2.3436,-2.3519,0.0,0.0,0.0,0.0,0.0,0.0,0.0,0.0,0.0,0.0,0.0,0.0,0.0,0.0,0.0,0.0,0.0,0.0,0.0,-2.3145,-2.3108,-2.3145,-2.3158,-2.3158,-2.312,-2.3108,-2.3108,-2.3108,-2.3108,-2.3108,-2.3108,-2.3108,-2.3108,-2.3108,-2.3108,-2.3108,-2.3108,-2.3108,-2.3108,-2.3108,-2.3108,-2.3108,0.0,0.0,0.0,0.0,0.0,0.0,0.0,0.0,0.0,0.0,0.0,0.0,0.0,0.0,0.0,0.0,0.0,0.0,0.0,0.0,-2.2744,-2.3095,-2.3395,-2.4311,-2.597,-2.7357,-2.8957,-3.0748,-3.0485,-3.0337,-3.024,-2.8372,-2.7006,-2.6061,-2.5061,-2.4033,-2.3108,-2.3108,-2.3108,-2.3058,-2.2506,0.0,0.0,0.0,0.0,0.0,0.0,0.0,0.0,0.0,-1.9137,-1.9943,-1.9575,-2.0032,-2.0629,-2.0264,-1.9974,-1.9849,-2.0075,-2.022,-2.0473,-2.1276,-2.1254,-2.1549,-2.3453,-2.3142,-2.2491,-2.2605,-2.2057,0.0,0.0,0.0,-2.1452,0.0,0.0,0.0,0.0,0.0,0.0,0.0,0.0,0.0,0.0,0.0,0.0,0.0,0.0,0.0,0.0,0.0,0.0,0.0,0.0,-2.3108,-2.3108,-2.3108,-2.3108,-2.3108,-2.3108,-2.3108,-2.3108,-2.3108,-2.3108,-2.3053,-2.2272,-2.1915,-2.1849,-2.1063,-2.087,-2.1158,-2.1413,-2.1542,-2.1542,-2.1542,-2.1542,-2.1542,0.0,0.0,0.0,0.0,0.0,0.0,0.0,0.0,0.0,0.0,0.0,0.0,0.0,0.0,0.0,0.0,0.0,0.0,0.0,-2.1958,-2.2297,-2.2819,-2.2844,-2.3471,-2.478,-2.6755,-2.8282,-2.9351,-2.911,-2.911,-2.9323,-2.7416,-2.6371,-2.6047,-2.4836,-2.3959,-2.3358,-2.2995,-2.2844,-2.2807,-2.246,-2.1428,0.0,0.0,0.0,0.0,0.0,0.0,0.0,0.0,-1.8015,-1.8756,-1.8491,-1.903,-1.9685,-1.9439,-1.9352,-1.9325,-1.9325,-1.9293,-1.943,-2.0143,-1.9666,-1.9607,-2.1721,-2.2046,-2.2039,-2.2418,-2.1553,-2.0756,-2.0736,0.0,0.0,0.0,0.0,0.0,0.0,0.0,0.0,0.0,0.0,0.0,0.0,0.0,0.0,0.0,0.0,0.0,0.0,0.0,0.0,0.0,0.0,-2.231,-2.231,-2.231,-2.231,-2.231,-2.231,-2.2598,-2.3095,-2.2667,-2.2503,-2.2448,-2.1296,-2.0798,-2.0714,-1.9855,-1.964,-1.9935,-2.0252,-2.0387,-2.0364,-2.025,-2.0252,-2.0387,0.0,0.0,0.0,0.0,0.0,0.0,0.0,0.0,0.0,0.0,0.0,0.0,0.0,0.0,0.0,0.0,0.0,0.0,-2.0799,-2.1207,-2.1732,-2.2284,-2.2309,-2.2836,-2.3966,-2.5539,-2.6687,-2.7329,-2.6502,-2.6533,-2.7256,-2.5791,-2.5467,-2.6047,-2.4836,-2.4192,-2.3904,-2.2786,-2.2309,-2.2297,-2.2297,-2.1194,0.0,0.0,0.0,0.0,0.0,0.0,0.0,0.0,-1.6969,-1.7074,-1.7596,0.0,0.0,-1.8323,-1.8412,-1.8286,-1.8286,-1.7748,-1.7465,-1.8621,-1.8145,-1.784,-1.9418,-1.9796,-2.0215,-2.1669,-2.0562,-1.9561,-2.0439,0.0,0.0,0.0,0.0,0.0,0.0,0.0,0.0,0.0,0.0,0.0,0.0,0.0,0.0,0.0,0.0,0.0,0.0,0.0,0.0,0.0,0.0,0.0,-2.059,-2.059,-2.0579,-2.0579,-2.0579,-2.1467,-2.301,-2.1752,-2.117,-2.1141,-2.027,-1.989,-1.989,-1.986,-1.986,-1.986,-1.986,-1.9871,-1.9815,-1.9422,-1.9516,-1.9871,0.0,0.0,0.0,0.0,0.0,0.0,0.0,0.0,0.0,0.0,0.0,0.0,0.0,0.0,0.0,0.0,0.0,0.0,-2.1355,-2.1072,-2.1358,-2.2272,-2.2309,-2.2619,-2.3346,-2.3833,-2.5654,-2.8902,-2.7561,-2.6985,-2.7209,-2.562,-2.4778,-2.4612,-2.4249,-2.3601,-2.2786,-2.2447,-2.2083,-2.1732,-2.1732,-2.0862,0.0,0.0,0.0,0.0,0.0,0.0,0.0,0.0,0.0,0.0,-1.6402,0.0,-1.7639,-1.7812,-1.7829,-1.7801,-1.7801,-1.7499,-1.7357,-1.798,-1.799,-1.8115,-1.9207,-1.968,-2.0088,0.0,-2.0582,-2.0204,-2.0117,0.0,0.0,0.0,0.0,0.0,0.0,0.0,0.0,0.0,0.0,0.0,0.0,0.0,0.0,0.0,0.0,0.0,0.0,0.0,0.0,0.0,0.0,0.0,-2.059,-2.0275,-2.0095,-2.0095,-1.982,-2.0076,-2.0838,-2.0473,-2.0117,-1.9803,-1.8629,-1.8129,-1.81,-1.7479,-1.7216,-1.7246,-1.7543,-1.7644,-1.7634,-1.7533,-1.7563,-1.7644,0.0,0.0,0.0,0.0,0.0,0.0,0.0,0.0,0.0,0.0,0.0,0.0,0.0,0.0,0.0,0.0,0.0,0.0,0.0,0.0,-2.0815,-2.1933,-2.1983,-2.2479,-2.3547,-2.3573,-2.5147,-2.8373,-2.6805,-2.6052,-2.6022,-2.5062,-2.4404,-2.3991,-2.3753,-2.3276,-2.2581,-2.2171,-2.1669,-2.1182,-2.1182,-2.0394,-1.9226,0.0,0.0,0.0,0.0,0.0,0.0,0.0,0.0,0.0,-1.5198,-1.5644,-1.626,-1.6414,-1.6605,-1.68,-1.7154,-1.7127,-1.7175,-1.7946,-1.8198,-1.8525,-1.9597,0.0,0.0,0.0,-2.0468,-2.0283,-2.0185,0.0,0.0,0.0,0.0,0.0,0.0,0.0,0.0,0.0,0.0,0.0,0.0,0.0,0.0,0.0,0.0,0.0,0.0,0.0,0.0,0.0,0.0,0.0,-1.9562,-1.9126,-1.8892,-1.8892,-1.8485,-1.8303,-1.8408,-1.8744,-1.8772,-1.8486,-1.7376,-1.6876,-1.6856,-1.6485,-1.6251,-1.6124,-1.6357,-1.6465,-1.6445,-1.6239,-1.6287,-1.6465,0.0,0.0,0.0,0.0,0.0,0.0,0.0,0.0,0.0,0.0,-2.3655,0.0,0.0,0.0,0.0,0.0,0.0,0.0,0.0,0.0,-2.038,-2.1443,-2.1581,-2.2439,-2.415,-2.4205,-2.4866,-2.6283,-2.5007,-2.4423,-2.4509,-2.4403,-2.4252,-2.3984,-2.3364,-2.3045,-2.2882,-2.1807,-2.1043,-2.0541,-2.049,-1.9731,-1.8711,-1.9185,0.0,0.0,0.0,0.0,0.0,0.0,0.0,0.0,-1.4163,-1.4163,-1.4241,-1.4668,-1.5049,-1.5537,-1.6356,-1.6609,-1.6941,-1.8178,-1.8578,-1.8987,-2.0312,-2.0605,-2.0605,-2.0605,0.0,-2.0098,0.0,0.0,0.0,0.0,0.0,0.0,0.0,0.0,0.0,0.0,0.0,0.0,0.0,0.0,0.0,0.0,0.0,0.0,0.0,0.0,0.0,0.0,0.0,0.0,-1.7959,-1.75,-1.7298,0.0,-1.6816,-1.6396,-1.6056,-1.6915,-1.7259,-1.7177,-1.6377,-1.6036,-1.6065,-1.6445,-1.6377,-1.6036,-1.6036,-1.6036,-1.5987,-1.5557,-1.5664,-1.6036,0.0,0.0,0.0,0.0,0.0,0.0,0.0,0.0,0.0,0.0,0.0,0.0,0.0,0.0,0.0,0.0,0.0,0.0,0.0,0.0,-2.0875,-2.1471,-2.2322,-2.2946,-2.3365,-2.3365,-2.3813,-2.4766,-2.5035,-2.5453,-2.6014,-2.5266,-2.4675,-2.4184,-2.3458,-2.2631,-2.1769,-2.0639,-1.9861,-1.9346,-1.8907,-1.8559,-1.8252,-1.7808,-1.772,0.0,0.0,0.0,0.0,0.0,0.0,0.0,-1.4648,-1.4648,-1.4658,-1.4784,-1.4844,-1.5039,-1.5557,-1.5947,-1.6467,-1.7412,-1.8408,-1.9394,-2.039,-2.0605,-2.0605,-2.0605,-2.0527,0.0,0.0,0.0,0.0,0.0,0.0,0.0,0.0,0.0,0.0,0.0,0.0,0.0,0.0,0.0,0.0,0.0,0.0,0.0,0.0,0.0,0.0,0.0,0.0,-1.7519,-1.7519,-1.677,-1.6378,0.0,-1.5908,-1.5644,-1.5566,-1.6138,-1.6188,-1.583,-1.5635,-1.5557,-1.5557,-1.5654,-1.5635,-1.5557,-1.5557,-1.5557,-1.5537,-1.5449,-1.5469,-1.5557,0.0,0.0,0.0,0.0,0.0,0.0,0.0,0.0,0.0,0.0,0.0,0.0,0.0,0.0,0.0,0.0,0.0,0.0,0.0,0.0,-2.1004,-2.1471,-2.2518,-2.3108,-2.3108,0.0,0.0,0.0,-2.4132,-2.4546,-2.5439,-2.5305,-2.4715,-2.3708,-2.3027,-2.2133,-2.1069,-2.0162,-1.9346,-1.8581,-1.8317,-1.8204,-1.8157,-1.7762,-1.78,-1.7896,-1.6777,0.0,0.0,0.0,0.0,0.0,0.0,0.0,-1.418,-1.418,-1.4316,-1.4609,-1.5234,-1.5889,-1.6689,-1.7978,-1.8799,-1.9453,-2.0107,-2.0136,-1.9989,-1.9989,-2.0321,0.0,0.0,0.0,0.0,0.0,0.0,0.0,0.0,0.0,0.0,0.0,0.0,0.0,0.0,0.0,0.0,0.0,0.0,0.0,0.0,-1.8008,0.0,0.0,-1.75,-1.7285,-1.708,-1.6427,-1.6095,-1.6085,-1.5615,-1.541,-1.542,-1.5644,-1.5625,-1.541,-1.541,-1.541,-1.541,-1.541,-1.541,-1.541,-1.541,-1.541,-1.541,-1.541,-1.541,-1.541,0.0,0.0,0.0,0.0,0.0,0.0,0.0,0.0,0.0,0.0,0.0,0.0,0.0,0.0,0.0,0.0,0.0,0.0,0.0,-2.1585,-2.1108,-2.1513,-2.2367,-2.2819,0.0,0.0,0.0,0.0,-2.2999,-2.3103,-2.4118,-2.4758,-2.4431,-2.328,-2.2506,-2.1606,-2.0641,-1.9849,-1.8957,-1.8053,-1.7953,-1.7915,-1.7915,-1.7915,-1.7895,-1.7793,-1.705,-1.6461,-1.5964,-1.5551,0.0,0.0,0.0,0.0,-1.348,-1.3352,-1.3646,-1.4145,-1.4829,-1.5827,-1.7077,-1.8682,-1.9121,-1.9287,-1.9707,-1.9541,-1.9287,-1.9287,0.0,0.0,0.0,0.0,0.0,0.0,0.0,0.0,0.0,0.0,0.0,0.0,0.0,0.0,0.0,0.0,0.0,0.0,0.0,0.0,-1.8008,-1.7939,-1.7744,-1.7393,-1.7269,-1.6982,-1.659,-1.6172,-1.5977,-1.5977,-1.5586,-1.541,-1.541,-1.541,-1.541,-1.541,-1.541,-1.541,-1.541,-1.541,-1.541,-1.541,-1.541,-1.541,-1.541,-1.541,-1.541,-1.541,0.0,0.0,0.0,0.0,0.0,0.0,0.0,0.0,0.0,0.0,-2.5402,-2.5247,-2.4664,-2.3535,0.0,0.0,0.0,0.0,-2.2711,0.0,0.0,-2.159,-2.1659,-2.1707,0.0,0.0,0.0,-2.1875,-2.236,-2.2826,-2.3263,-2.3553,-2.3834,-2.4066,-2.2359,-2.1282,-2.0591,-1.9058,-1.8053,-1.7473,-1.6948,-1.6726,-1.6726,-1.6726,-1.67,-1.655,-1.5804,-1.5438,-1.5221,-1.4526,-1.4206,0.0,0.0,0.0,0.0,-1.2793,-1.3072,-1.3562,-1.3432,-1.5008,-1.6931,-1.7939,-1.8457,-1.8802,0.0,0.0,-1.9287,0.0,0.0,0.0,0.0,0.0,0.0,0.0,0.0,0.0,0.0,0.0,0.0,0.0,0.0,0.0,0.0,0.0,0.0,0.0,0.0,0.0,-1.8008,-1.7666,-1.7474,-1.7383,-1.6672,-1.6242,-1.6183,-1.5713,-1.5498,-1.5498,-1.5439,-1.541,-1.541,-1.541,-1.541,-1.541,-1.541,-1.541,-1.541,-1.541,-1.541,-1.541,-1.541,-1.541,-1.541,-1.541,-1.541,-1.541,0.0,0.0,0.0,0.0,0.0,0.0,0.0,0.0,0.0,0.0,0.0,-2.4933,-2.4634,-2.3759,0.0,0.0,0.0,0.0,-2.1629,-2.159,0.0,0.0,0.0,0.0,0.0,0.0,0.0,-2.1056,-2.0438,-2.1138,-2.3083,-2.2579,-2.3148,-2.45,-2.2732,-2.1644,-2.1031,-1.9032,-1.789,-1.736,-1.6748,-1.6876,-1.7365,-1.6738,-1.6871,-1.725,-1.5939,-1.524,-1.485,-1.4429,-1.4045,-1.3753,-1.3753,0.0,0.0,0.0,-1.2496,-1.3057,-1.3671,-1.4264,-1.5137,-1.6788,-1.6817,-1.6596,-1.7207,-1.7144,-1.6992,0.0,0.0,0.0,0.0,0.0,0.0,0.0,0.0,0.0,0.0,0.0,0.0,0.0,0.0,0.0,0.0,0.0,0.0,0.0,0.0,-1.791,-1.7676,-1.749,-1.7191,-1.6692,-1.629,-1.5977,-1.5703,-1.5508,-1.541,-1.541,-1.541,-1.541,-1.541,-1.541,-1.541,-1.541,-1.541,-1.541,-1.541,-1.541,-1.5138,-1.4726,-1.4726,-1.4451,-1.4055,-1.4055,-1.4332,-1.4726,0.0,0.0,0.0,0.0,0.0,0.0,0.0,0.0,0.0,0.0,0.0,0.0,-2.4605,0.0,0.0,0.0,0.0,0.0,-2.1009,0.0,0.0,0.0,0.0,0.0,0.0,0.0,-1.9206,-2.0063,-1.8945,-1.9936,-2.2882,-2.2083,-2.2962,-2.5159,-2.3339,-2.2058,-2.1182,-1.9233,-1.8091,-1.7551,-1.7124,-1.7428,-1.8118,-1.7334,-1.7585,-1.8117,-1.6162,-1.5231,0.0,0.0,0.0,0.0,0.0,0.0,0.0,0.0,0.0,-1.2079,-1.3322,-1.3371,-1.3486,-1.5285,-1.5222,-1.4819,0.0,0.0,-1.5199,0.0,0.0,0.0,0.0,0.0,0.0,0.0,0.0,0.0,0.0,0.0,0.0,0.0,0.0,0.0,0.0,0.0,0.0,0.0,0.0,-1.7822,-1.7402,-1.7275,-1.6897,-1.6114,-1.5987,-1.5742,-1.5391,-1.541,-1.541,-1.541,-1.541,-1.541,-1.5381,-1.5206,-1.5206,-1.5381,-1.5167,-1.5108,-1.5079,-1.4864,-1.4451,-1.3906,-1.3906,-1.3524,-1.3009,-1.3009,-1.3364,-1.3906,0.0,0.0,0.0,0.0,0.0,0.0,0.0,0.0,0.0,0.0,0.0,0.0,-2.4605,-2.349,-2.2733,0.0,0.0,0.0,0.0,0.0,0.0,0.0,0.0,0.0,0.0,-1.877,-1.877,-1.8329,-1.8744,-2.0111,-2.2347,-2.2297,-2.3728,-2.6311,-2.4067,-2.2209,-2.0654,-1.9472,-1.8644,-1.8154,-1.8129,-1.8154,-1.8209,-1.8434,-1.866,-1.8551,-1.6029,0.0,0.0,0.0,0.0,0.0,0.0,-1.2935,-1.2671,0.0,0.0,0.0,-1.1341,-1.2128,-1.2751,-1.326,-1.4037,-1.4729,0.0,0.0,0.0,0.0,0.0,0.0,0.0,0.0,0.0,0.0,0.0,0.0,0.0,0.0,0.0,0.0,0.0,0.0,0.0,0.0,0.0,0.0,0.0,-1.7822,-1.7402,-1.6992,-1.6553,-1.6105,-1.5664,-1.543,-1.541,-1.541,-1.541,-1.541,-1.541,-1.541,-1.5381,-1.4599,-1.4688,-1.5352,-1.4599,-1.4273,-1.4213,-1.3425,-1.31,-1.307,-1.307,-1.3039,-1.3009,-1.3009,-1.3039,-1.307,0.0,0.0,0.0,0.0,0.0,0.0,0.0,0.0,0.0,0.0,0.0,0.0,0.0,-2.355,-2.2952,-2.214,-2.1056,0.0,0.0,0.0,0.0,0.0,0.0,0.0,0.0,-1.7531,-1.7363,-1.7677,-1.711,-1.8339,-2.1242,-2.0878,-2.1807,-2.3766,-2.2962,-2.2443,-2.2108,-1.9923,-1.8895,-1.8707,-1.8707,-1.9158,-1.976,-1.9475,-1.9867,-2.0238,-1.7628,0.0,0.0,0.0,0.0,0.0,-1.2905,-1.2905,-1.2618,-1.12,-1.0012,-0.9406,-1.0558,-1.0644,-1.0731,-1.1981,-1.2326,-1.2426,-1.2808,-1.3114,0.0,0.0,0.0,0.0,0.0,0.0,0.0,0.0,0.0,0.0,0.0,0.0,0.0,0.0,0.0,0.0,0.0,0.0,0.0,0.0,0.0,0.0,-1.7002,-1.6785,-1.6365,-1.5664,-1.5498,-1.541,-1.541,-1.541,-1.541,-1.541,-1.541,-1.5147,-1.4628,-1.4323,-1.4085,-1.3816,-1.3023,-1.3265,-1.4145,-1.3334,-1.2704,-1.2235,-1.2235,-1.1903,-1.1452,-1.1452,-1.1779,-1.2235,0.0,0.0,0.0,0.0,0.0,0.0,0.0,0.0,0.0,-2.4901,0.0,0.0,0.0,0.0,-2.3039,-2.153,-2.0366,-1.9851,-2.0084,0.0,0.0,0.0,0.0,0.0,0.0,-1.7132,-1.6726,-1.7066,-1.6266,-1.7231,-1.9825,-1.9608,-2.0439,-2.202,-2.1428,-2.1691,-2.2418,-2.0426,-1.9434,-1.9258,-1.9179,-1.9594,-2.0247,-2.0103,-2.0447,-2.0682,0.0,0.0,0.0,0.0,0.0,0.0,-1.3135,-1.2683,-1.1999,-1.1074,-0.9865,-0.895,-0.9724,-0.9562,-0.9511,0.0,-1.0982,-1.0975,-1.1497,0.0,0.0,0.0,0.0,0.0,0.0,0.0,0.0,0.0,0.0,0.0,0.0,0.0,0.0,0.0,0.0,0.0,0.0,0.0,0.0,0.0,0.0,0.0,-1.6271,-1.6529,-1.6174,-1.502,-1.4991,-1.4874,-1.4599,-1.4874,-1.4874,-1.4599,-1.4874,-1.4569,-1.3795,-1.3507,-1.3235,-1.2948,-1.1872,-1.2174,-1.3326,-1.2543,-1.1872,-1.1406,-1.1406,-1.1076,-1.0593,-1.0593,-1.0926,-1.1406,0.0,0.0,0.0,0.0,0.0,0.0,0.0,0.0,-2.6233,-2.5503,0.0,0.0,0.0,0.0,0.0,-2.1029,-2.0223,-1.9584,-1.8996,-1.9496,0.0,0.0,0.0,0.0,-1.8242,-1.7593,-1.6991,-1.6407,-1.6372,-1.6932,-1.807,-1.866,-1.9849,-2.1343,-1.9722,-1.9885,-2.138,-2.0855,-2.0288,-1.9758,0.0,-1.94,-1.9488,0.0,-2.0308,0.0,-1.8494,-1.7772,0.0,-1.5449,0.0,0.0,0.0,-1.2259,-1.0788,-1.0788,-0.9865,-0.8804,0.0,0.0,0.0,0.0,0.0,0.0,-1.0883,0.0,0.0,0.0,0.0,0.0,0.0,0.0,0.0,0.0,0.0,0.0,0.0,0.0,0.0,0.0,0.0,0.0,0.0,0.0,0.0,0.0,0.0,-1.6206,-1.5366,-1.6141,-1.5856,-1.4231,-1.4154,-1.3795,-1.3009,-1.3756,-1.3756,-1.3009,-1.3786,-1.3726,-1.2948,-1.2174,-1.2205,-1.2856,-1.1264,-1.1045,-1.171,-1.0926,-1.0593,-1.0593,-1.0593,-1.0593,-1.0593,-1.0593,-1.0593,-1.0593,0.0,0.0,0.0,0.0,0.0,-2.9111,-2.7731,-2.6972,-2.6324,0.0,0.0,0.0,-2.4649,-2.3583,-2.2683,-2.2156,-2.104,-2.0355,-2.0295,-1.9985,-1.9683,-1.9357,-1.9638,-1.9479,-1.8782,-1.7395,-1.6581,-1.6407,-1.558,-1.5753,-1.6872,-1.7546,-1.8505,-1.966,-1.9208,-1.9259,-1.9647,-1.912,0.0,-1.9465,-1.9063,-1.9186,0.0,0.0,0.0,0.0,0.0,-1.847,-1.7663,0.0,-1.5488,-1.4473,0.0,0.0,-1.0788,-1.0788,-0.9865,-0.8804,-0.8804,0.0,0.0,0.0,0.0,0.0,0.0,0.0,0.0,0.0,0.0,0.0,0.0,0.0,0.0,0.0,0.0,0.0,0.0,0.0,0.0,0.0,0.0,0.0,0.0,0.0,0.0,0.0,-1.592,-1.5842,-1.5316,-1.504,-1.4408,-1.3373,-1.3334,-1.3221,-1.3009,-1.3221,-1.3221,-1.3009,-1.3221,-1.2909,-1.2104,-1.1896,-1.1593,-1.124,-1.0776,-1.0713,-1.0926,-1.0681,-1.0593,-1.0593,-1.0593,-1.0593,-1.0593,-1.0593,-1.0593,-1.0593,0.0,0.0,0.0,0.0,0.0,-2.952,-2.8229,-2.7465,-2.6881,0.0,0.0,0.0,-2.466,-2.3864,-2.3043,-2.2219,-2.1225,-2.0576,-2.0393,-2.0012,-1.969,-1.9484,-1.9666,-1.9659,-1.9346,-1.7572,-1.6583,-1.6395,-1.5164,-1.4964,-1.5695,-1.6348,-1.7124,-1.7955,-1.7955,-1.8092,-1.8304,-1.7739,0.0,0.0,-1.8774,0.0,0.0,-1.9464,-1.949,0.0,0.0,0.0,-1.7673,-1.7152,-1.6133,0.0,0.0,0.0,0.0,-1.0878,-0.9937,0.0,0.0,0.0,0.0,0.0,0.0,0.0,0.0,-0.8986,0.0,0.0,0.0,0.0,0.0,0.0,0.0,0.0,0.0,0.0,0.0,0.0,0.0,0.0,0.0,0.0,0.0,0.0,0.0,-1.4557,-1.5024,-1.5256,-1.5146,-1.4211,-1.3334,-1.2512,-1.2512,-1.2336,-1.2004,-1.2328,-1.2257,-1.1791,-1.2147,-1.1874,-1.1088,-1.1088,-1.0926,-1.0593,-1.0593,-1.0593,-1.0593,-1.0593,-1.0593,-1.0593,-1.0593,-1.0593,-1.0593,-1.0593,-1.0593,-1.0593,0.0,0.0,-3.1186,-3.0575,-3.044,-3.0007,-2.8954,-2.8259,-2.7824,0.0,-2.724,-2.63,-2.4937,-2.4692,-2.3798,-2.1847,-2.1131,-2.0541,-1.9936,-1.9836,-1.9597,-1.9108,-1.956,-1.9798,-1.9798,-1.7955,-1.6807,-1.6454,-1.5078,-1.4473,-1.4684,-1.5299,-1.5886,-1.6402,-1.6466,-1.681,-1.7262,-1.6873,0.0,-1.7946,-1.843,-1.8332,0.0,0.0,-1.8403,-1.7599,-1.8744,-1.8443,-1.7451,-1.7435,-1.6572,0.0,0.0,0.0,0.0,0.0,-1.0253,0.0,-0.9099,-0.8978,0.0,0.0,0.0,0.0,-0.8524,-0.8023,0.0,0.0,0.0,0.0,0.0,0.0,0.0,0.0,0.0,0.0,0.0,0.0,0.0,0.0,0.0,0.0,0.0,-1.2806,-1.2666,-1.3491,-1.4026,-1.4372,-1.4564,-1.349,-1.2512,-1.1679,-1.1679,-1.132,-1.0624,-1.1284,-1.1088,-1.0114,-1.0773,-1.0759,-1.0067,-1.0067,-1.0234,-1.0546,-1.0546,-1.0566,-1.0593,-1.0593,-1.0593,-1.0593,-1.0593,-1.0593,-1.0593,-1.0593,-1.0593,-1.0593,0.0,-3.0074,-3.048,-3.035,-2.99,-2.9652,-3.0052,-2.9594,-2.9217,-2.9217,-2.8622,-2.7815,-2.6787,-2.5798,-2.458,-2.293,-2.1895,-2.1119,-2.0566,-2.0062,-1.9761,-1.966,-1.9748,-1.9798,-1.9798,-1.7955,-1.695,-1.6886,-1.5214,-1.4423,-1.4474,-1.5246,-1.5654,-1.5798,-1.6281,-1.6563,-1.6735,-1.7539,0.0,-1.7863,-1.7276,0.0,-1.8311,-1.7903,-1.7823,-1.7934,-1.8172,-1.8085,-1.7832,-1.75,-1.6982,-1.6287,0.0,0.0,0.0,-1.2797,0.0,-1.0576,-1.0509,0.0,0.0,0.0,0.0,0.0,-0.743,-0.6791,-0.6393,0.0,0.0,0.0,0.0,0.0,0.0,0.0,0.0,0.0,0.0,0.0,0.0,0.0,0.0,0.0,0.0,-1.2409,-1.2378,-1.2556,-1.2858,-1.2869,-1.2422,-1.2174,-1.1686,-1.0863,-1.0832,-1.0776,-1.0593,-1.0499,-1.0319,-1.0114,-1.005,-0.9935,-0.9766,-0.9766,-0.9927,-1.02,-1.02,-1.0341,-1.0593,-1.0593,-1.0593,-1.0593,-1.0593,-1.0593,-1.0593,-1.0593,-1.0593,-1.0593,-2.8757,-2.9249,-2.9659,-2.9659,-2.9724,-2.9942,-3.0338,-3.0208,-3.0163,-3.0507,-3.0268,-2.9311,-2.7412,-2.6699,-2.5581,-2.37,-2.2548,-2.1656,-2.1131,-2.0578,-2.01,-1.9811,-1.9798,-1.9643,-1.9254,-1.7962,-1.7017,-1.6454,-1.5226,-1.4527,-1.4415,-1.4814,-1.5151,-1.5476,-1.5874,-1.5999,-1.5958,0.0,-1.7253,-1.7139,-1.8035,0.0,-1.9134,-1.8555,-1.8471,-1.8596,-1.8168,-1.8008,-1.7949,-1.7529,-1.709,0.0,0.0,-1.5103,-1.4223,0.0,-1.2774,-1.1887,0.0,0.0,0.0,-0.9578,0.0,0.0,0.0,0.0,-0.5846,-0.5686,0.0,0.0,0.0,0.0,0.0,0.0,0.0,0.0,0.0,0.0,0.0,0.0,0.0,0.0,0.0,-1.2305,-1.236,-1.2487,-1.2213,-1.1987,-1.1809,-1.1406,-1.1014,-1.0624,-1.0445,-1.0341,-1.0341,-1.0047,-0.9826,-0.965,-0.9504,-0.9459,-0.9459,-0.9459,-0.9619,-0.9907,-1.0053,-1.02,-1.0347,-1.0526,-1.0593,-1.0593,-1.0593,-1.0593,-1.0593,-1.0593,-1.0593,-1.0593,-2.7708,-2.8163,-2.8437,-2.8437,-2.9097,-2.9704,-2.987,-3.0075,-3.0467,-3.1174,-3.1409,-3.0529,-2.7966,-2.7573,-2.6708,-2.4792,-2.3301,-2.2334,0.0,-2.1182,-2.0528,-2.0137,-1.9924,-1.9499,-1.8896,-1.8034,-1.7077,-1.6027,-1.5104,-1.4546,-1.4326,-1.4299,-1.4576,-1.5139,-1.5418,-1.5498,-1.549,0.0,0.0,-1.68,0.0,-1.9677,-1.9351,-1.906,-1.8909,-1.8864,-1.824,-1.8008,-1.7949,-1.7529,0.0,-1.6736,-1.6261,-1.5716,0.0,0.0,0.0,0.0,0.0,0.0,0.0,0.0,0.0,-0.8149,0.0,0.0,0.0,-0.5544,0.0,0.0,0.0,0.0,0.0,0.0,0.0,0.0,0.0,0.0,0.0,0.0,0.0,0.0,0.0,-1.2164,-1.2196,-1.2359,-1.1661,-1.1339,-1.1553,-1.0958,-1.0593,-1.0593,-1.0327,-1.0174,-1.0083,-0.9826,-0.9532,-0.9211,-0.9158,-0.9131,-0.9131,-0.9131,-0.9291,-0.9613,-0.9846,-0.9983,-1.0134,-1.0374,-1.0539,-1.0593,-1.0593,-1.0593,-1.0593,-1.0593,-1.0593,-1.0593,-2.6086,-2.6392,-2.6423,-2.6423,-2.6898,-2.7561,-2.8324,-2.885,-2.9482,-3.0329,-3.1058,-3.0998,-2.9651,-2.8661,-2.7769,-2.699,0.0,0.0,-2.369,0.0,-2.088,-2.128,-2.0338,-1.971,-1.9511,-1.8244,-1.7224,-1.6437,-1.4927,-1.415,-1.4113,-1.3947,-1.4086,-1.4539,-1.5095,0.0,0.0,0.0,-1.6931,0.0,-1.8526,-1.8217,0.0,-1.758,-1.7616,-1.7665,-1.7905,-1.8008,-1.7949,0.0,-1.7344,-1.7168,0.0,-1.6266,-1.6328,0.0,0.0,0.0,0.0,0.0,0.0,0.0,-0.9205,0.0,0.0,0.0,-0.6805,-0.6865,0.0,0.0,0.0,0.0,0.0,0.0,0.0,0.0,0.0,0.0,0.0,0.0,0.0,0.0,0.0,0.0,-1.1424,-1.1201,-1.0866,-1.0692,-1.0713,-1.0656,-1.0593,-1.0593,-1.0559,-1.0412,-1.009,-0.9826,-0.9532,-0.9211,-0.8951,-0.8858,-0.8858,-0.8858,-0.8991,-0.9264,-0.9297,-0.9604,-1.009,-1.0154,-1.0321,-1.0593,-1.0593,-1.0593,-1.0593,-1.0593,-1.0593,-1.0491,-2.5249,-2.5426,-2.5358,-2.5358,-2.595,-2.6671,-2.7337,-2.8921,-3.0044,-3.0017,-3.0633,-3.0703,-2.9659,0.0,0.0,0.0,0.0,-2.4406,0.0,0.0,-2.1707,-2.0791,-2.0459,-1.9652,-1.824,-1.7807,-1.7024,-1.5864,-1.5191,-1.4591,-1.4094,-1.4009,-1.4057,-1.4254,-1.4896,0.0,-1.5694,0.0,-1.6364,0.0,0.0,0.0,0.0,-1.7907,-1.8191,-1.7773,-1.7949,-1.8008,-1.7949,0.0,-1.7217,0.0,0.0,0.0,0.0,0.0,0.0,0.0,0.0,0.0,0.0,0.0,0.0,0.0,-0.8197,0.0,-0.7575,0.0,0.0,0.0,0.0,0.0,0.0,0.0,0.0,0.0,0.0,0.0,0.0,0.0,0.0,0.0,0.0,0.0,0.0,0.0,0.0,-1.0593,-1.0593,-1.0593,-1.0593,-1.0593,-1.0258,-1.0023,-0.9866,-0.9406,-0.9112,-0.8958,-0.8864,-0.8804,-0.8804,-0.8804,-0.8871,-0.8971,-0.9138,-0.9451,-0.988,-1.0047,-1.0294,-1.0561,-1.004,-1.0142,-1.053,-1.004,-0.9849,-0.9722,-2.4369,-2.4427,-2.4324,-2.4324,-2.4992,-2.5754,-2.644,-2.8484,-2.9839,-2.95,-3.0088,0.0,-2.9698,-2.8736,0.0,0.0,-2.6804,-2.5611,0.0,0.0,-2.2537,-2.074,-2.0592,-1.9627,-1.765,-1.7514,-1.6796,-1.541,-1.5293,-1.4922,-1.428,-1.4046,-1.3997,-1.4141,-1.474,-1.5159,-1.5459,0.0,-1.609,-1.5576,-1.6224,-1.6327,-1.6311,-1.809,-1.8452,-1.8008,-1.8008,-1.8008,-1.7949,-1.7529,-1.7168,0.0,-1.6992,0.0,0.0,0.0,0.0,0.0,-1.383,0.0,0.0,0.0,0.0,0.0,0.0,0.0,0.0,0.0,0.0,0.0,0.0,0.0,0.0,0.0,0.0,0.0,0.0,0.0,0.0,0.0,0.0,0.0,0.0,0.0,0.0,0.0,0.0,0.0,-1.0586,-1.0593,-1.0553,-1.0472,-1.0027,-0.9726,-0.9566,-0.9138,-0.8858,-0.8804,-0.8804,-0.8804,-0.8804,-0.8804,-0.8804,-0.8818,-0.9004,-0.9264,-0.9557,-0.96,-0.9825,-1.0014,-0.9188,-0.9293,-0.9805,-0.9116,-0.8884,-0.8801,-2.3163,-2.3175,-2.3158,-2.3158,-2.3653,-2.44,-2.5468,-2.688,-2.7974,-2.8488,0.0,0.0,0.0,0.0,0.0,0.0,0.0,-2.6825,-2.5792,0.0,-2.3349,-2.1901,-2.0792,-1.9691,0.0,-1.7683,-1.662,-1.541,-1.5,-1.4785,-1.4774,-1.3916,-1.3724,0.0,-1.4598,-1.5038,-1.5439,-1.5909,-1.6576,-1.7298,-1.6855,-1.7187,-1.7891,0.0,-1.769,-1.8008,-1.8008,0.0,0.0,-1.7529,-1.7406,0.0,0.0,0.0,0.0,0.0,0.0,0.0,0.0,0.0,0.0,-1.2234,0.0,0.0,0.0,0.0,-0.9724,0.0,0.0,0.0,0.0,0.0,0.0,0.0,0.0,0.0,0.0,0.0,0.0,0.0,0.0,0.0,0.0,0.0,0.0,0.0,0.0,0.0,-1.0566,-1.0593,-1.0459,-1.014,-1.0114,-0.9797,-0.9231,-0.9211,-0.9058,-0.8804,-0.8804,-0.8804,-0.8804,-0.8804,-0.8804,-0.8804,-0.8818,-0.8958,-0.9167,-0.8677,-0.861,-0.8776,-0.8031,-0.7891,-0.8066,-0.7834,-0.7864,-0.7899,-2.3703,-2.3703,-2.359,-2.317,-2.3271,-2.3772,-2.4908,-2.6435,-2.7624,0.0,0.0,0.0,0.0,-2.9412,-2.9275,0.0,0.0,-2.7755,-2.6362,-2.5252,0.0,0.0,0.0,-1.9933,0.0,0.0,-1.7022,-1.587,-1.541,-1.5059,-1.4803,-1.4189,-1.3968,-1.4124,0.0,-1.5204,0.0,0.0,0.0,0.0,0.0,-1.7213,-1.7998,0.0,0.0,-1.8008,-1.8008,-1.8008,0.0,-1.7529,-1.7197,-1.6904,-1.6602,-1.618,-1.5859,-1.585,-1.5772,0.0,0.0,0.0,-1.3901,-1.2658,0.0,0.0,0.0,0.0,0.0,0.0,0.0,0.0,0.0,0.0,0.0,0.0,0.0,0.0,0.0,0.0,0.0,0.0,0.0,0.0,0.0,0.0,0.0,0.0,0.0,0.0,0.0,-1.0301,-1.0452,-1.0097,-0.9927,-0.9639,-0.9217,-0.9024,-0.8878,-0.8804,-0.8804,-0.8804,-0.8804,-0.8804,-0.8804,-0.8778,-0.8289,-0.8256,-0.8499,-0.7905,-0.7838,-0.8005,-0.7304,-0.708,-0.7121,-0.6922,-0.6976,-0.7005,-2.4293,-2.413,0.0,0.0,0.0,-2.401,-2.4926,-2.6339,0.0,0.0,-2.8285,0.0,-2.9691,0.0,-2.939,0.0,-2.9453,-2.8473,-2.6647,-2.5895,0.0,-2.1859,-2.1293,0.0,0.0,-1.8141,-1.7341,-1.6299,0.0,-1.542,-1.5,-1.457,-1.4338,-1.4385,0.0,-1.5429,-1.6134,-1.6709,-1.7019,0.0,0.0,-1.7486,0.0,0.0,-1.8008,-1.8008,0.0,-1.8008,-1.7949,-1.7529,-1.7197,-1.6882,-1.6592,-1.6103,-1.5664,-1.5791,-1.5635,-1.5294,-1.4785,-1.4628,0.0,-1.3582,-1.2968,0.0,-1.1959,0.0,0.0,0.0,0.0,0.0,0.0,0.0,0.0,0.0,0.0,0.0,0.0,0.0,0.0,0.0,0.0,0.0,0.0,0.0,-0.6457,-0.7283,0.0,0.0,0.0,0.0,-1.0094,-0.9973,-0.978,-0.9492,-0.9064,-0.8871,-0.8804,-0.8804,-0.8533,-0.8401,-0.8401,-0.8129,-0.8017,-0.7996,-0.7509,-0.7432,-0.7577,-0.7056,-0.6929,-0.7036,-0.6389,-0.618,-0.6216,-0.601,-0.6014,-0.6051,-2.4825,0.0,0.0,0.0,-2.4506,0.0,0.0,0.0,-2.7444,0.0,-2.8586,-2.9113,-2.9729,-2.9792,-2.9792,-2.9792,-2.9792,-2.8919,-2.682,-2.6609,0.0,0.0,-2.1837,-2.0866,-1.9941,-1.8691,-1.7594,0.0,0.0,0.0,-1.5439,-1.499,-1.4813,-1.4833,-1.5205,0.0,-1.6153,-1.7024,-1.7607,-1.8008,-1.8008,-1.8008,-1.8008,-1.8008,-1.8008,-1.8008,-1.8008,-1.8008,-1.7939,-1.75,-1.7353,-1.7197,-1.6339,-1.6065,-1.5977,-1.5537,-1.541,-1.541,-1.541,-1.541,-1.5312,-1.4922,0.0,0.0,0.0,0.0,-1.2899,0.0,0.0,0.0,0.0,0.0,0.0,0.0,0.0,0.0,0.0,0.0,0.0,0.0,0.0,0.0,0.0,0.0,-0.6142,-0.6566,-0.7014,0.0,0.0,0.0,-0.9395,-0.9641,-0.965,-0.9342,-0.8758,-0.8699,-0.8699,-0.8672,-0.799,-0.7643,-0.7616,-0.6912,-0.6588,-0.6588,-0.6561,-0.6534,-0.651,-0.6094,-0.5924,-0.5888,-0.5321,-0.5223,-0.5378,-0.5196,-0.511,-0.513,-2.5398,-2.5285,-2.5322,0.0,-2.5272,-2.5146,0.0,0.0,0.0,0.0,-2.8586,-2.9113,-2.9729,-2.9792,-2.9792,-2.9792,-2.9792,0.0,0.0,0.0,0.0,-2.3921,-2.2955,-2.1817,-2.0439,-1.9131,0.0,-1.7686,0.0,0.0,-1.5909,-1.5165,-1.4813,0.0,0.0,0.0,-1.6134,-1.666,-1.7291,-1.8008,-1.8008,-1.8008,0.0,0.0,-1.8008,-1.8008,-1.8008,-1.8008,-1.79,-1.7116,-1.6863,-1.6748,-1.5859,-1.5576,-1.5557,-1.5449,-1.541,-1.541,-1.541,-1.541,-1.5381,-1.5273,-1.4896,-1.4459,0.0,0.0,0.0,0.0,0.0,0.0,0.0,0.0,0.0,0.0,0.0,0.0,0.0,0.0,0.0,0.0,0.0,0.0,0.0,0.0,-0.5342,-0.5368,0.0,0.0,0.0,0.0,0.0,-0.8727,-0.8844,-0.8588,-0.7996,-0.745,-0.7155,-0.7155,-0.6966,-0.6885,-0.6885,-0.6696,-0.6588,-0.6561,-0.6009,-0.5787,-0.5755,-0.5239,-0.508,-0.5172,-0.5137,-0.5223,-0.5388,-0.5351,-0.5337,-0.5341,-2.6289,0.0,0.0,-2.6453,0.0,0.0,-2.6937,0.0,0.0,-2.7996,-2.8586,0.0,-2.9377,-2.9641,-2.9792,-2.9792,-2.9792,0.0,-2.8504,0.0,0.0,-2.4884,-2.3934,-2.2752,-2.1192,-2.0049,0.0,-1.8247,0.0,0.0,-1.6075,-1.54,0.0,0.0,0.0,-1.5547,-1.6396,-1.6999,-1.7535,-1.8008,-1.8008,0.0,0.0,-1.8008,-1.8008,-1.8008,-1.8008,-1.8008,-1.791,-1.7246,-1.6863,-1.658,-1.5918,-1.5566,-1.541,-1.541,-1.541,-1.541,-1.541,-1.541,-1.541,-1.541,-1.5234,-1.5003,-1.4788,-1.4549,-1.4172,0.0,0.0,0.0,0.0,0.0,0.0,0.0,0.0,0.0,0.0,0.0,0.0,0.0,0.0,0.0,0.0,0.0,0.0,0.0,0.0,0.0,0.0,0.0,0.0,-0.7831,-0.7955,-0.7777,-0.7214,-0.6804,-0.6588,-0.6588,-0.6285,-0.6118,-0.6118,-0.5823,-0.5691,-0.566,-0.525,-0.5058,-0.5042,-0.4794,-0.4779,-0.4911,-0.5152,-0.5243,-0.527,-0.5371,-0.5395,-0.5395,-2.6876,0.0,0.0,0.0,0.0,0.0,0.0,-2.7371,0.0,-2.7705,0.0,-2.8596,-2.8596,-2.9042,-2.9378,-2.9378,0.0,-2.9167,-2.8633,-2.8134,-2.7151,-2.5591,-2.4671,-2.3495,-2.2014,-2.1085,0.0,0.0,0.0,-1.6995,-1.6173,-1.5644,0.0,0.0,0.0,0.0,0.0,-1.7588,-1.7988,-1.8052,-1.8037,-1.8076,-1.8164,-1.8047,-1.8047,-1.8086,-1.8027,-1.8008,-1.7949,-1.7529,-1.7129,-1.6707,-1.632,-1.585,-1.5498,-1.5498,-1.5459,-1.541,-1.541,-1.541,-1.541,-1.541,-1.541,-1.5381,-1.5264,-1.5235,-1.4879,-1.3624,-1.3194,-1.2663,0.0,0.0,0.0,0.0,0.0,0.0,0.0,0.0,0.0,0.0,0.0,0.0,0.0,0.0,0.0,0.0,0.0,0.0,0.0,0.0,0.0,-0.6929,-0.7065,0.0,-0.6453,0.0,-0.6317,-0.6317,-0.5683,-0.5378,-0.5351,-0.4759,-0.4491,-0.4491,-0.4491,-0.4501,-0.4532,-0.4665,-0.4792,-0.4941,-0.5262,-0.526,-0.5143,-0.532,-0.5378,-0.5395,-2.5222,0.0,0.0,0.0,0.0,-2.5122,-2.6565,-2.5915,-2.5415,-2.5955,-2.656,-2.692,-2.692,-2.7,-2.7098,-2.7098,-2.7098,0.0,0.0,0.0,0.0,-2.4998,-2.4471,-2.3639,-2.2402,-2.1241,-2.0312,0.0,-1.8144,-1.7119,-1.657,-1.5761,0.0,0.0,0.0,0.0,-1.6736,-1.7275,0.0,-1.8461,-1.8144,-1.8437,-1.8984,-1.8281,-1.8223,-1.8451,-1.8135,-1.8008,-1.7949,-1.7529,-1.7367,-1.7197,-1.6758,-1.6309,-1.5977,-1.5977,-1.5693,-1.541,-1.541,-1.541,-1.541,-1.541,-1.541,-1.5235,-1.4569,-1.4421,-1.4172,-1.3266,-1.3312,-1.3121,-1.1899,0.0,0.0,0.0,0.0,0.0,0.0,0.0,0.0,0.0,0.0,0.0,0.0,0.0,0.0,0.0,0.0,0.0,0.0,0.0,0.0,0.0,0.0,0.0,0.0,0.0,-0.4873,-0.4873,-0.4736,-0.468,-0.468,-0.4543,-0.4491,-0.4491,-0.4491,-0.4563,-0.4682,-0.468,-0.485,-0.5066,-0.5117,-0.5233,-0.5341,-0.5209,-0.525,-0.5395,0.0,0.0,0.0,0.0,0.0,0.0,0.0,-2.448,0.0,-2.5429,-2.5842,-2.6039,-2.6039,-2.6315,-2.6524,-2.6524,-2.6524,-2.6524,-2.6524,-2.6524,-2.5975,-2.483,-2.4619,0.0,-2.2519,-2.168,-2.081,-1.9912,-1.8652,-1.7588,-1.6687,0.0,0.0,0.0,0.0,-1.6307,0.0,0.0,0.0,-1.8598,-1.8662,-1.8926,-1.9219,-1.8539,-1.8422,-1.8549,-1.812,-1.8008,-1.7978,-1.7773,-1.7568,-1.7344,-1.7139,-1.6768,-1.6406,-1.6406,-1.626,-1.6063,-1.6063,-1.5928,-1.5752,-1.5752,-1.5576,-1.5206,-1.4392,-1.4213,-1.3846,-1.2634,-1.2515,-1.2359,-1.1348,-1.0863,0.0,0.0,0.0,0.0,0.0,0.0,0.0,0.0,0.0,0.0,0.0,0.0,0.0,0.0,0.0,0.0,0.0,0.0,0.0,0.0,0.0,0.0,0.0,0.0,0.0,-0.4491,-0.4491,-0.4491,-0.4491,-0.4491,-0.4491,-0.4494,-0.4576,-0.4607,-0.4614,-0.4745,-0.4894,-0.5005,-0.5189,-0.5247,-0.5243,-0.5247,-0.533,-0.5395,0.0,-2.4145,0.0,0.0,-2.3418,0.0,-2.3728,-2.3428,-2.3594,-2.4915,-2.5066,-2.5066,-2.5066,-2.5496,-2.5766,-2.5766,-2.5766,-2.5766,-2.5766,-2.5766,-2.5389,-2.4457,-2.4414,-2.3886,-2.2646,-2.2236,-2.1416,0.0,0.0,-1.813,-1.696,0.0,0.0,0.0,0.0,0.0,0.0,0.0,-1.8705,-1.889,-1.8925,-1.9211,-1.9492,-1.8617,-1.8479,-1.8676,-1.8193,-1.8008,-1.8008,-1.8008,-1.7793,-1.7519,-1.7519,-1.7227,-1.6833,-1.6833,-1.6775,-1.6665,-1.6465,-1.6309,-1.612,-1.5638,-1.5402,-1.5007,-1.3953,-1.3687,-1.3295,-1.1834,-1.1531,-1.1344,-1.0713,-1.0593,0.0,0.0,0.0,0.0,0.0,0.0,0.0,0.0,0.0,0.0,0.0,0.0,0.0,0.0,0.0,0.0,-0.4684,-0.4691,0.0,0.0,0.0,-0.4674,-0.4672,0.0,-0.4556,0.0,-0.4556,-0.4573,-0.4539,-0.4573,-0.4586,-0.4593,-0.4687,-0.4687,-0.4655,-0.4901,-0.5013,-0.5036,-0.5303,-0.5287,-0.5196,-0.5351,-0.5395,-0.5362,0.0,0.0,0.0,0.0,0.0,0.0,0.0,-2.3159,-2.3169,-2.3327,-2.3327,-2.3327,-2.3327,-2.3367,-2.343,-2.343,-2.343,-2.343,-2.343,-2.343,-2.3387,-2.3256,-2.3266,-2.3202,-2.3042,-2.2666,-2.2012,0.0,0.0,-1.8769,-1.7871,-1.7019,0.0,0.0,0.0,0.0,0.0,-1.8015,-1.9046,-1.9691,-1.836,-1.8901,-2.0236,-1.8018,-1.8032,-1.9121,-1.8301,-1.8008,-1.8008,-1.8008,-1.7978,-1.7949,-1.7949,-1.7656,-1.7324,-1.7324,-1.7041,-1.6497,-1.5652,-1.6027,-1.6144,-1.4159,-1.4306,-1.4431,-1.2483,-1.2012,-1.1772,-1.0895,-1.0713,-1.0688,-1.0624,-1.0593,-1.0593,0.0,0.0,0.0,0.0,0.0,0.0,0.0,0.0,0.0,0.0,0.0,0.0,0.0,0.0,0.0,0.0,-0.4691,0.0,-0.4515,0.0,-0.4651,-0.4511,-0.4745,0.0,-0.4494,-0.4745,-0.4802,-0.4674,-0.4813,-0.4877,-0.4877,-0.4891,-0.4931,-0.5049,-0.5283,-0.5354,-0.5354,-0.5385,-0.5385,-0.5375,-0.5388,-0.5395,-0.5292,0.0,0.0,0.0,0.0,0.0,0.0,0.0,-2.3091,-2.3091,-2.3091,-2.3091,-2.3091,-2.3091,-2.3091,-2.3091,-2.3091,-2.3091,-2.3091,-2.3091,-2.3091,-2.3091,-2.3091,-2.3091,-2.3091,-2.3091,-2.2734,-2.2217,0.0,0.0,-1.9312,-1.7812,-1.7167,0.0,0.0,0.0,-1.6431,-1.6875,-1.7262,-1.7667,-1.7958,-1.7579,-1.7921,-1.851,-1.7295,-1.7208,-1.7649,-1.7028,-1.6694,-1.6572,-1.6572,-1.6845,-1.7173,-1.7173,-1.6649,-1.6076,-1.6076,-1.5961,-1.5735,-1.5351,-1.5323,-1.512,-1.4088,-1.3894,-1.3603,-1.215,-1.1803,-1.1555,-1.0776,-1.0593,-1.0593,-1.0593,-1.0593,-1.0593,0.0,0.0,0.0,0.0,0.0,0.0,0.0,0.0,0.0,0.0,0.0,0.0,0.0,0.0,0.0,0.0,0.0,0.0,-0.4627,0.0,-0.4704,-0.4735,-0.4857,-0.4813,-0.4631,-0.4724,-0.4701,-0.4583,-0.4644,-0.4745,-0.4887,-0.4887,-0.505,-0.5267,-0.5237,-0.5277,-0.5395,-0.5395,-0.5395,-0.5326,-0.4755,-0.4553,-0.4417,-2.312,0.0,-2.3091,0.0,-2.3091,-2.3091,-2.3091,-2.3091,-2.3091,-2.3091,-2.3091,-2.3091,-2.3091,-2.3091,-2.3091,-2.3091,-2.3091,-2.3091,-2.3091,-2.3091,-2.3091,-2.3091,-2.2765,0.0,-2.3091,-2.2129,-2.1597,-2.1539,-2.0429,0.0,-1.7674,0.0,0.0,0.0,-1.5938,-1.6121,-1.6521,-1.676,-1.6898,-1.6883,-1.6823,-1.7009,-1.722,-1.6485,-1.6427,-1.6645,-1.616,-1.5875,-1.5737,-1.5737,-1.5866,-1.6047,-1.614,-1.572,-1.5199,-1.5199,-1.5199,-1.5128,-1.4843,-1.4728,-1.4486,-1.3656,-1.335,-1.2971,-1.1806,-1.1503,-1.1288,-1.0713,-1.0593,-1.0593,-1.0593,-1.0593,-1.0593,-1.0593,0.0,0.0,0.0,0.0,0.0,0.0,-0.8381,-0.7394,-0.625,0.0,0.0,0.0,0.0,0.0,0.0,0.0,0.0,0.0,0.0,0.0,0.0,-0.5006,-0.4952,-0.4758,-0.4847,-0.4836,-0.4689,-0.4733,-0.4723,-0.4634,-0.4634,-0.4615,-0.458,-0.4452,-0.4469,-0.4619,-0.4619,-0.4619,-0.4519,-0.3849,-0.3613,-0.348,-2.3179,-2.3091,-2.3091,-2.3091,-2.3091,-2.3091,-2.3091,-2.3091,-2.3091,-2.3091,-2.3091,-2.3091,-2.3091,-2.3091,-2.3091,-2.3091,-2.3091,-2.3091,-2.3091,-2.3091,-2.3091,0.0,0.0,-2.1889,-2.3047,-2.0764,-1.9937,-2.0706,0.0,0.0,-1.7611,0.0,-1.6266,-1.5178,-1.6475,-1.6436,-1.5425,-1.6726,-1.7293,-1.7212,-1.615,-1.6355,-1.7139,-1.566,-1.5761,-1.6645,-1.616,-1.5992,-1.5992,-1.5992,-1.5388,-1.4674,-1.5097,-1.5199,-1.5199,-1.5199,-1.5199,-1.4985,-1.3991,-1.445,-1.4683,-1.2458,-1.2435,-1.2584,-1.1313,-1.0794,-1.0624,-1.0593,-1.0593,-1.0593,-1.0593,-1.0593,-1.0593,-1.0593,0.0,0.0,0.0,0.0,0.0,0.0,-0.804,-0.7101,-0.6113,0.0,0.0,0.0,0.0,0.0,0.0,0.0,0.0,-0.4697,-0.4941,0.0,-0.4891,-0.5242,-0.5238,-0.4887,-0.5245,-0.5274,-0.5096,-0.5313,-0.4882,-0.4013,-0.4013,-0.3511,-0.2744,-0.2743,-0.2743,-0.2744,-0.2744,-0.2744,-0.2744,-0.2711,-0.2711,-0.2577,-2.312,-2.3091,-2.3091,-2.3091,-2.3091,-2.3091,-2.3091,-2.3091,-2.3091,-2.3091,-2.3091,-2.3091,-2.3091,-2.3091,-2.3091,0.0,-2.3091,-2.3091,0.0,-2.235,-2.1845,-2.1845,-2.0711,-2.026,-2.0629,-1.9898,-1.962,-1.9855,0.0,0.0,0.0,-1.6002,-1.5814,-1.6084,-1.5554,-1.553,-1.5826,-1.5313,-1.5103,-1.511,-1.4741,-1.4817,-1.5054,-1.4587,-1.4628,-1.4896,-1.4755,-1.4577,-1.4351,-1.4351,-1.4024,-1.3671,-1.3817,-1.3823,-1.3823,-1.3823,-1.3703,-1.3486,-1.3156,-1.3151,-1.302,-1.2116,-1.2044,-1.2013,-1.1202,-1.0801,-1.0593,-1.0593,-1.0593,-1.0593,-1.0593,-1.0593,-1.066,-1.0854,-1.0288,0.0,0.0,0.0,0.0,0.0,0.0,-0.6556,0.0,-0.514,0.0,0.0,0.0,0.0,0.0,0.0,0.0,0.0,-0.321,0.0,-0.3265,-0.3451,-0.3451,-0.3265,-0.3356,-0.3334,-0.3115,-0.3341,-0.3255,-0.2965,-0.3088,-0.2945,-0.2711,-0.2711,-0.2711,-0.2711,-0.2711,-0.2711,-0.2611,-0.1976,-0.1742,-0.1608,-2.312,-2.3091,-2.3091,-2.3091,-2.3091,-2.3091,-2.3091,-2.3091,-2.3091,-2.3091,-2.3091,-2.3091,-2.3091,-2.3091,0.0,-2.3091,-2.3091,-2.3091,-2.3091,-2.1987,-2.1293,-2.1293,-1.9724,-1.9039,-1.9488,0.0,0.0,-1.8818,-1.8048,-1.7205,-1.6297,-1.5591,-1.5581,-1.6111,-1.5236,-1.5174,-1.564,-1.4786,-1.4355,-1.4249,-1.4249,-1.4182,-1.4088,-1.4088,-1.4088,-1.4088,-1.4088,-1.3968,-1.3808,-1.3808,-1.3694,-1.354,-1.354,-1.354,-1.3494,-1.328,-1.3025,-1.2784,-1.2784,-1.2563,-1.2258,-1.2078,-1.1986,-1.1779,-1.1263,-1.0929,-1.0787,-1.0894,-1.0827,-1.0754,-1.0754,-1.0847,-1.081,-1.0507,-0.9944,-0.9477,-0.9181,0.0,0.0,0.0,0.0,0.0,0.0,-0.5255,0.0,0.0,0.0,0.0,0.0,0.0,0.0,-0.2343,-0.2476,0.0,-0.2579,-0.2656,-0.2656,-0.2579,-0.2579,-0.2521,-0.2383,-0.2525,-0.2383,-0.206,-0.2127,-0.1977,-0.1677,-0.1677,-0.1677,-0.1677,-0.1677,-0.1677,-0.161,-0.1041,-0.0806,-0.0739,-2.3169,-2.3076,0.0,0.0,-2.312,0.0,-2.3101,-2.3091,-2.3091,-2.3091,-2.3047,-2.296,-2.296,-2.2906,-2.2862,-2.2862,0.0,0.0,0.0,-2.1756,-2.1069,-2.1069,-1.8818,-1.8087,-1.9222,-1.6976,-1.6386,-1.7552,-1.6386,-1.5784,-1.5784,-1.5784,-1.5685,-1.5424,-1.5404,-1.5244,-1.5035,-1.5015,-1.4803,-1.4549,-1.4549,-1.4376,-1.4122,-1.4142,-1.4135,-1.4122,-1.4142,-1.4148,-1.4148,-1.4148,-1.4148,-1.4148,-1.4148,-1.4135,-1.4008,-1.3434,-1.3053,-1.2844,-1.2824,-1.2596,-1.2325,-1.2305,-1.2084,-1.1832,-1.1516,-1.1229,-1.1062,-1.1267,-1.1142,-1.0989,-1.085,-1.1074,-1.0887,-0.9659,-0.9495,-0.922,-0.8258,0.0,0.0,0.0,0.0,0.0,0.0,-0.5523,-0.5167,0.0,0.0,0.0,0.0,0.0,-0.3092,-0.2352,-0.2446,-0.2511,-0.2511,-0.2511,-0.2511,-0.2511,-0.2511,-0.2511,-0.2511,-0.2511,-0.2043,-0.1207,-0.1207,-0.0739,0.0,0.0,0.0,0.0,0.0,0.0,0.0,0.0,0.0,0.0,0.0,0.0,-2.2432,-2.3018,-2.3418,-2.3525,-2.3149,-2.3091,-2.3091,-2.3091,-2.2306,-2.1712,-2.1712,-2.0899,-2.0359,-2.0359,-2.1168,-2.1712,-2.1712,-1.9716,-1.8542,-1.8542,-1.7077,-1.6379,-1.6655,-1.6103,-1.5967,-1.6244,-1.5967,-1.5784,-1.5784,-1.5784,-1.5792,-1.5718,-1.5491,-1.5357,-1.5284,-1.5102,-1.4968,-1.4863,-1.4863,-1.4683,-1.4442,-1.4669,-1.4616,-1.4449,-1.472,-1.48,-1.48,-1.48,-1.48,-1.48,-1.48,-1.4603,-1.4349,-1.3981,-1.3667,-1.338,-1.316,-1.2918,-1.2623,-1.2358,-1.2084,-1.1886,-1.1819,-1.1536,-1.1098,-1.0388,-1.081,-1.0834,-0.93,-0.9696,-0.9991,-0.9122,-0.8356,-0.7771,-0.7553,-0.683,0.0,0.0,-0.5727,-0.5632,-0.5596,-0.5436,-0.5006,0.0,0.0,0.0,0.0,-0.1603,-0.1356,-0.0599,-0.0637,-0.0639,-0.0639,-0.0639,-0.0639,-0.0639,-0.0639,-0.0639,-0.0639,-0.0639,-0.0505,-0.0303,-0.0303,-0.0202,0.0,0.0,0.0,0.0,0.0,0.0,0.0,0.0,0.0,0.0,-2.1347,-2.1368,-2.1549,-2.2449,-2.2761,-2.2826,-2.2645,-2.2438,-2.2076,-2.1543,-2.0899,-2.0486,-2.0486,-1.9898,-1.9497,-1.9497,-2.0079,-2.0486,-2.0486,-1.8726,-1.7692,-1.7692,-1.648,-1.5784,-1.5784,-1.5784,-1.5784,-1.5784,-1.5784,-1.5784,-1.5784,-1.5784,-1.5784,-1.5771,-1.5665,-1.5591,-1.5585,-1.5424,-1.5284,-1.5164,-1.5164,-1.4983,-1.4743,-1.4948,-1.4908,-1.4743,-1.4948,-1.5008,-1.5008,-1.5008,-1.5008,-1.5008,-1.5008,-1.4901,-1.4663,-1.4369,-1.3939,-1.3567,-1.3413,-1.3086,-1.2717,-1.2378,-1.2184,-1.1956,-1.1507,-1.1148,-1.0696,-0.981,-0.9952,-0.9866,-0.8796,-0.9139,-0.9295,-0.8281,-0.7666,-0.7146,-0.6694,-0.6032,0.0,-0.5511,-0.5436,-0.5423,-0.5494,-0.5436,-0.4992,-0.3959,0.0,0.0,-0.1278,-0.0821,-0.0398,0.0,0.0,0.0,0.0,0.0,0.0,0.0,0.0,0.0,0.0,0.0,0.0,0.0,0.0,0.0,0.0,0.0,0.0,0.0,0.0,0.0,0.0,0.0,0.0,0.0,-1.9619,-1.9962,-2.0528,-2.1534,-2.1655,-2.16,-2.1623,-2.1292,-2.0666,-1.9625,-1.936,-1.9222,-1.9222,-1.9039,-1.8948,-1.8948,-1.8948,-1.9039,-1.9222,-1.8087,-1.7412,-1.7412,-1.6386,-1.5784,-1.5784,-1.5784,-1.5784,-1.5784,-1.5784,-1.5784,-1.5784,-1.5784,-1.5784,-1.5784,-1.5784,-1.5784,-1.5784,-1.5784,-1.5691,-1.5464,-1.5464,-1.5291,-1.5075,-1.5122,-1.5115,-1.5082,-1.5122,-1.5142,-1.5142,-1.5142,-1.5142,-1.5142,-1.5142,-1.5109,-1.5015,-1.4676,-1.4159,-1.3713,-1.3626,-1.3206,-1.2685,-1.2239,-1.2109,-1.1805,-1.0789,-1.0398,-1.0014,-0.9218,-0.8948,-0.8773,-0.8479,-0.8786,-0.867,-0.7372,-0.7147,-0.6849,-0.5914,0.0,-0.5423,-0.537,-0.5268,-0.5242,-0.5333,-0.5131,-0.4652,-0.3849,-0.2978,-0.2076,0.0,-0.0404,0.0,0.0,0.0,0.0,0.0,0.0,0.0,0.0,0.0,0.0,0.0,0.0,0.0,0.0,0.0,0.0,0.0,0.0,0.0,0.0,0.0,0.0,0.0,0.0,0.0,0.0,-2.0086,-1.9775,-1.9558,-2.0149,-2.0518,-2.0565,-2.0,-1.9849,-1.9716,-1.9542,-1.8588,-1.7963,-1.7963,-1.703,-1.6379,-1.6379,-1.6379,-1.6842,-1.7917,-1.6803,-1.6109,-1.6109,-1.5927,-1.5784,-1.5784,-1.5784,-1.5784,-1.5784,-1.5784,-1.5784,-1.5784,-1.5784,-1.5784,-1.5784,-1.5784,-1.5784,-1.5784,-1.5784,-1.5758,-1.5758,-1.5758,-1.5585,-1.5357,-1.5605,-1.5545,-1.5357,-1.5605,-1.5698,-1.5698,-1.5698,-1.5698,-1.5698,-1.5698,-1.5524,-1.5271,-1.4977,-1.4656,-1.4233,-1.374,-1.3206,-1.2579,-1.1609,-1.1187,-1.0789,-0.9744,-0.9497,-0.918,-0.8228,-0.8666,-0.8718,-0.7019,-0.7421,-0.7698,-0.6643,-0.6468,-0.6283,-0.5873,0.0,-0.5364,-0.4366,-0.4228,-0.4225,-0.4241,-0.3556,-0.3045,-0.2911,-0.2043,-0.1141,-0.0236,-0.0067,0.0,0.0,0.0,0.0,0.0,0.0,0.0,0.0,0.0,0.0,0.0,0.0,0.0,0.0,0.0,0.0,0.0,0.0,0.0,0.0,0.0,0.0,0.0,0.0,0.0,0.0,-1.8341,-1.8362,-1.86,-1.9401,-1.9049,-1.8837,-1.9268,-1.9113,-1.871,-1.8097,-1.739,-1.697,-1.697,-1.6252,-1.5784,-1.5784,-1.5784,-1.6062,-1.6622,-1.6109,-1.5784,-1.5784,-1.5784,-1.5784,-1.5784,-1.5784,-1.5784,-1.5784,-1.5784,-1.5784,-1.5784,-1.5784,-1.5784,-1.5784,-1.5784,-1.5784,-1.5784,-1.5784,-1.5784,-1.5784,-1.5784,-1.5752,-1.5645,-1.5731,-1.5698,-1.5645,-1.5785,-1.5784,-1.5784,-1.5784,-1.5784,-1.5683,-1.4997,-1.4665,-1.4515,-1.4241,-1.4211,-1.4061,-1.2991,-1.2519,-1.2003,-1.071,-1.025,-0.9842,-0.8845,-0.8617,-0.8311,-0.7305,-0.7537,-0.7605,-0.6696,-0.6821,-0.6956,-0.6491,-0.624,0.0,0.0,-0.5343,-0.477,-0.4326,-0.3703,-0.3342,-0.3392,-0.2965,-0.2504,-0.1988,-0.1542,-0.0921,-0.0034,0.0,0.0,0.0,0.0,0.0,0.0,0.0,0.0,0.0,0.0,0.0,0.0,0.0,0.0,0.0,0.0,0.0,0.0,0.0,0.0,0.0,0.0,0.0,0.0,0.0,0.0,0.0,-1.6954,-1.7275,-1.7848,-1.86,-1.7782,-1.7384,-1.8434,-1.8323,-1.7725,-1.68,-1.6513,-1.6373,-1.6373,-1.6112,-1.5932,-1.5932,-1.5824,-1.5784,-1.5784,-1.5784,-1.5784,-1.5784,-1.5784,-1.5784,-1.5784,-1.5784,-1.5784,-1.5784,-1.5784,-1.5784,-1.5784,-1.5784,-1.5784,-1.5784,-1.5784,-1.5784,-1.5784,-1.5784,-1.5784,-1.5784,-1.5784,-1.5784,-1.5784,-1.5784,-1.5784,-1.5784,-1.5784,-1.5784,-1.573,-1.5439,-1.5343,-1.5146,-1.383,-1.344,-1.3394,-1.3044,-1.3126,-1.3076,-1.1895,-1.153,-1.1192,-0.9823,-0.9335,-0.8944,-0.7913,-0.7717,-0.7476,-0.6724,-0.6617,-0.6702,-0.6702,-0.6603,-0.6555,-0.6518,0.0,0.0,0.0,-0.4633,-0.3864,-0.3762,-0.2936,-0.2415,-0.2502,-0.2241,-0.1872,-0.1342,-0.1123,-0.0694,-0.0034,0.0,0.0,0.0,0.0,0.0,0.0,0.0,0.0,0.0,0.0,0.0,0.0,0.0,0.0,0.0,0.0,0.0,0.0,0.0,0.0,0.0,0.0,0.0,0.0,0.0,0.0,0.0,-1.7522,-1.7555,-1.7541,-1.74,-1.7244,-1.7099,-1.6924,-1.6864,-1.6807,-1.67,-1.6687,-1.6673,-1.6673,-1.6413,-1.6239,-1.6239,-1.5985,-1.5784,-1.5784,-1.5784,-1.5784,-1.5784,-1.5784,-1.5784,-1.5784,-1.5784,-1.5784,-1.5784,-1.5784,-1.5784,-1.5784,-1.5784,-1.5784,-1.5784,-1.5784,-1.5784,-1.5784,-1.5784,-1.5784,-1.5784,-1.5784,-1.5784,-1.5784,-1.5784,-1.5784,-1.5784,-1.5784,-1.5784,-1.5635,-1.4459,-1.4022,-1.383,-1.2479,-1.2042,-1.1996,-1.1715,-1.137,-1.1006,-1.0776,-1.0524,-1.0068,-0.905,-0.8529,-0.8024,-0.7008,-0.6805,-0.6764,-0.6685,-0.6695,-0.6702,-0.6702,-0.6692,-0.6637,-0.6535,0.0,0.0,-0.4658,-0.3686,-0.2649,-0.1644,-0.1455,-0.1419,-0.1421,-0.0692,-0.0509,-0.1233,-0.0569,-0.007,0.0,0.0,0.0,0.0,0.0,0.0,0.0,0.0,0.0,0.0,0.0,0.0,0.0,0.0,0.0,0.0,0.0,0.0,0.0,0.0,0.0,0.0,0.0,0.0,0.0,0.0,0.0,0.0,-1.7582,-1.7582,-1.7549,-1.7494,-1.7467,-1.7434,-1.7268,-1.7248,-1.7248,-1.7248,-1.7088,-1.7032,-1.7032,-1.672,-1.654,-1.654,-1.6433,-1.6373,-1.6373,-1.6373,-1.6206,-1.5798,-1.5784,-1.5784,-1.5784,-1.5784,-1.5784,-1.5784,-1.5784,-1.5784,-1.5784,-1.5784,-1.5784,-1.5784,-1.5784,-1.5784,-1.5784,-1.5784,-1.5784,-1.5784,-1.5784,-1.5784,-1.5784,-1.5784,-1.5784,-1.5683,-1.4902,-1.4609,-1.4411,-1.3108,-1.2668,-1.2431,-1.1116,-1.073,-1.0542,-0.9525,-0.966,-0.9945,-0.8914,-0.9012,-0.9125,-0.8005,-0.7539,-0.7299,-0.6925,-0.6844,-0.6844,-0.6844,-0.6912,-0.693,-0.693,-0.6824,-0.6681,-0.6624,0.0,-0.4721,-0.4635,-0.3163,-0.1925,-0.1526,-0.0915,-0.0496,-0.0496,-0.0191,-0.0152,-0.0485,-0.0182,0.0,0.0,0.0,0.0,0.0,0.0,0.0,0.0,0.0,0.0,0.0,0.0,0.0,0.0,0.0,0.0,0.0,0.0,0.0,0.0,0.0,0.0,0.0,0.0,0.0,0.0,0.0,0.0,0.0,-1.7582,-1.7582,-1.7582,-1.7582,-1.7582,-1.7582,-1.7582,-1.7582,-1.7582,-1.7582,-1.746,-1.734,-1.734,-1.7072,-1.6847,-1.6847,-1.676,-1.6707,-1.6707,-1.6707,-1.6486,-1.5992,-1.6059,-1.5971,-1.5784,-1.5919,-1.5925,-1.5784,-1.5784,-1.5784,-1.5784,-1.5784,-1.5784,-1.5784,-1.5784,-1.5784,-1.5784,-1.5784,-1.5784,-1.5784,-1.5784,-1.5784,-1.5778,-1.5343,-1.5194,-1.5045,-1.3734,-1.3247,-1.3054,-1.175,-1.1317,-1.1072,-0.9801,-0.9361,-0.919,-0.8157,-0.8471,-0.8953,-0.784,-0.7987,-0.8284,-0.734,-0.7024,-0.6953,-0.6953,-0.6953,-0.6953,-0.6953,-0.7028,-0.7095,-0.7095,-0.6675,-0.6289,-0.6201,-0.4862,-0.3781,-0.3715,-0.2192,-0.1097,-0.1097,-0.0432,0.0,0.0,0.0,0.0,0.0,0.0,0.0,0.0,0.0,0.0,0.0,0.0,0.0,0.0,0.0,0.0,0.0,0.0,0.0,0.0,0.0,0.0,0.0,0.0,0.0,0.0,0.0,0.0,0.0,0.0,0.0,0.0,0.0,0.0,0.0,-1.7582,-1.7582,-1.7582,-1.7582,-1.7582,-1.7582,-1.7582,-1.7582,-1.7582,-1.7582,-1.7582,-1.7582,-1.7582,-1.738,-1.7206,-1.7206,-1.6881,-1.6714,-1.6714,-1.6714,-1.6587,-1.6342,-1.6553,-1.6433,-1.5798,-1.6119,-1.6126,-1.5784,-1.5784,-1.5784,-1.5784,-1.5784,-1.5784,-1.5784,-1.5784,-1.5784,-1.5784,-1.5784,-1.5778,-1.5778,-1.5778,-1.5784,-1.5635,-1.4364,-1.3872,-1.3734,-1.2382,-1.1896,-1.1707,-1.0386,-0.9998,-0.9752,-0.8432,-0.7988,-0.7988,-0.7988,-0.7884,-0.7814,-0.7811,-0.7709,-0.7526,-0.7176,-0.7098,-0.7098,-0.7095,-0.7098,-0.7098,-0.7095,-0.7095,-0.7095,-0.7095,-0.6141,-0.5323,-0.5118,-0.3243,-0.1768,-0.1612,-0.0667,0.0,0.0,0.0,0.0,0.0,0.0,0.0,0.0,0.0,0.0,0.0,0.0,0.0,0.0,0.0,0.0,0.0,0.0,0.0,0.0,0.0,0.0,0.0,0.0,0.0,0.0,0.0,0.0,0.0,0.0,0.0,0.0,0.0,0.0,0.0,0.0,0.0,0.0,-1.7582,-1.7582,-1.7582,-1.7582,-1.7582,-1.7582,-1.7582,-1.7582,-1.7582,-1.7582,-1.7582,-1.7582,-1.7582,-1.7508,-1.7507,-1.7507,-1.7368,-1.7321,-1.7321,-1.7321,-1.7188,-1.6951,-1.6767,-1.6526,-1.6146,-1.6226,-1.6126,-1.5784,-1.5784,-1.5784,-1.5784,-1.5784,-1.5784,-1.5784,-1.5784,-1.5784,-1.5784,-1.5784,-1.5289,-1.4459,-1.4459,-1.3884,-1.3011,-1.2624,-1.2479,-1.2334,-1.1019,-1.0583,-1.0337,-0.9019,-0.8577,-0.8531,-0.8137,-0.7988,-0.7988,-0.7988,-0.7958,-0.7897,-0.7841,-0.778,-0.7675,-0.7377,-0.7383,-0.7404,-0.7146,-0.7224,-0.7272,-0.7119,-0.7095,-0.6874,-0.6071,-0.5526,-0.4894,-0.399,-0.2632,-0.165,-0.1612,-0.0667,0.0,0.0,0.0,0.0,0.0,0.0,0.0,0.0,0.0,0.0,0.0,0.0,0.0,0.0,0.0,0.0,0.0,0.0,0.0,0.0,0.0,0.0,0.0,0.0,0.0,0.0,0.0,0.0,0.0,0.0,0.0,0.0,0.0,0.0,0.0,0.0,0.0,0.0,-1.7582,-1.7582,-1.7582,-1.7582,-1.7582,-1.7582,-1.7582,-1.7582,-1.7582,-1.7582,-1.7582,-1.7582,-1.7582,-1.7582,-1.7582,-1.7582,-1.7582,-1.7582,-1.7582,-1.7582,-1.7554,-1.738,-1.662,-1.6291,-1.6453,-1.661,-1.642,-1.6005,-1.5457,-1.5153,-1.5045,-1.4513,-1.4274,-1.4274,-1.4274,-1.4274,-1.4274,-1.4274,-1.3836,-1.3102,-1.3102,-1.2619,-1.1848,-1.1365,-1.117,-1.0974,-0.9657,-0.9217,-0.9069,-0.8283,-0.7988,-0.7988,-0.7988,-0.7988,-0.7988,-0.7988,-0.7988,-0.7971,-0.7877,-0.7899,-0.7845,-0.7604,-0.7573,-0.755,-0.7363,-0.7346,-0.7346,-0.7251,-0.678,-0.6204,-0.5536,-0.452,-0.3574,-0.2807,-0.174,-0.097,-0.0957,-0.0395,0.0,0.0,0.0,0.0,0.0,0.0,0.0,0.0,0.0,0.0,0.0,0.0,0.0,0.0,0.0,0.0,0.0,0.0,0.0,0.0,0.0,0.0,0.0,0.0,0.0,0.0,0.0,0.0,0.0,0.0,0.0,0.0,0.0,0.0,0.0,0.0,0.0,0.0079,-1.7582,-1.7582,-1.7582,-1.7582,-1.7582,-1.7582,-1.7582,-1.7582,-1.7582,-1.7582,-1.7582,-1.7582,-1.7582,-1.7582,-1.7582,-1.7582,-1.7582,-1.7582,-1.7582,-1.747,-1.7417,-1.7417,-1.6015,-1.5573,-1.6384,-1.6657,-1.6506,-1.5957,-1.4721,-1.399,-1.3715,-1.2484,-1.1896,-1.1896,-1.1896,-1.1896,-1.1896,-1.1922,-1.1878,-1.1731,-1.1751,-1.1712,-1.1467,-1.0274,-0.983,-0.9677,-0.8435,-0.7988,-0.7988,-0.7988,-0.7988,-0.7988,-0.7988,-0.7988,-0.7988,-0.7988,-0.7988,-0.7988,-0.7988,-0.7988,-0.7958,-0.7865,-0.7736,-0.7631,-0.7604,-0.7502,-0.74,-0.7285,-0.6262,-0.5327,-0.5137,-0.3299,-0.1781,-0.1648,-0.0714,0.0,0.0,0.0,0.0,0.0,0.0,0.0,0.0,0.0,0.0,0.0,0.0,0.0,0.0,0.0,0.0,0.0,0.0,0.0,0.0,0.0,0.0,0.0,0.0,0.0,0.0,0.0,0.0,0.0,0.0,0.0,0.0,0.0,0.0,0.0,0.0,0.0,0.0,0.0118,0.0157,0.0314,-1.7582,-1.7582,-1.7582,-1.7582,-1.7582,-1.7582,-1.7582,-1.7582,-1.7582,-1.7582,-1.7582,-1.7582,-1.7582,-1.7582,-1.7582,-1.7582,-1.7582,-1.7582,-1.7582,-1.6499,-1.5902,-1.5902,-1.4502,-1.3864,-1.4029,-1.3841,-1.3585,-1.325,-1.2857,-1.2642,-1.254,-1.2124,-1.1896,-1.1896,-1.1896,-1.1896,-1.1912,-1.2078,-1.1551,-1.0565,-1.0667,-1.0121,-0.919,-0.8816,-0.8671,-0.8606,-0.8182,-0.7988,-0.7988,-0.7988,-0.7988,-0.7988,-0.7988,-0.7988,-0.7988,-0.7988,-0.7988,-0.7988,-0.7988,-0.7988,-0.7982,-0.7948,-0.7917,-0.7833,-0.7651,-0.7658,-0.7364,-0.6216,-0.574,-0.4965,-0.2959,-0.2139,-0.1504,-0.0523,-0.0173,0.0,0.0,0.0,0.0,0.0,0.0,0.0,0.0,0.0,0.0,0.0,0.0,0.0,0.0,0.0,0.0,0.0,0.0,0.0,0.0,0.0,0.0,0.0,0.0,0.0,0.0,0.0,0.0,0.0,0.0,0.0,0.0,0.0,0.0,0.0,0.0,0.0,0.0118,0.0941,0.1254,0.141,-1.7582,-1.7582,-1.7582,-1.7582,-1.7582,-1.7582,-1.7582,-1.7582,-1.7582,-1.7582,-1.7582,-1.7582,-1.7582,-1.7582,-1.7582,-1.7582,-1.6988,-1.6552,-1.6552,-1.5204,-1.4395,-1.4395,-1.2994,-1.224,-1.224,-1.1387,-1.1505,-1.2603,-1.1872,-1.141,-1.1207,-1.0425,-1.0094,-1.0183,-1.0183,-1.0229,-1.0264,-1.0412,-1.0045,-0.9389,-0.948,-0.91,-0.8472,-0.8397,-0.837,-0.835,-0.8204,-0.8102,-0.7988,-0.7988,-0.7988,-0.7988,-0.7988,-0.7988,-0.7988,-0.7988,-0.7988,-0.7988,-0.7988,-0.7988,-0.7839,-0.7185,-0.7033,-0.7,-0.6863,-0.6834,-0.6455,-0.5045,-0.4251,-0.34,-0.2048,-0.1308,-0.0715,-0.0089,0.0,0.0,0.0,0.0,0.0,0.0,0.0,0.0,0.0,0.0,0.0,0.0,0.0,0.0,0.0,0.0,0.0,0.0,0.0,0.0,0.0,0.0,0.0,0.0,0.0,0.0,0.0,0.0,0.0,0.0,0.0,0.0,0.0,0.0,0.0,0.0,0.0,0.0,0.0118,0.1215,0.2232,0.3168,-1.7582,-1.7582,-1.7582,-1.7582,-1.7582,-1.7582,-1.7582,-1.7582,-1.7582,-1.7582,-1.7582,-1.7582,-1.7582,-1.7364,-1.7147,-1.6876,-1.5743,-1.5037,-1.5037,-1.3696,-1.294,-1.294,-1.1483,-1.0726,-1.0726,-0.9537,-0.9956,-1.2143,-1.0945,-1.0203,-0.9898,-0.8682,-0.8184,-0.8357,-0.8357,-0.8374,-0.8482,-0.8509,-0.852,-0.8523,-0.855,-0.856,-0.8557,-0.853,-0.852,-0.8503,-0.836,-0.8208,-0.8029,-0.8029,-0.8012,-0.7988,-0.7988,-0.7988,-0.7988,-0.7988,-0.7988,-0.7988,-0.7988,-0.7839,-0.7385,-0.6279,-0.5827,-0.5575,-0.5377,-0.5407,-0.5099,-0.3765,-0.2616,-0.1762,-0.1525,-0.0682,0.0,0.0,0.0,0.0,0.0,0.0,0.0,0.0,0.0,0.0,0.0,0.0,0.0,0.0,0.0,0.0,0.0,0.0,0.0,0.0,0.0,0.0,0.0,0.0,0.0,0.0,0.0,0.0,0.0,0.0,0.0,0.0,0.0,0.0,0.0,0.0,0.0,0.0,0.0,0.0,0.0118,0.1215,0.2817,0.4414,-1.7582,-1.7582,-1.7582,-1.7582,-1.7582,-1.7582,-1.7582,-1.7582,-1.7582,-1.7582,-1.7582,-1.7582,-1.7582,-1.6446,-1.5204,-1.3965,-1.3696,-1.3588,-1.3588,-1.2186,-1.1378,-1.1378,-0.997,-0.921,-0.921,-0.8992,-0.9092,-0.9449,-0.9129,-0.8933,-0.8909,-0.8598,-0.8431,-0.8455,-0.8455,-0.8465,-0.8489,-0.8621,-0.8679,-0.8693,-0.8821,-0.8821,-0.8807,-0.873,-0.8679,-0.8659,-0.8509,-0.836,-0.8238,-0.8238,-0.815,-0.7988,-0.7988,-0.7988,-0.7988,-0.7988,-0.7988,-0.7988,-0.7988,-0.7132,-0.6232,-0.6029,-0.5122,-0.3967,-0.2815,-0.341,-0.3884,-0.2501,-0.2116,-0.1603,-0.0464,-0.0091,0.0,0.0,0.0,0.0,0.0,0.0,0.0,0.0,0.0,0.0,0.0,0.0,0.0,0.0,0.0,0.0,0.0,0.0,0.0,0.0,0.0,0.0,0.0,0.0,0.0,0.0,0.0,0.0,0.0,0.0,0.0,0.0,0.0,0.0,0.0,0.0,0.0,0.0,0.0,0.0,0.0118,0.1215,0.2347,0.3318,-1.7582,-1.7582,-1.7582,-1.7582,-1.7582,-1.7582,-1.7582,-1.7582,-1.7582,-1.7582,-1.7582,-1.7312,-1.6446,-1.5097,-1.3965,-1.3372,-1.2566,-1.2082,-1.2082,-1.0672,-0.9864,-0.9864,-0.9265,-0.8885,-0.8885,-0.8885,-0.8885,-0.8885,-0.8784,-0.871,-0.8706,-0.8554,-0.8526,-0.8611,-0.8611,-0.8659,-0.8743,-0.8808,-0.8838,-0.8845,-0.8858,-0.8885,-0.8875,-0.8807,-0.8838,-0.8818,-0.8665,-0.8516,-0.8387,-0.8387,-0.8292,-0.817,-0.817,-0.8109,-0.7839,-0.7083,-0.6883,-0.6731,-0.5974,-0.532,-0.472,-0.3969,-0.3317,-0.2514,-0.1209,-0.136,-0.1607,-0.0997,-0.0883,-0.0724,-0.0096,0.0,0.0,0.0,0.0,0.0,0.0,0.0,0.0,0.0,0.0,0.0,0.0,0.0,0.0,0.0,0.0,0.0,0.0,0.0,0.0,0.0,0.0,0.0,0.0,0.0,0.0,0.0,0.0,0.0,0.0,0.0,0.0,0.0,0.0,0.0,0.0,0.0,0.0,0.0,0.0,0.0353,0.0941,0.1411,0.2231,0.3085]},{"header":{"parameterUnit":"m.s-1","parameterCategory":1,"la1":30.6,"la2":28.766,"lo1":-90.7593,"lo2":-88.6598,"dy":0.0162,"dx":0.0183,"nx":116,"ny":114,"refTime":"2024-05-20T12:00:00:Z","depth":0,"parameterNumber":3,"parameterNumberName":"V-component_of_WINDS"},"data":[0.0,0.0,0.0,0.0,0.0,0.0,0.0,0.0,0.0,0.0,0.0,0.0,0.0,0.0,0.0,0.0,0.0,0.0,0.0,0.0,0.0,0.0,0.0,0.0,0.0,0.0,0.0,0.0,0.0,0.0,0.0,0.0,0.0,0.0,0.0,0.0,0.0,0.0,0.0,0.0,0.0,0.0,0.0,0.0,0.0,0.0,0.0,0.0,0.0,0.0,0.0,0.0,0.0,0.0,0.0,0.0,0.0,0.0,0.0,0.0,0.0,0.0,0.0,0.0,0.0,0.0,0.0,0.0,0.0,0.0,0.0,0.0,0.0,0.0,0.0,0.0,0.0,0.0,0.0,0.0,0.0,0.0,0.0,0.0,0.0,0.0,0.0,0.0,0.0,0.0,0.0,0.0,0.0,0.0,0.0,0.0,0.0,0.0,0.0,0.0,0.0,0.0,0.0,0.0,0.0,0.0,0.0,0.0,0.0,0.0,0.0,0.0,0.0,0.0,0.0,0.0,0.0,0.0,0.0,0.0,0.0,0.0,0.0,0.0,0.0,0.0,0.0,0.0,0.0,0.0,0.0,0.0,0.0,0.0,0.0,0.0,0.0,0.0,0.0,0.0,0.0,0.0,0.0,0.0,0.0,0.0,0.0,0.0,0.0,0.0,0.0,0.0,0.0,0.0,0.0,0.0,0.0,0.0,0.0,0.0,0.0,0.0,0.0,0.0,0.0,0.0,0.0,0.0,0.0,0.0,0.0,0.0,0.0,0.0,0.0,0.0,0.0,0.0,0.0,0.0,0.0,0.0,0.0,0.0,0.0,0.0,0.0,0.0,0.0,0.0,0.0,0.0,0.0,0.0,0.0,0.0,0.0,0.0,0.0,0.0,0.0,0.0,0.0,0.0,0.0,0.0,0.0,0.0,0.0,0.0,0.0,0.0,0.0,0.0,0.0,0.0,0.0,0.0,0.0,0.0,0.0,0.0,0.0,0.0,0.0,0.0,0.0,0.0,0.0,0.0,0.0,0.0,0.0,0.0,0.0,0.0,0.0,0.0,0.0,0.0,0.0,0.0,0.0,0.0,0.0,0.0,0.0,0.0,0.0,0.0,0.0,0.0,0.0,0.0,0.0,0.0,0.0,0.0,0.0,0.0,0.0,0.0,0.0,0.0,0.0,0.0,0.0,0.0,0.0,0.0,0.0,0.0,0.0,0.0,0.0,0.0,0.0,0.0,0.0,0.0,0.0,0.0,0.0,0.0,0.0,0.0,0.0,0.0,0.0,0.0,0.0,0.0,0.0,0.0,0.0,0.0,0.0,0.0,0.0,0.0,0.0,0.0,0.0,0.0,0.0,0.0,0.0,0.0,0.0,0.0,0.0,0.0,0.0,0.0,0.0,0.0,0.0,0.0,0.0,0.0,0.0,0.0,0.0,0.0,0.0,0.0,0.0,0.0,0.0,0.0,0.0,0.0,0.0,0.0,0.0,0.0,0.0,0.0,0.0,0.0,0.0,0.0,0.0,0.0,0.0,0.0,0.0,0.0,0.0,0.0,0.0,0.0,0.0,0.0,0.0,0.0,0.0,0.0,0.0,0.0,0.0,0.0,0.0,0.0,0.0,0.0,0.0,0.0,0.0,0.0,0.0,0.0,0.0,0.0,0.0,0.0,0.0,0.0,0.0,0.0,0.0,0.0,0.0,0.0,0.0,0.0,0.0,0.0,0.0,0.0,0.0,0.0,0.0,0.0,0.0,0.0,0.0,0.0,0.0,0.0,0.0,0.0,0.0,0.0,0.0,0.0,0.0,0.0,0.0,0.0,0.0,0.0,0.0,0.0,0.0,0.0,0.0,0.0,0.0,0.0,0.0,0.0,0.0,0.0,0.0,0.0,0.0,0.0,0.0,0.0,0.0,0.0,0.0,0.0,0.0,0.0,0.0,0.0,0.0,0.0,0.0,0.0,0.0,0.0,0.0,0.0,0.0,0.0,0.0,0.0,0.0,0.0,0.0,0.0,0.0,0.0,0.0,0.0,0.0,0.0,0.0,0.0,0.0,0.0,0.0,0.0,0.0,0.0,0.0,0.0,0.0,0.0,0.0,0.0,0.0,0.0,0.0,0.0,0.0,0.0,0.0,0.0,0.0,0.0,0.0,0.0,0.0,0.0,0.0,0.0,0.0,0.0,0.0,0.0,0.0,0.0,0.0,0.0,0.0,0.0,0.0,0.0,0.0,0.0,0.0,0.0,0.0,0.0,0.0,0.0,0.0,0.0,0.0,0.0,0.0,0.0,0.0,0.0,0.0,0.0,0.0,0.0,0.0,0.0,0.0,0.0,0.0,0.0,0.0,0.0,0.0,0.0,0.0,0.0,0.0,0.0,0.0,0.0,0.0,0.0,0.0,0.0,0.0,0.0,0.0,0.0,0.0,0.0,0.0,0.0,0.0,0.0,0.0,0.0,0.0,0.0,0.0,0.0,0.0,0.0,0.0,0.0,0.0,0.0,0.0,0.0,0.0,0.0,0.0,0.0,0.0,0.0,0.0,0.0,0.0,0.0,0.0,0.0,0.0,0.0,0.0,0.0,0.0,0.0,0.0,0.0,0.0,0.0,0.0,0.0,0.0,0.0,0.0,0.0,0.0,0.0,0.0,0.0,0.0,0.0,0.0,0.0,0.0,0.0,0.0,0.0,0.0,0.0,0.0,0.0,0.0,0.0,0.0,0.0,0.0,0.0,0.0,0.0,0.0,0.0,0.0,0.0,0.0,0.0,0.0,0.0,0.0,0.0,0.0,0.0,0.0,0.0,0.0,0.0,0.0,0.0,0.0,0.0,0.0,0.0,0.0,0.0,0.0,0.0,0.0,0.0,0.0,0.0,0.0,0.0,0.0,0.0,0.0,0.0,0.0,0.0,0.0,0.0,0.0,0.0,0.0,0.0,0.0,0.0,0.0,0.0,0.0,0.0,0.0,0.0,0.0,0.0,0.0,0.0,0.0,0.0,0.0,0.0,0.0,0.0,0.0,0.0,0.0,0.0,0.0,0.0,0.0,0.0,0.0,0.0,0.0,0.0,0.0,0.0,0.0,0.0,0.0,0.0,0.0,0.0,0.0,0.0,0.0,0.0,0.0,0.0,0.0,0.0,0.0,0.0,0.0,0.0,0.0,0.0,0.0,0.0,0.0,0.0,0.0,0.0,0.0,0.0,0.0,0.0,0.0,0.0,0.0,0.0,0.0,0.0,0.0,0.0,0.0,0.0,0.0,0.0,0.0,0.0,0.0,0.0,0.0,0.0,0.0,0.0,0.0,0.0,0.0,0.0,0.0,0.0,0.0,0.0,0.0,0.0,0.0,0.0,0.0,0.0,0.0,0.0,0.0,0.0,0.0,0.0,0.0,0.0,0.0,0.0,0.0,0.0,0.0,0.0,0.0,0.0,0.0,0.0,0.0,0.0,0.0,0.0,0.0,0.0,0.0,0.0,0.0,0.0,0.0,0.0,0.0,0.0,0.0,0.0,0.0,0.0,0.0,0.0,0.0,0.0,0.0,0.0,0.0,0.0,0.0,0.0,0.0,0.0,0.0,0.0,0.0,0.0,0.0,0.0,0.0,0.0,0.0,0.0,0.0,0.0,0.0,0.0,0.0,0.0,0.0,0.0,0.0,0.0,0.0,0.0,0.0,0.0,0.0,0.0,0.0,0.0,0.0,0.0,0.0,0.0,0.0,0.0,0.0,0.0,0.0,0.0,0.0,0.0,0.0,0.0,0.0,0.0,0.0,0.0,0.0,0.0,0.0,0.0,0.0,0.0,0.0,0.0,0.0,0.0,0.0,0.0,0.0,0.0,0.0,0.0,0.0,0.0,0.0,0.0,0.0,0.0,0.0,0.0,0.0,0.0,0.0,0.0,0.0,0.0,0.0,0.0,0.0,0.0,0.0,0.0,0.0,0.0,0.0,0.0,0.0,0.0,0.0,0.0,0.0,0.0,0.0,0.0,0.0,0.0,0.0,0.0,0.0,0.0,0.0,0.0,0.0,0.0,0.0,0.0,0.0,0.0,0.0,0.0,0.0,0.0,0.0,0.0,0.0,0.0,0.0,0.0,0.0,0.0,0.0,0.0,0.0,0.0,0.0,0.0,0.0,0.0,0.0,0.0,0.0,0.0,0.0,0.0,0.0,0.0,0.0,0.0,0.0,0.0,0.0,0.0,0.0,0.0,0.0,0.0,0.0,0.0,0.0,0.0,0.0,0.0,0.0,0.0,0.0,0.0,0.0,0.0,0.0,0.0,0.0,0.0,0.0,0.0,0.0,0.0,0.0,0.0,0.0,0.0,0.0,0.0,0.0,0.0,0.0,0.0,0.0,0.0,0.0,0.0,0.0,0.0,0.0,0.0,0.0,0.0,0.0,0.0,0.0,0.0,0.0,0.0,0.0,0.0,0.0,0.0,0.0,0.0,0.0,0.0,0.0,0.0,0.0,0.0,0.0,0.0,0.0,0.0,0.0,0.0,0.0,0.0,0.0,0.0,0.0,0.0,0.0,0.0,0.0,0.0,0.0,0.0,0.0,0.0,0.0,0.0,0.0,0.0,0.0,0.0,0.0,0.0,0.0,0.0,0.0,0.0,0.0,0.0,0.0,0.0,0.0,0.0,0.0,0.0,0.0,0.0,0.0,0.0,0.0,0.0,0.0,0.0,0.0,0.0,0.0,0.0,0.0,0.0,0.0,0.0,0.0,0.0,0.0,0.0,0.0,0.0,0.0,0.0,0.0,0.0,0.0,0.0,0.0,0.0,0.0,0.0,0.0,0.0,0.0,0.0,0.0,0.0,0.0,0.0,0.0,0.0,0.0,0.0,0.0,0.0,0.0,0.0,0.0,0.0,0.0,0.0,0.0,0.0,0.0,0.0,0.0,0.0,0.0,0.0,0.0,0.0,0.0,0.0,0.0,0.0,0.0,0.0,0.0,0.0,0.0,0.0,0.0,0.0,0.0,0.0,0.0,0.0,0.0,0.0,0.0,0.0,0.0,0.0,0.0,0.0,0.0,0.0,0.0,0.0,0.0,0.0,0.0,0.0,0.0,0.0,0.0,0.0,0.0,0.0,0.0,0.0,0.0,0.0,0.0,0.0,0.0,0.0,0.0,0.0,0.0,0.0,0.0,0.0,0.0,0.0,0.0,0.0,0.0,0.0,0.0,0.0,0.0,0.0,0.0,0.0,0.0,0.0,0.0,0.0,0.0,0.0,0.0,0.0,0.0,0.0,0.0,0.0,0.0,0.0,0.0,0.0,0.0,0.0,0.0,0.0,0.0,0.0,0.0,0.0,0.0,0.0,0.0,0.0,0.0,0.0,0.0,0.0,0.0,0.0,0.0,0.0,0.0,0.0,0.0,0.0,0.0,0.0,0.0,0.0,0.0,0.0,0.0,0.0,0.0,0.0,0.0,0.0,0.0,0.0,0.0,0.0,0.0,0.0,0.0,0.0,0.0,0.0,0.0,0.0,0.0,0.0,0.0,0.0,0.0,0.0,0.0,0.0,0.0,0.0,0.0,0.0,0.0,0.0,0.0,0.0,0.0,0.0,0.0,0.0,0.0,0.0,0.0,0.0,0.0,0.0,0.0,0.0,0.0,0.0,0.0,0.0,0.0,0.0,0.0,0.0,0.0,0.0,0.0,0.0,0.0,0.0,0.0,0.0,0.0,0.0,0.0,0.0,0.0,0.0,0.0,0.0,0.0,0.0,0.0,0.0,0.0,0.0,0.0,0.0,0.0,0.0,0.0,0.0,0.0,0.0,0.0,0.0,0.0,0.0,0.0,0.0,0.0,0.0,0.0,0.0,0.0,0.0,0.0,0.0,0.0,0.0,0.0,0.0,0.0,0.0,0.0,0.0,0.0,0.0,0.0,0.0,0.0,0.0,0.0,0.0,0.0,0.0,0.0,0.0,0.0,0.0,0.0,0.0,0.0,0.0,0.0,0.0,0.0,0.0,0.0,0.0,0.0,0.0,0.0,0.0,0.0,0.0,0.0,0.0,0.0,0.0,0.0,0.0,0.0,0.0,0.0,0.0,0.0,0.0,0.0,0.0,0.0,0.0,0.0,0.0,0.0,0.0,0.0,0.0,0.6696,0.0,0.0,0.0,0.0,0.0,0.0,0.0,0.0,0.0,0.0,0.0,0.0,0.0,0.0,0.0,0.0,0.0,0.0,0.0,0.0,0.0,0.0,0.0,0.0,1.6597,1.6701,1.6098,1.6585,1.6679,1.6064,0.0,0.0,0.0,0.0,0.0,1.561,1.5085,1.4902,1.508,1.4879,1.5026,1.5498,1.414,1.2963,1.1973,0.0,0.0,0.0,0.0,0.0,0.0,0.0,0.0,0.0,0.0,0.0,0.0,0.0,0.0,0.0,0.0,0.0,0.0,0.0,0.0,0.0,0.0,0.0,0.0,0.0,0.0,0.0,0.0,0.0,0.0,0.0,0.0,0.0,0.0,0.0,0.0,0.0,0.0,0.0,0.0,0.0,0.0,0.0,0.0,0.0,0.0,0.0,0.0,0.0,0.0,0.0,0.0,0.0,0.0,0.0,0.0,0.0,0.0,0.0,0.0,0.0,0.0,0.0,0.0,0.0,0.0,0.0,0.0,0.0,0.0,0.0,0.7604,0.0,0.0,0.0,0.0,0.0,0.0,0.0,0.0,0.0,0.0,0.0,0.0,0.0,0.0,0.0,0.0,0.0,0.0,0.0,0.0,0.0,1.5473,1.6271,1.6886,1.7074,1.6697,1.7011,1.7074,1.6685,1.655,0.0,0.0,0.0,1.6259,1.5776,1.5754,1.5827,1.5986,1.6315,1.6799,1.7394,1.7257,1.6397,1.4936,1.39,0.0,0.0,0.0,0.0,0.0,0.0,0.0,0.0,0.0,0.0,0.0,0.0,0.0,0.0,0.0,0.0,0.0,0.0,0.0,0.0,0.0,0.0,0.0,0.0,0.0,0.0,0.0,0.0,0.0,0.0,0.0,0.0,0.0,0.0,0.0,0.0,0.0,0.0,0.0,0.0,0.0,0.0,0.0,0.0,0.0,0.0,0.0,0.0,0.0,0.0,0.0,0.0,0.0,0.0,0.0,0.0,0.0,0.0,0.0,0.0,0.0,0.0,0.0,1.0604,1.1024,1.1702,1.1683,1.1657,1.1554,0.9833,0.8947,0.8657,0.0,0.0,0.0,0.0,0.0,0.0,0.0,0.0,0.0,0.0,0.0,0.0,0.0,0.0,0.0,0.0,0.0,0.0,0.0,0.0,1.6166,1.5842,1.6296,1.681,1.7237,1.6886,1.681,1.7237,1.6798,0.0,0.0,1.65,1.6466,1.638,1.638,1.6878,1.7926,1.9566,2.0699,2.1335,2.0678,2.027,1.9926,1.7162,1.6134,1.641,0.0,0.0,0.0,0.0,0.0,0.0,0.0,0.0,0.0,0.0,0.0,0.0,0.0,0.0,0.0,0.0,0.0,0.0,0.0,0.0,0.0,0.0,0.0,0.0,0.0,0.0,0.0,0.0,0.0,0.0,0.0,0.0,0.0,0.0,0.0,0.0,0.0,0.0,0.0,0.0,0.0,1.0103,1.0053,0.0,0.0,0.0,0.0,0.0,0.0,0.0,0.0,0.0,0.0,0.0,0.0,0.0,0.0,1.1936,1.2157,1.2339,1.2459,1.2692,1.2856,1.2966,1.273,1.261,1.2589,1.2028,0.0,1.0568,0.9632,0.0,0.0,0.0,0.0,0.0,0.0,0.0,0.0,0.0,0.0,0.0,0.0,0.0,0.0,0.0,0.0,0.0,0.0,0.0,0.0,0.0,1.786,1.84,1.8369,1.8728,1.895,1.8919,1.8323,1.7829,1.7523,1.7442,1.725,1.6951,1.7608,1.8741,2.0325,2.1837,2.2717,2.2982,2.266,2.251,2.2458,2.1114,1.9458,1.7639,1.6491,0.0,0.0,0.0,0.0,0.0,0.0,0.0,0.0,0.0,0.0,0.0,0.0,0.0,0.0,0.0,0.0,0.0,0.0,0.0,0.0,0.0,0.0,0.0,0.0,0.0,0.0,0.0,0.0,0.0,0.0,0.0,0.0,0.0,0.0,0.0,0.0,0.0,0.0,0.0,1.0747,1.0792,1.1321,1.107,1.086,0.0,0.0,0.0,0.0,0.0,0.0,0.0,0.0,0.0,1.2174,1.2201,1.2378,1.2806,1.2939,1.3006,1.3013,1.3146,1.3213,1.3206,1.3066,1.2951,1.2777,1.2643,1.2275,1.1655,1.0886,1.0568,1.0453,0.0,0.0,0.0,0.0,0.0,0.7728,0.0,0.0,0.0,0.0,0.0,0.0,0.0,0.0,0.0,0.0,0.0,0.0,1.8311,1.9322,1.9925,1.9829,2.0509,2.0843,0.0,1.9634,1.892,1.8521,1.8242,1.7996,1.7772,1.928,2.0973,2.2856,2.3932,2.4532,2.4688,2.4509,2.442,2.442,2.4213,2.2494,1.9633,1.8186,1.7144,0.0,0.0,0.0,0.0,0.0,0.0,0.0,0.0,0.0,0.0,0.0,0.0,0.0,0.0,0.0,0.0,0.0,0.0,0.0,0.0,0.0,0.0,0.0,0.0,0.0,0.0,0.0,0.0,0.0,0.0,0.0,0.0,0.0,0.0,0.0,0.0,0.0,0.0,1.1371,1.1871,1.2567,1.2614,1.2633,0.0,0.0,0.0,0.0,0.0,0.0,1.1737,1.1764,1.2171,1.3099,1.3132,1.328,1.354,1.3547,1.3507,1.3434,1.3434,1.3434,1.3434,1.3353,1.3193,1.3012,1.2938,1.273,1.2371,1.1784,1.141,1.1122,0.9951,0.9512,0.9407,0.8493,0.8497,0.8972,0.0,0.0,0.0,0.0,0.0,0.0,0.0,0.0,0.0,0.0,0.0,1.8888,1.9023,1.9683,2.0553,2.1657,2.1351,2.1281,0.0,0.0,1.9086,1.9066,1.8443,1.8388,1.901,2.1448,2.3635,2.5515,2.6138,2.6782,2.7394,2.6698,2.6357,2.633,2.5644,2.4887,2.4035,2.1731,2.0703,2.0295,0.0,0.0,0.0,0.0,0.0,0.0,0.0,0.0,0.0,0.0,0.0,0.0,0.0,0.0,0.0,0.0,0.0,0.0,0.0,0.0,0.0,0.0,0.0,0.0,0.0,0.0,0.0,0.0,0.0,0.0,0.0,0.0,0.0,0.0,0.0,0.0,0.0,0.0,0.0,1.3242,1.4724,0.0,0.0,0.0,0.0,1.3427,1.3567,1.3433,1.2779,1.2717,1.3132,1.3995,1.4015,1.4162,1.4449,1.4412,1.4315,1.4041,1.4041,1.4041,1.4035,1.3713,1.3573,1.354,1.3307,1.3013,1.2717,1.2127,1.1873,1.1799,1.1142,1.0916,1.0817,1.0208,1.0003,0.9993,0.0,0.0,0.0,0.0,0.0,1.6802,1.6802,1.7844,1.8585,1.842,1.9885,2.0976,0.0,2.2482,2.3458,2.3518,2.3786,2.3836,2.3645,0.0,2.0808,2.0905,2.0188,2.0646,2.253,2.4235,2.5868,2.7432,2.8074,2.8334,2.8174,2.7913,2.758,2.7203,2.6916,2.694,2.6945,2.3993,2.2513,2.1936,1.9127,1.7663,0.0,0.0,0.0,0.0,0.0,0.0,0.0,0.0,0.0,0.0,0.0,0.0,0.0,0.0,0.0,0.0,0.0,0.0,0.0,0.0,0.0,0.0,0.0,0.0,0.0,0.0,0.0,0.0,0.0,0.0,0.0,0.0,0.0,0.0,0.0,0.0,0.0,1.627,1.6729,0.0,1.6954,1.6966,1.6539,1.5589,1.6021,1.6323,1.6283,1.6006,1.5817,1.585,1.554,1.5119,1.4516,1.4522,1.4376,1.4088,1.4088,1.4454,1.5137,1.5022,1.5209,1.5706,1.563,1.5258,1.4715,1.4512,1.3535,1.2104,1.1745,1.1591,1.1544,1.1109,1.0842,1.0668,0.0,0.0,0.0,0.0,1.7142,1.7142,1.7142,1.8243,1.9081,1.9081,2.0845,2.2178,2.2402,2.4118,2.5297,2.5356,2.5602,2.5669,2.5523,0.0,2.23,2.2396,2.2134,2.3053,2.5365,2.6458,2.7681,2.9032,2.9277,2.9219,2.8803,2.8606,2.8286,2.7894,2.7685,2.7854,2.8121,2.6187,2.4892,2.3956,2.1691,2.0446,1.9727,0.0,0.0,0.0,0.0,0.0,0.0,0.0,0.0,0.0,0.0,0.0,0.0,0.0,0.0,0.0,0.0,0.0,0.0,0.0,0.0,0.0,0.0,0.0,0.0,0.0,0.0,0.0,0.0,0.0,0.0,0.0,0.0,0.0,0.0,0.0,1.6813,1.8061,1.856,1.8829,1.9106,1.9134,1.8767,1.7865,1.8267,1.8468,1.8347,1.8037,1.7759,1.7567,1.6779,1.6189,1.5814,1.4948,1.4749,1.5193,1.4817,1.5179,1.6232,1.6232,1.6547,1.7042,1.7042,1.6627,1.5939,1.5939,1.4896,1.3215,1.2691,1.2506,1.2436,1.1788,1.139,1.1109,0.0,0.0,0.0,1.7665,1.78,1.78,1.7834,1.8743,1.943,1.946,2.1047,2.242,2.3075,2.4422,2.5817,2.7155,2.6634,2.6518,2.7214,2.4862,2.3441,2.3472,2.4184,2.5413,2.7228,2.8037,2.907,3.033,2.9739,2.9451,2.9406,2.8826,2.8535,2.8463,2.7894,2.764,2.7675,2.8308,2.785,2.6541,2.4751,2.3585,2.2874,0.0,0.0,0.0,0.0,0.0,0.0,0.0,0.0,0.0,0.0,0.0,0.0,0.0,0.0,0.0,0.0,0.0,0.0,0.0,0.0,0.0,0.0,0.0,0.0,0.0,0.0,0.0,0.0,0.0,0.0,0.0,0.0,0.0,1.6749,1.7141,1.7779,1.8517,2.0163,2.122,2.1239,2.167,2.147,2.0349,2.0274,1.9851,1.8793,1.8741,1.8857,1.9101,1.7686,1.7367,1.8329,1.5857,1.5496,1.7302,1.6191,1.6273,1.7342,1.7334,1.7334,1.7415,1.7415,1.7,1.6312,1.6304,1.5918,1.5215,1.4178,1.3745,1.3599,1.2443,1.176,1.1377,0.0,0.0,1.6306,1.758,1.78,1.7969,1.8521,1.9302,2.0102,2.0892,2.2659,2.4004,2.442,2.6034,2.7066,2.701,2.6915,2.6747,2.6522,0.0,2.422,2.4745,2.5815,2.7117,2.8695,2.932,3.0078,3.0938,3.0797,3.0477,3.0059,2.987,2.9339,2.8487,2.8334,2.8282,2.8323,2.8517,2.8677,2.8655,2.7171,2.5951,2.4862,0.0,0.0,0.0,0.0,0.0,0.0,0.0,0.0,0.0,0.0,0.0,0.0,0.0,0.0,0.0,0.0,0.0,0.0,0.0,0.0,0.0,0.0,0.0,0.0,0.0,0.0,0.0,0.0,0.0,0.0,0.0,0.0,1.8621,1.8136,1.873,1.9659,2.083,2.139,2.1826,2.2129,2.2496,2.2528,2.1911,2.2126,2.2149,2.1889,2.1607,2.0795,1.9422,1.9209,1.8485,1.7113,1.6962,1.704,1.7302,1.6191,1.6675,1.851,1.7658,1.8189,1.9678,1.9678,1.9369,1.8854,1.8564,1.8134,1.7487,1.5547,1.4772,1.4764,1.4419,1.3523,1.2315,0.0,1.5595,1.6069,1.7546,1.78,1.8093,1.8984,1.9737,2.0582,2.1662,2.3632,2.4945,2.4991,2.6279,2.7046,2.6827,2.6594,2.6321,2.5977,2.5308,2.5433,2.6477,2.7479,2.8539,2.9618,3.0244,3.0768,3.119,3.119,3.1015,3.0679,3.0414,2.993,2.9225,2.8732,2.8526,2.8556,2.8602,2.8981,2.9564,2.9047,2.8233,2.7259,2.5963,2.4837,2.3871,2.3075,2.2804,2.2691,2.2236,0.0,0.0,0.0,0.0,0.0,0.0,0.0,0.0,0.0,0.0,0.0,0.0,0.0,0.0,0.0,0.0,0.0,0.0,0.0,0.0,0.0,0.0,0.0,0.0,1.9102,1.9805,1.9699,2.0118,2.0889,2.2012,2.2148,2.2314,2.2691,2.2955,2.2994,2.275,2.2955,2.3091,2.3091,2.2867,2.221,2.1033,2.0406,1.9689,1.8845,1.7995,1.7958,1.8669,1.7609,1.798,1.9638,1.8988,1.9392,0.0,2.0605,2.0263,1.9639,1.9394,1.8926,0.0,0.0,0.0,0.0,0.0,1.3769,1.2706,0.0,1.5663,1.6153,1.7563,1.78,1.8194,1.9339,2.0072,2.0935,2.2118,0.0,2.5266,2.5007,2.5632,2.6216,2.6605,2.5997,2.566,0.0,0.0,2.6864,2.8357,2.9036,2.9649,3.0207,3.0869,3.1241,3.1309,3.1309,3.136,3.1444,3.0908,3.057,3.0382,2.9291,2.8692,2.851,2.8561,2.8985,2.9651,3.0178,3.0118,2.9577,2.8482,2.759,2.6703,2.514,2.4408,2.4112,2.3145,0.0,0.0,0.0,0.0,0.0,0.0,0.0,0.0,0.0,0.0,0.0,0.0,0.0,0.0,0.0,0.0,0.0,0.0,0.0,0.0,0.0,0.0,0.0,0.0,2.0233,2.0928,2.1288,2.1385,2.1678,2.2422,2.251,2.2676,2.3052,2.3091,2.3091,2.3091,2.3091,2.3091,2.3091,0.0,0.0,0.0,0.0,2.082,2.1668,1.9029,1.8669,2.0605,1.952,1.9559,2.0605,2.0479,2.0489,2.0605,2.0605,2.0145,1.9355,1.9307,1.8779,1.7906,1.707,1.674,1.6487,1.4378,1.3427,0.0,0.0,1.6079,1.6756,1.7659,1.78,1.8365,2.0033,2.0408,2.1207,2.3131,2.4064,2.46,2.4819,2.5063,2.5498,2.6169,2.5836,2.61,0.0,0.0,2.8138,2.9671,2.9873,3.0266,3.097,3.1123,3.1478,3.209,3.209,3.2374,3.2983,3.2862,3.2219,3.1171,3.0937,2.9964,2.8503,2.8521,2.8931,2.9621,2.9741,2.9983,3.0353,3.0704,3.0038,2.8958,2.914,2.849,2.7537,2.7337,2.601,2.4471,2.4675,0.0,0.0,0.0,0.0,0.0,0.0,0.0,0.0,0.0,0.0,0.0,0.0,0.0,0.0,0.0,0.0,0.0,0.0,0.0,0.0,2.0367,2.1338,2.2168,2.2256,2.2516,2.2662,2.2539,2.251,2.2676,2.3052,2.3091,2.3091,2.3091,2.3091,2.3091,2.3091,2.3091,0.0,2.1658,2.1608,2.1172,2.0382,2.008,2.0167,2.0605,0.0,0.0,2.0566,1.9678,1.9766,2.0605,2.0605,2.0273,1.9766,1.9424,1.8779,1.7974,1.7794,1.7725,1.7556,1.6091,1.5323,1.4752,1.6079,1.6451,1.6925,1.7665,1.8104,1.8841,2.0281,2.0813,2.1633,2.3249,2.3993,2.435,2.436,2.444,2.4565,2.4729,2.4922,0.0,0.0,2.8493,2.9472,3.1218,3.1305,3.1478,3.1842,3.2242,3.2624,3.3006,3.3389,3.3671,3.3805,3.3805,3.3298,3.2398,3.21,3.1208,2.9934,2.9664,2.9745,3.0046,3.0045,3.0432,3.1014,3.1043,3.0615,2.9983,2.9995,2.9549,2.8966,2.8966,2.7937,2.6636,2.6579,2.5538,2.4089,0.0,0.0,0.0,0.0,0.0,0.0,0.0,0.0,0.0,0.0,0.0,0.0,0.0,0.0,2.2039,0.0,0.0,2.2203,2.2359,2.2444,2.2588,2.275,2.2964,2.3013,2.2808,2.2779,2.2867,2.3071,2.3091,2.3091,2.3091,2.3091,2.3091,2.3091,2.3091,2.2818,2.2217,2.2009,2.1575,2.0954,2.0708,2.0605,2.0605,2.004,2.0079,2.0566,2.004,2.0079,2.0605,2.0605,2.0312,1.9863,1.9228,1.8584,1.8008,1.8008,1.8008,1.7847,1.6496,1.5912,1.5581,1.6891,1.6908,1.7111,1.771,1.8403,1.925,2.0345,2.1125,2.1981,2.3065,2.3749,2.4058,2.3802,2.3749,2.3684,0.0,0.0,0.0,2.8418,2.9303,3.0551,3.2413,3.2501,3.2571,3.273,3.3383,3.3861,3.4162,3.48,3.4993,3.4774,3.4774,3.4412,3.3756,3.3264,3.2503,3.1589,3.115,3.0867,3.0696,3.057,3.0857,3.1227,3.0582,3.0418,3.0453,3.0154,2.9698,2.9214,2.9492,2.9078,2.8373,2.7868,2.7362,2.6519,2.4275,2.3944,0.0,0.0,0.0,0.0,0.0,0.0,0.0,0.0,0.0,2.2794,2.4217,2.4349,2.4458,2.5159,2.4484,2.3828,2.4154,2.3511,2.2992,2.3086,2.3091,2.3091,2.3091,2.3091,2.3091,2.3091,2.3091,2.3091,2.3091,2.3091,2.3091,2.3091,2.3091,2.3091,2.3091,2.2324,2.1885,2.1885,2.1045,2.0605,2.0605,2.0605,2.0605,2.0605,2.0605,2.0605,2.0595,2.0429,2.0117,1.9727,1.8831,1.8286,1.8008,1.8008,1.8008,1.7857,1.6732,1.6346,1.6178,0.0,1.7693,1.7698,1.7783,1.8403,1.925,2.0345,2.1125,2.1981,2.3065,2.3289,2.3318,2.3283,2.3025,2.3115,2.3791,0.0,2.6835,2.882,2.9697,3.0841,3.243,3.2501,3.2836,3.3543,3.3649,3.4358,3.574,3.5828,3.6217,3.6868,3.6868,3.6231,3.5091,3.5013,3.4011,3.238,3.2311,3.1975,3.1409,3.0825,3.0605,3.0552,2.9924,3.0023,3.0627,3.1684,3.0506,2.8602,2.9788,2.9362,2.8338,2.8381,2.8331,2.801,2.6603,0.0,2.5968,2.4498,2.3771,2.3511,2.3999,2.4185,2.4392,0.0,0.0,2.5702,2.6139,2.6581,2.6777,2.6476,2.6623,2.6221,2.4495,2.4367,2.4192,2.3256,2.3091,2.3091,2.3091,2.3091,2.3091,2.3091,2.3091,2.3091,2.3091,2.3091,2.3091,2.3091,2.3091,2.3091,2.3091,2.2324,2.1885,2.1885,2.1045,2.0605,2.0605,2.0605,2.0605,2.0605,2.0605,2.0605,2.0566,1.9793,1.9404,1.9287,1.8437,1.8047,1.8008,1.8008,1.8008,1.7974,1.7813,1.7552,1.7181,0.0,1.78,1.7946,1.8369,1.9063,1.9844,2.0772,2.1537,2.2158,2.2625,2.2673,2.2673,2.2673,2.2541,2.2678,2.3154,2.5034,2.6906,2.8609,3.0306,3.1846,3.3186,3.3255,3.3414,3.3758,3.4715,3.553,3.6166,3.7123,3.7587,3.7614,3.7614,3.7182,3.6391,3.6073,3.5273,3.4113,3.385,3.3068,3.2047,3.1857,3.1266,3.0464,3.0223,2.9572,2.8976,3.0249,2.9699,0.0,0.0,2.8324,2.7256,2.7323,2.6826,2.6205,2.606,2.6019,0.0,2.5809,2.5292,2.5044,2.6036,2.6321,2.6549,2.7363,2.7037,2.6775,2.753,2.7733,2.7812,2.7915,2.7857,2.7287,0.0,2.5124,2.4414,2.3266,2.3091,2.3091,2.3091,2.3091,2.3091,2.3091,2.3091,2.3091,2.3091,2.3091,2.3091,2.3091,2.3091,2.3091,2.3091,2.2568,2.2129,2.1885,2.1269,2.082,2.0605,2.0605,2.0605,2.0605,2.0605,2.0605,2.0586,2.0224,1.9783,1.9258,1.8896,1.8457,1.8008,1.8008,1.8008,1.7978,1.7734,1.7686,1.7667,0.0,1.78,1.8104,1.9046,1.9642,2.0268,2.1072,2.1837,2.2296,2.2296,2.2296,2.2296,2.2296,2.2296,2.2398,2.2669,2.4743,2.6629,2.8079,3.0473,3.2315,3.3426,3.3678,3.4027,3.4486,3.5679,3.6523,3.6964,3.8138,3.8496,3.8115,3.8115,3.786,3.7378,3.6981,3.6369,3.5578,3.5245,3.417,3.2669,3.2425,3.1498,3.0207,2.9833,2.8723,2.748,2.8778,2.8498,0.0,0.0,2.7217,2.6416,2.6265,2.5729,2.5228,2.5721,2.5987,2.6195,2.6501,2.6507,2.6579,2.741,2.7983,2.849,2.9146,2.841,2.7759,2.8384,2.8217,2.8149,2.8762,2.8602,2.7929,2.6707,2.5808,2.4755,2.3299,2.3091,2.3091,2.3091,2.3091,2.3091,2.3091,2.2994,2.2974,2.3081,2.2984,2.2974,2.3091,2.3091,2.3091,2.3091,2.2617,2.2246,2.206,2.1387,2.0947,2.0752,2.0664,2.0605,2.0605,2.0605,2.0605,2.0595,2.0478,2.0008,1.9277,1.916,1.8672,1.8008,1.8008,1.8008,1.7978,1.7666,1.7744,1.7969,0.0,0.0,1.8256,1.9714,1.9985,2.0268,2.1072,2.1837,2.2296,2.2296,2.2296,2.2296,2.2296,2.2296,2.2398,2.2669,2.4483,2.6111,2.726,2.9899,3.1775,3.2601,3.3385,3.4559,3.6193,3.6266,3.7055,3.8634,3.8689,3.8692,3.8692,3.8692,3.8382,3.7876,3.7859,3.7287,3.6361,3.6336,3.5234,3.3369,3.2135,3.0798,2.9404,2.8168,2.7255,2.6804,2.8071,0.0,0.0,0.0,2.639,2.621,2.5696,2.5957,0.0,2.654,2.6968,2.7327,2.6766,2.7485,2.8273,2.7735,2.9026,3.0223,2.9464,2.926,2.908,2.8605,2.8044,2.7889,2.8723,2.89,2.8364,2.6774,2.6483,2.5641,2.343,2.3091,2.3091,2.3091,2.3091,2.3091,0.0,2.2773,2.2705,2.3062,2.2721,2.2672,2.3071,2.3091,2.3091,2.3091,2.2334,2.21,2.249,2.1221,2.0801,2.1171,2.0771,2.0605,2.0605,2.0605,2.0605,2.0576,2.0117,1.9687,1.9248,1.8792,1.8373,1.8008,1.8008,1.8008,1.8008,1.7998,1.7998,1.8008,0.0,0.0,0.0,2.0534,2.0788,2.1042,2.182,2.2127,2.2296,2.2296,2.2296,0.0,0.0,0.0,0.0,0.0,2.3837,2.5231,2.6871,2.9044,3.0865,3.2201,3.3259,3.4064,3.4633,3.5151,3.5701,3.6252,3.6817,3.711,3.7129,3.7658,3.7821,3.763,3.7812,3.7542,3.6921,3.656,3.5835,3.4726,3.2966,3.1725,3.0686,2.8921,2.729,2.5997,0.0,0.0,0.0,2.4474,2.4245,2.3943,2.4161,0.0,0.0,2.4485,2.5386,2.6378,2.708,2.7595,2.8178,2.9244,3.0013,3.0542,3.0732,3.0003,2.9108,2.8459,2.7616,2.7051,2.7281,2.7896,2.8089,2.7176,2.734,2.7035,2.5557,2.5347,2.5347,2.5347,2.5347,0.0,0.0,0.0,0.0,2.3062,2.2711,2.2695,2.3071,2.2838,2.2682,2.2682,2.2451,2.21,2.1629,2.1514,2.1221,2.0791,2.0674,2.0605,2.0605,2.0605,2.0605,2.0595,2.0449,1.9941,1.9277,1.9131,1.8652,1.8008,1.8008,1.8008,1.8008,1.8008,1.8008,1.8008,0.0,0.0,0.0,0.0,0.0,0.0,0.0,0.0,0.0,0.0,0.0,0.0,0.0,0.0,0.0,0.0,0.0,2.4518,2.5715,2.7602,2.9256,3.0596,3.1361,3.2142,3.295,3.3219,3.3749,3.4555,3.513,3.5548,3.5805,3.6331,3.6565,3.6585,3.6744,3.656,3.6114,3.5762,3.5035,3.3963,3.2447,3.1302,3.0322,2.8814,2.729,0.0,0.0,0.0,0.0,2.2865,2.2499,2.2332,2.2293,2.2805,2.3533,2.4127,2.5582,2.7119,2.777,2.8454,2.9206,3.0233,3.0687,3.0898,3.1092,3.0231,2.9117,2.8058,2.7138,2.6438,2.6236,2.6728,2.7171,2.7021,2.7296,2.7284,2.6591,2.6524,2.6524,2.6524,2.6524,2.6224,0.0,0.0,0.0,2.3149,2.2711,2.2695,2.3071,2.2838,2.2666,2.2519,2.2363,2.2021,2.1475,2.1435,2.1163,2.0605,2.0605,2.0605,2.0605,2.0605,2.0605,2.0595,2.0439,2.012,1.9765,1.9559,1.9113,1.8496,1.8821,1.8754,1.8462,1.8462,1.8462,1.8428,0.0,0.0,0.0,0.0,0.0,0.0,0.0,0.0,0.0,0.0,0.0,0.0,0.0,0.0,0.0,0.0,0.0,0.0,2.3908,2.564,2.7014,2.7858,2.8031,2.9112,3.132,3.0678,3.1371,3.3523,3.3523,3.3896,3.4588,3.4659,3.4694,3.4694,3.4765,3.4549,3.4146,3.4146,3.3107,3.1396,3.072,2.969,2.8486,2.7805,0.0,0.0,0.0,0.0,0.0,2.1622,2.1398,2.1634,2.045,2.2174,2.4766,2.5417,2.7367,2.9254,2.8763,2.9959,3.1225,3.0704,3.1017,3.1316,3.0657,3.0028,2.9138,2.7506,2.6625,2.6042,0.0,0.0,2.5819,2.6438,2.6586,2.662,2.6676,2.6689,2.6689,0.0,0.0,0.0,0.0,0.0,0.0,2.34,0.0,2.2738,2.3071,2.3071,2.2867,2.249,2.209,2.1865,2.1816,2.1026,2.0644,2.0673,2.0673,2.0712,2.075,2.075,2.0741,2.0701,2.0239,2.0266,2.06,2.0159,1.9742,1.9464,2.0268,2.0074,1.9365,1.9365,1.9365,1.9243,0.0,0.0,0.0,0.0,0.0,0.0,0.0,0.0,0.0,0.0,0.0,0.0,0.0,0.0,0.0,0.0,0.0,0.0,2.2569,2.3884,2.5195,2.6453,2.7376,2.8364,2.9386,2.923,2.942,3.0006,3.0006,3.011,3.03,3.1403,3.1921,3.1972,3.3074,3.3539,3.3526,3.3526,3.3052,3.2144,0.0,2.9624,2.9213,0.0,0.0,0.0,0.0,0.0,0.0,0.0,0.0,0.0,0.0,2.3075,2.3977,2.5167,2.6363,2.7568,2.8976,3.003,3.0792,3.1164,3.1376,3.1316,3.0657,3.0028,2.9038,2.7064,2.6106,2.5377,0.0,0.0,0.0,2.6912,2.7767,0.0,2.8903,2.8961,0.0,2.8961,0.0,2.8621,2.7763,2.7566,0.0,0.0,2.4461,2.3591,2.3115,2.2799,2.248,2.206,2.1943,2.1572,2.0948,2.0723,2.0934,2.1621,2.1621,2.2038,2.275,2.275,2.2555,2.2172,2.2053,2.1629,2.1049,2.0929,2.0621,2.0301,2.0526,2.0462,2.0268,2.0268,2.0268,2.0236,0.0,0.0,0.0,0.0,0.0,0.0,0.0,0.0,0.0,0.0,0.0,0.0,0.0,0.0,0.0,0.0,0.0,0.0,0.0,2.2248,2.326,2.4668,2.4779,2.5295,2.6341,2.6266,2.6269,2.6453,0.0,0.0,2.775,2.8277,2.8829,2.939,2.9955,3.0385,3.0713,3.0713,0.0,0.0,0.0,0.0,0.0,0.0,0.0,0.0,0.0,0.0,0.0,0.0,0.0,2.367,2.3703,2.3918,2.4353,2.5422,0.0,2.7499,2.9052,2.9925,3.0586,3.1319,3.1511,3.1182,2.9953,2.9624,2.8824,2.6179,2.5751,0.0,2.3664,2.446,0.0,0.0,0.0,0.0,2.9641,2.9792,2.9792,0.0,2.9792,0.0,2.8897,2.8858,2.8398,0.0,2.5957,2.4818,2.391,2.4113,2.3856,2.2929,2.3124,2.2806,2.1869,2.1859,2.2151,2.2664,2.2664,2.2962,2.3514,2.3514,2.3332,2.3017,0.0,2.2523,2.2123,2.1927,2.1581,2.1207,2.1542,2.1479,2.1175,2.1175,2.1175,2.1101,0.0,0.0,0.0,0.0,0.0,0.0,0.0,0.0,0.0,0.0,0.0,0.0,0.0,0.0,0.0,0.0,0.0,0.0,0.0,0.0,0.0,2.2859,2.1749,2.1749,2.3173,2.2968,2.297,2.3233,0.0,0.0,0.0,0.0,0.0,0.0,0.0,0.0,0.0,0.0,0.0,0.0,0.0,0.0,0.0,0.0,0.0,0.0,0.0,2.6722,2.6713,2.662,2.5046,2.3243,2.4076,2.4698,2.5191,2.5905,2.6933,2.8057,2.899,2.9687,3.0299,3.0999,3.1116,3.0626,2.8928,2.8893,2.8329,2.5284,0.0,2.5487,2.3004,2.3868,2.5131,2.563,0.0,2.7907,2.9553,2.9792,2.9792,2.9792,2.9792,2.9792,2.9792,2.9792,2.9404,2.8386,2.7452,2.6389,2.5083,2.5975,2.5845,2.437,2.4623,2.4388,2.3526,2.3514,2.3562,2.3708,2.3708,2.3781,2.3879,2.3879,2.3845,2.3754,0.0,0.0,2.3379,2.3014,2.2543,2.2137,2.2823,2.2659,2.2063,2.2063,2.2063,2.1939,0.0,0.0,0.0,0.0,0.0,0.0,0.0,0.0,0.0,0.0,2.1145,2.1198,0.0,0.0,0.0,0.0,0.0,0.0,0.0,0.0,0.0,2.1879,2.1708,2.1749,2.215,2.2116,2.1845,0.0,0.0,0.0,0.0,0.0,0.0,0.0,0.0,0.0,0.0,0.0,0.0,0.0,0.0,0.0,0.0,0.0,0.0,0.0,0.0,2.742,2.7409,2.7217,2.6455,2.5608,2.5735,2.5332,2.5097,2.6367,2.6929,2.7385,2.8699,2.9139,2.9254,2.9411,2.9094,2.8685,2.8425,2.7683,0.0,0.0,2.5112,2.45,2.3434,2.3791,2.4732,2.611,2.6889,2.7907,2.9553,2.9792,2.9792,0.0,2.9792,2.9792,0.0,0.0,0.0,0.0,0.0,2.8331,2.6307,2.6389,2.5987,2.4914,2.414,2.3694,2.3514,2.3514,2.3927,2.4743,2.4743,2.5182,2.5978,2.5978,2.5719,2.5241,0.0,0.0,2.3865,2.3797,2.3424,2.2914,2.3047,2.3005,2.2884,2.2884,2.2884,2.2884,0.0,0.0,0.0,0.0,0.0,0.0,0.0,2.0867,2.1235,2.1933,2.1926,2.1867,2.1852,2.1559,2.1129,0.0,0.0,0.0,0.0,0.0,0.0,0.0,0.0,2.1077,2.0847,2.1445,0.0,0.0,0.0,0.0,0.0,0.0,0.0,0.0,0.0,0.0,0.0,0.0,0.0,0.0,0.0,0.0,0.0,0.0,0.0,0.0,0.0,2.7375,2.7131,2.7373,2.6913,2.6273,2.6386,2.6071,2.5824,2.6486,2.6696,2.6946,2.8036,2.833,2.8427,2.8907,2.8887,2.8505,2.751,0.0,0.0,0.0,2.4836,2.466,2.3295,2.3929,0.0,2.5169,2.5927,2.6992,2.8674,2.8913,0.0,2.9729,2.9792,0.0,0.0,0.0,0.0,0.0,0.0,2.9079,2.7412,2.7076,2.6827,2.6612,2.5874,2.5338,2.5063,2.5063,2.5288,2.5769,2.5769,2.6025,2.6499,2.6499,2.6172,2.5611,2.5912,0.0,2.4017,2.4305,2.3885,2.3108,2.3108,2.3108,2.3108,2.3108,2.3108,2.3108,0.0,0.0,0.0,0.0,0.0,0.0,0.0,2.0333,2.105,2.2523,2.2827,2.2765,2.2362,2.2084,2.1635,0.0,0.0,0.0,0.0,0.0,0.0,0.0,0.0,0.0,0.0,0.0,0.0,0.0,0.0,0.0,0.0,0.0,0.0,0.0,0.0,0.0,0.0,0.0,0.0,0.0,0.0,0.0,0.0,0.0,0.0,0.0,0.0,0.0,2.6871,2.7244,2.7003,2.6492,2.639,2.6356,2.635,2.6307,2.6311,2.6459,2.7224,2.7451,2.7604,2.8298,2.8512,2.8164,2.6578,2.6602,0.0,2.4261,2.4537,2.4713,2.3161,2.4061,2.4874,0.0,2.5158,2.638,2.7907,2.821,2.8662,0.0,2.9792,0.0,0.0,0.0,0.0,0.0,0.0,0.0,2.8505,2.7813,2.7675,2.8085,2.7457,2.6939,2.6499,2.6499,2.6499,2.6499,2.6499,2.6499,2.6499,2.6499,2.6172,2.5624,2.6109,0.0,0.0,2.4469,2.401,2.3108,2.3108,2.3108,2.3108,2.3108,2.3108,2.3108,0.0,0.0,0.0,0.0,0.0,0.0,0.0,1.9565,2.0639,2.2454,2.3224,2.3783,2.4268,2.3295,2.2343,0.0,0.0,0.0,0.0,0.0,0.0,0.0,0.0,0.0,0.0,0.0,0.0,0.0,0.0,0.0,0.0,0.0,0.0,0.0,0.0,0.0,0.0,0.0,0.0,0.0,0.0,0.0,0.0,0.0,0.0,0.0,0.0,0.0,0.0,2.6811,0.0,2.6973,2.5647,2.5568,2.5931,2.5742,0.0,0.0,2.6438,2.6624,2.6624,2.6714,2.6486,2.6199,2.6048,0.0,2.4733,2.4543,2.4133,2.3703,2.3457,2.4061,2.4619,2.4797,0.0,2.6945,2.7967,2.8536,2.9089,2.9716,0.0,0.0,0.0,0.0,0.0,0.0,0.0,0.0,0.0,2.8612,2.8037,2.8109,2.7115,2.6549,2.6499,2.6499,2.6499,2.6499,2.6499,2.6499,2.6499,2.6499,2.6172,2.5598,0.0,0.0,0.0,2.4054,2.3703,2.3108,2.3108,2.3108,2.3108,2.3108,2.3108,2.3108,0.0,0.0,0.0,0.0,0.0,0.0,1.8475,1.9,2.0241,2.2517,2.3354,2.4279,2.5649,2.4986,2.3864,2.2433,0.0,0.0,0.0,0.0,0.0,0.0,0.0,0.0,0.0,0.0,0.0,0.0,0.0,0.0,0.0,0.0,0.0,0.0,0.0,0.0,0.0,0.0,0.0,0.0,0.0,0.0,0.0,0.0,0.0,0.0,0.0,0.0,0.0,0.0,0.0,0.0,2.4531,2.4062,0.0,0.0,2.536,2.5649,2.5875,2.6223,2.6624,2.7095,2.6871,2.6601,2.6764,2.5934,2.5062,2.4694,2.4395,2.4194,2.4166,2.4675,2.4989,2.4667,2.496,2.547,2.6026,2.659,2.7381,2.8624,0.0,0.0,0.0,0.0,0.0,0.0,0.0,0.0,0.0,2.8536,2.8109,2.8109,2.7065,2.6499,2.6499,2.6499,2.6499,2.6499,2.6499,2.6499,2.6499,2.6499,2.5975,2.5146,0.0,0.0,0.0,2.3853,2.3653,2.3108,2.3108,2.3108,2.3108,2.3108,2.3108,2.3108,0.0,0.0,0.0,0.0,0.0,1.7366,1.74,1.8083,1.949,2.2021,2.3166,2.4433,2.6111,2.6063,2.5255,2.3684,2.3032,0.0,0.0,0.0,0.0,0.0,0.0,0.0,0.0,0.0,0.0,0.0,0.0,0.0,0.0,0.0,0.0,0.0,0.0,0.0,0.0,0.0,0.0,0.0,0.0,0.0,0.0,0.0,0.0,0.0,0.0,0.0,0.0,0.0,0.0,0.0,2.4217,2.3523,2.3323,0.0,2.455,2.4971,2.546,2.5921,2.6426,2.721,2.7198,2.7003,2.6986,2.6293,2.548,2.4993,2.4739,2.4664,2.4859,2.5427,2.5517,2.4551,2.4665,2.4892,2.5012,2.5511,2.6414,0.0,0.0,0.0,0.0,0.0,0.0,0.0,0.0,0.0,0.0,2.8247,2.7858,2.7858,2.6989,2.6499,2.6499,2.6499,2.6499,2.6499,2.6499,2.6411,2.6235,2.6235,2.5611,2.4562,0.0,0.0,0.0,2.3547,2.3471,2.3108,2.3108,2.3108,2.3108,2.3108,2.3108,2.3108,0.0,0.0,0.0,0.0,0.0,0.0,1.555,1.6536,1.8215,2.07,2.2583,2.418,2.5473,2.6198,2.6303,2.563,2.3804,0.0,0.0,0.0,0.0,0.0,0.0,0.0,0.0,0.0,2.286,2.3396,2.2125,0.0,0.0,0.0,0.0,0.0,0.0,0.0,0.0,0.0,0.0,0.0,0.0,0.0,0.0,0.0,0.0,0.0,0.0,0.0,0.0,0.0,0.0,0.0,0.0,2.4445,2.43,2.3407,2.3133,2.3484,2.5159,2.5598,2.5785,2.6531,2.6858,2.6893,2.6418,2.5946,2.5615,2.56,2.5053,2.4799,2.548,2.6138,2.61,2.4631,2.5397,2.6031,2.5653,2.6122,0.0,0.0,0.0,0.0,0.0,0.0,0.0,0.0,0.0,0.0,0.0,2.7896,2.7329,2.7329,2.6788,2.6499,2.6499,2.6499,2.6499,2.6499,2.6499,2.6197,2.5598,2.5598,2.5021,0.0,0.0,0.0,0.0,2.3108,2.3108,2.3108,2.3108,2.3108,2.3108,2.3108,2.3108,2.3108,0.0,0.0,0.0,0.0,0.0,0.0,0.0,1.5614,1.7006,1.9455,2.103,2.2861,2.5315,2.5784,2.6019,2.6258,2.53,0.0,0.0,0.0,0.0,0.0,0.0,0.0,0.0,0.0,2.4135,2.4625,2.4171,2.3923,2.3874,0.0,0.0,0.0,0.0,0.0,0.0,0.0,0.0,0.0,0.0,0.0,0.0,0.0,0.0,0.0,0.0,0.0,0.0,0.0,0.0,0.0,0.0,0.0,0.0,2.2852,2.2917,2.3133,2.3314,2.4218,2.5235,2.5711,2.616,2.6644,2.7081,2.6356,2.5734,2.6183,2.5749,2.5495,2.6153,2.6811,2.7117,2.6594,2.6844,0.0,0.0,0.0,0.0,0.0,0.0,0.0,0.0,0.0,0.0,0.0,0.0,0.0,0.0,2.7469,2.7281,2.7281,2.6788,2.6499,2.6499,2.6499,2.6499,2.6487,2.6097,2.5774,2.5586,2.5222,0.0,0.0,0.0,0.0,0.0,2.4237,2.4381,2.3972,2.4467,2.4667,2.461,2.4105,2.425,2.461,0.0,0.0,0.0,0.0,0.0,0.0,0.0,1.4901,1.6254,1.8236,2.0181,2.2395,2.4966,2.5687,2.6243,2.6926,2.6587,0.0,0.0,0.0,0.0,0.0,0.0,0.0,0.0,2.4917,2.5107,2.5575,2.5247,2.4844,2.44,2.5457,2.5536,0.0,0.0,0.0,0.0,0.0,0.0,0.0,0.0,0.0,0.0,0.0,0.0,0.0,0.0,0.0,0.0,0.0,0.0,0.0,0.0,0.0,0.0,0.0,2.2764,2.2883,2.2719,2.3476,2.4487,2.519,2.5659,2.6061,2.6698,2.6198,2.5794,2.6452,2.6258,2.6183,2.6866,2.7315,2.749,2.7163,2.7128,2.696,0.0,0.0,0.0,0.0,0.0,0.0,0.0,0.0,0.0,0.0,0.0,0.0,0.0,0.0,2.7002,2.7002,2.6675,2.6499,2.6499,2.6499,2.6499,2.6487,2.5908,2.5638,2.5691,2.5167,0.0,0.0,0.0,0.0,0.0,2.5007,2.5119,2.4766,2.5231,2.5398,2.5342,2.4879,2.5007,2.5315,0.0,0.0,0.0,0.0,0.0,0.0,0.0,1.4363,1.5875,1.7147,1.9874,2.2432,2.434,2.5707,2.6757,2.7465,0.0,0.0,0.0,0.0,0.0,0.0,0.0,0.0,0.0,2.5504,2.5728,2.6191,2.556,2.5091,2.487,2.6492,2.6541,2.5328,2.6948,0.0,0.0,0.0,0.0,0.0,0.0,0.0,0.0,0.0,0.0,0.0,0.0,0.0,0.0,0.0,0.0,0.0,0.0,0.0,0.0,0.0,0.0,0.0,0.0,2.3279,2.3594,2.4737,2.514,2.5304,2.5494,2.554,0.0,2.6437,2.6557,2.6752,2.7525,2.763,2.7412,2.6825,2.6734,2.6867,0.0,2.7403,0.0,0.0,0.0,0.0,0.0,0.0,0.0,0.0,0.0,0.0,0.0,0.0,2.6641,2.6692,2.662,2.6586,2.6499,2.6555,2.6543,2.6424,2.5946,2.5775,2.5827,2.5335,0.0,0.0,0.0,0.0,0.0,2.5508,2.5536,2.5481,2.5536,2.5563,2.5563,2.5508,2.5508,2.5563,0.0,0.0,0.0,0.0,0.0,0.0,0.0,0.0,0.0,0.0,1.8729,2.0632,2.2923,2.4349,2.5605,0.0,0.0,0.0,0.0,0.0,0.0,0.0,0.0,0.0,0.0,2.5226,2.5656,2.5984,2.6364,2.6153,2.5443,2.705,2.7145,2.6046,2.7649,0.0,0.0,0.0,0.0,0.0,0.0,0.0,0.0,0.0,0.0,0.0,0.0,2.5929,0.0,0.0,0.0,0.0,0.0,0.0,0.0,0.0,2.3487,2.2705,2.2809,0.0,2.3315,2.2689,2.3655,2.4777,0.0,2.4844,2.5173,2.6348,2.6183,2.6348,2.8053,2.7959,2.7878,2.875,2.8886,2.8866,2.8813,0.0,0.0,0.0,0.0,0.0,0.0,0.0,0.0,0.0,0.0,0.0,0.0,0.0,2.7872,2.8414,2.7899,2.7287,2.6521,2.7095,2.6876,2.582,2.6501,2.6287,2.5291,2.5324,0.0,0.0,0.0,0.0,2.5481,2.6628,2.6759,2.6283,2.6864,2.7071,2.6993,2.6443,2.6602,2.6993,0.0,0.0,0.0,0.0,0.0,0.0,0.0,0.0,0.0,0.0,0.0,0.0,0.0,0.0,0.0,0.0,0.0,0.0,0.0,0.0,0.0,0.0,0.0,0.0,2.4378,2.5336,2.5852,2.5906,2.656,2.6572,2.6055,2.7399,2.7503,2.6596,2.7345,2.7811,0.0,0.0,0.0,0.0,0.0,0.0,0.0,0.0,0.0,0.0,2.5002,2.4926,0.0,2.551,2.6078,2.6617,0.0,0.0,0.0,0.0,2.3678,2.3054,2.2777,2.3371,2.3952,2.3569,2.4279,2.5053,2.5053,2.4829,2.4814,2.5516,2.5644,2.6033,2.7425,2.7405,2.7585,2.8906,2.9131,0.0,0.0,0.0,0.0,0.0,0.0,0.0,0.0,0.0,0.0,0.0,0.0,0.0,0.0,0.0,2.8026,2.8085,2.8026,2.7895,2.767,2.7784,2.7458,2.6711,2.6728,2.6526,2.611,2.598,0.0,0.0,0.0,0.0,2.6481,2.7265,2.7357,2.7034,2.7433,2.76,2.7534,2.7152,2.7255,2.7534,0.0,0.0,0.0,0.0,0.0,0.0,0.0,0.0,0.0,0.0,0.0,0.0,0.0,0.0,0.0,0.0,0.0,0.0,0.0,0.0,0.0,0.0,0.0,2.4488,2.4518,2.5421,2.5899,2.585,2.6338,2.6557,2.6508,2.764,2.7886,2.7376,2.7044,2.7446,0.0,0.0,0.0,0.0,0.0,0.0,0.0,0.0,0.0,0.0,0.0,0.0,0.0,2.4956,2.551,2.5719,2.5501,0.0,0.0,0.0,0.0,0.0,2.3096,2.4036,2.5155,2.5275,2.5529,2.5734,2.563,2.5158,2.4754,2.4754,2.5277,2.5959,2.6641,2.6826,0.0,0.0,0.0,0.0,0.0,0.0,0.0,0.0,0.0,0.0,0.0,0.0,0.0,0.0,0.0,0.0,0.0,0.0,0.0,2.7541,2.7905,2.8424,2.91,2.8497,2.8039,2.7723,2.6938,2.6778,2.7163,2.6821,2.7008,0.0,0.0,0.0,2.76,2.76,2.76,2.76,2.76,2.76,2.76,2.76,2.76,2.76,0.0,0.0,0.0,0.0,0.0,0.0,0.0,0.0,0.0,0.0,0.0,0.0,0.0,0.0,0.0,0.0,0.0,0.0,0.0,0.0,0.0,0.0,2.5124,2.4586,2.4964,2.4728,2.4936,2.5658,2.5901,2.6201,2.6521,2.812,2.8971,2.9178,2.8562,2.81,2.776,0.0,0.0,0.0,0.0,0.0,0.0,0.0,0.0,0.0,0.0,0.0,0.0,2.4029,2.5031,2.6243,2.5113,0.0,0.0,0.0,0.0,0.0,2.4179,2.5682,2.6659,2.4518,2.523,2.6303,2.5734,2.5516,2.5442,2.5442,2.5974,2.6632,2.733,2.7914,2.8547,0.0,0.0,0.0,0.0,0.0,0.0,0.0,0.0,0.0,0.0,0.0,0.0,0.0,0.0,0.0,0.0,0.0,0.0,2.9949,2.9018,2.8825,2.9504,2.9233,2.8218,2.6485,2.7657,2.7686,2.664,2.7181,2.7484,0.0,0.0,2.76,2.76,2.76,2.76,2.76,2.76,2.76,2.76,2.76,2.76,2.76,0.0,0.0,0.0,0.0,0.0,0.0,0.0,0.0,0.0,0.0,0.0,0.0,0.0,0.0,0.0,0.0,0.0,0.0,0.0,0.0,0.0,2.7126,2.6103,2.5412,2.5107,2.4762,2.4925,2.5598,2.6021,2.6327,2.6508,2.7076,2.7674,2.8318,2.773,2.7525,2.7625,2.791,0.0,0.0,0.0,0.0,0.0,0.0,0.0,0.0,0.0,0.0,0.0,0.0,2.5001,2.5899,2.4903,0.0,0.0,0.0,0.0,0.0,2.3984,2.5525,2.6762,2.5573,2.6773,2.8128,2.7829,2.72,2.6572,2.6213,2.6635,2.7184,0.0,0.0,2.9012,3.0468,0.0,0.0,0.0,0.0,0.0,0.0,0.0,0.0,0.0,0.0,0.0,0.0,0.0,0.0,0.0,0.0,0.0,0.0,2.8712,2.8562,2.8528,2.8781,2.844,2.7501,2.7876,2.772,2.7126,2.7433,2.76,2.76,0.0,2.76,2.76,2.76,2.76,2.76,2.76,2.76,2.76,2.76,2.76,2.76,0.0,0.0,0.0,0.0,0.0,0.0,0.0,0.0,0.0,0.0,0.0,0.0,0.0,0.0,0.0,0.0,0.0,0.0,0.0,0.0,2.76,2.76,2.6878,2.6188,2.5562,2.5091,2.519,2.5799,2.6135,2.6463,2.679,2.654,2.6848,2.7507,2.6973,2.705,2.76,2.76,2.76,0.0,0.0,0.0,0.0,0.0,0.0,0.0,0.0,0.0,0.0,0.0,0.0,0.0,0.0,0.0,0.0,2.4148,2.3729,2.3625,2.3789,2.5152,2.6561,2.6606,2.7884,2.9217,2.9532,2.8688,2.7714,2.7382,2.7936,0.0,0.0,2.8521,0.0,3.1722,0.0,0.0,0.0,0.0,0.0,0.0,0.0,0.0,0.0,0.0,0.0,0.0,0.0,0.0,0.0,0.0,0.0,0.0,2.8173,2.8113,2.76,2.8124,2.8368,2.8353,2.7854,2.76,2.76,2.76,2.76,2.76,2.76,2.76,2.76,2.76,2.76,2.76,2.76,2.76,2.76,2.76,2.76,2.76,0.0,0.0,0.0,0.0,0.0,0.0,0.0,0.0,0.0,0.0,0.0,0.0,0.0,0.0,0.0,0.0,0.0,0.0,0.0,0.0,2.76,2.76,2.6878,2.6606,2.6861,2.5681,2.5516,2.6436,2.5933,2.6335,2.7624,2.7903,2.8108,2.8196,2.7662,2.7486,2.76,2.76,2.76,2.754,0.0,0.0,0.0,0.0,0.0,0.0,0.0,0.0,0.0,0.0,0.0,0.0,0.0,0.0,2.4649,2.456,2.4081,2.3744,2.435,2.5439,2.645,2.6567,2.718,2.8064,2.9322,2.9027,2.8698,2.9264,3.0409,0.0,0.0,2.9886,3.1031,3.3125,0.0,0.0,0.0,0.0,0.0,0.0,0.0,0.0,0.0,0.0,0.0,0.0,0.0,0.0,0.0,0.0,0.0,0.0,0.0,2.7645,2.76,2.7645,2.766,2.766,2.7615,2.76,2.76,2.76,2.76,2.76,2.76,2.76,2.76,2.76,2.76,2.76,2.76,2.76,2.76,2.76,2.76,2.76,0.0,0.0,0.0,0.0,0.0,0.0,0.0,0.0,0.0,0.0,0.0,0.0,0.0,0.0,0.0,0.0,0.0,0.0,0.0,0.0,2.7165,2.7585,2.7331,2.7178,2.7187,2.6131,2.613,2.7263,2.703,2.7196,2.771,2.7639,2.7844,2.8254,2.7289,2.7164,2.76,2.76,2.76,2.754,2.6881,0.0,0.0,0.0,0.0,0.0,0.0,0.0,0.0,0.0,2.4828,2.5016,2.4609,2.4517,2.453,2.4096,2.3804,2.3655,2.3924,2.5194,2.6561,2.7049,2.7636,2.8467,2.9884,3.0641,3.1098,3.1401,3.2168,0.0,0.0,0.0,3.3112,0.0,0.0,0.0,0.0,0.0,0.0,0.0,0.0,0.0,0.0,0.0,0.0,0.0,0.0,0.0,0.0,0.0,0.0,0.0,0.0,2.76,2.76,2.76,2.76,2.76,2.76,2.76,2.76,2.76,2.76,2.7595,2.7504,2.749,2.7468,2.7388,2.7633,2.8077,2.8545,2.8717,2.8717,2.8717,2.8717,2.8717,0.0,0.0,0.0,0.0,0.0,0.0,0.0,0.0,0.0,0.0,0.0,0.0,0.0,0.0,0.0,0.0,0.0,0.0,0.0,2.6168,2.6572,2.7255,2.7285,2.742,2.7702,2.6581,2.6489,2.749,2.7746,2.7746,2.7464,2.7357,2.7668,2.824,2.7045,2.7021,2.7899,2.7465,2.7285,2.724,2.6767,2.6403,0.0,0.0,0.0,0.0,0.0,0.0,0.0,0.0,2.491,2.4947,2.4706,2.4689,2.4747,2.4493,2.4438,2.4459,2.4459,2.5545,2.6804,2.7347,2.8217,2.9275,3.0593,3.1558,3.2369,3.308,3.3348,3.346,3.3427,0.0,0.0,0.0,0.0,0.0,0.0,0.0,0.0,0.0,0.0,0.0,0.0,0.0,0.0,0.0,0.0,0.0,0.0,0.0,0.0,0.0,0.0,2.8174,2.8174,2.8174,2.8174,2.8174,2.8174,2.7968,2.7585,2.7559,2.7542,2.7537,2.7628,2.7663,2.7677,2.7581,2.7854,2.8339,2.8856,2.9048,2.9016,2.8786,2.8856,2.9048,0.0,0.0,0.0,0.0,0.0,0.0,0.0,0.0,0.0,0.0,0.0,0.0,0.0,0.0,0.0,0.0,0.0,0.0,2.4514,2.5217,2.5899,2.6557,2.6587,2.7215,2.8562,2.7031,2.6455,2.6973,2.7867,2.7838,2.7019,2.7357,2.7792,2.824,2.7045,2.7284,2.8487,2.7156,2.6587,2.6572,2.6572,2.6114,0.0,0.0,0.0,0.0,0.0,0.0,0.0,0.0,2.4122,2.4215,2.4898,0.0,0.0,2.5987,2.6234,2.6298,2.6298,2.6688,2.7153,2.7348,2.8758,3.0362,3.1302,3.1527,3.2117,3.4178,3.3968,3.388,3.5312,0.0,0.0,0.0,0.0,0.0,0.0,0.0,0.0,0.0,0.0,0.0,0.0,0.0,0.0,0.0,0.0,0.0,0.0,0.0,0.0,0.0,0.0,0.0,2.9406,2.9406,2.939,2.939,2.939,2.8748,2.7605,2.7469,2.7404,2.7427,2.8028,2.8275,2.8275,2.8297,2.8297,2.8297,2.8297,2.8313,2.8233,2.7482,2.7679,2.8313,0.0,0.0,0.0,0.0,0.0,0.0,0.0,0.0,0.0,0.0,0.0,0.0,0.0,0.0,0.0,0.0,0.0,0.0,2.3874,2.4563,2.5397,2.6542,2.6587,2.7016,2.7884,2.7417,2.6624,2.5458,2.6849,2.74,2.715,2.8391,2.882,2.85,2.8142,2.7694,2.7156,2.6752,2.6318,2.5899,2.5899,2.5705,0.0,0.0,0.0,0.0,0.0,0.0,0.0,0.0,0.0,0.0,2.4839,0.0,2.525,2.5438,2.5522,2.5541,2.5541,2.6314,2.7245,2.782,2.9429,3.1219,3.2526,3.3244,3.3933,0.0,3.5116,3.4906,3.4844,0.0,0.0,0.0,0.0,0.0,0.0,0.0,0.0,0.0,0.0,0.0,0.0,0.0,0.0,0.0,0.0,0.0,0.0,0.0,0.0,0.0,0.0,0.0,2.9406,2.8888,2.8632,2.8632,2.811,2.7951,2.8097,2.805,2.7753,2.7257,2.7296,2.7326,2.7346,2.7769,2.7956,2.8006,2.8558,2.8793,2.8777,2.8541,2.8591,2.8793,0.0,0.0,0.0,0.0,0.0,0.0,0.0,0.0,0.0,0.0,0.0,0.0,0.0,0.0,0.0,0.0,0.0,0.0,0.0,0.0,2.4807,2.6138,2.6198,2.6495,2.7148,2.7178,2.6326,2.461,2.6169,2.6919,2.6947,2.7895,2.8447,2.8592,2.8308,2.7739,2.6971,2.6422,2.5824,2.5187,2.5187,2.5129,2.5056,0.0,0.0,0.0,0.0,0.0,0.0,0.0,0.0,0.0,2.468,2.4794,2.4979,2.5275,2.557,2.5932,2.6541,2.7276,2.8165,2.9502,3.074,3.2087,3.3858,0.0,0.0,0.0,3.5363,3.5131,3.4962,0.0,0.0,0.0,0.0,0.0,0.0,0.0,0.0,0.0,0.0,0.0,0.0,0.0,0.0,0.0,0.0,0.0,0.0,0.0,0.0,0.0,0.0,0.0,3.0123,2.9382,2.9022,2.9022,2.8261,2.7983,2.8078,2.7855,2.7506,2.7086,2.721,2.7271,2.7306,2.7986,2.8077,2.7858,2.8332,2.8518,2.8484,2.8197,2.8282,2.8518,0.0,0.0,0.0,0.0,0.0,0.0,0.0,0.0,0.0,0.0,1.9849,0.0,0.0,0.0,0.0,0.0,0.0,0.0,0.0,0.0,2.4127,2.5555,2.5719,2.6041,2.6587,2.659,2.5919,2.4509,2.5783,2.6363,2.6283,2.6515,2.7231,2.8394,2.7844,2.7525,2.733,2.5989,2.5023,2.4425,2.4365,2.4258,2.422,2.489,0.0,0.0,0.0,0.0,0.0,0.0,0.0,0.0,2.4592,2.4592,2.4728,2.5406,2.6065,2.6911,2.84,2.884,2.9416,3.1565,3.2259,3.297,3.5092,3.56,3.56,3.56,0.0,3.481,0.0,0.0,0.0,0.0,0.0,0.0,0.0,0.0,0.0,0.0,0.0,0.0,0.0,0.0,0.0,0.0,0.0,0.0,0.0,0.0,0.0,0.0,0.0,0.0,3.1106,3.0311,2.9886,0.0,2.9127,2.8399,2.7671,2.7201,2.6961,2.6897,2.746,2.7705,2.7756,2.8484,2.8366,2.7705,2.7705,2.7705,2.7621,2.6945,2.7131,2.7705,0.0,0.0,0.0,0.0,0.0,0.0,0.0,0.0,0.0,0.0,0.0,0.0,0.0,0.0,0.0,0.0,0.0,0.0,0.0,0.0,2.3699,2.5531,2.6602,2.7225,2.7357,2.7357,2.6916,2.6041,2.5755,2.5342,2.4794,2.6509,2.7165,2.6977,2.7405,2.7031,2.5944,2.4597,2.367,2.3056,2.2532,2.2314,2.2339,2.2844,2.3355,0.0,0.0,0.0,0.0,0.0,0.0,0.0,2.5372,2.5372,2.5389,2.5542,2.571,2.6048,2.6945,2.7621,2.8449,3.0159,3.1884,3.3592,3.5228,3.56,3.56,3.56,3.5464,0.0,0.0,0.0,0.0,0.0,0.0,0.0,0.0,0.0,0.0,0.0,0.0,0.0,0.0,0.0,0.0,0.0,0.0,0.0,0.0,0.0,0.0,0.0,0.0,3.0345,3.0345,2.8973,2.8297,0.0,2.7554,2.7097,2.6962,2.7397,2.7277,2.674,2.6877,2.6945,2.6945,2.7114,2.708,2.6945,2.6945,2.6945,2.6911,2.6759,2.6793,2.6945,0.0,0.0,0.0,0.0,0.0,0.0,0.0,0.0,0.0,0.0,0.0,0.0,0.0,0.0,0.0,0.0,0.0,0.0,0.0,0.0,2.3585,2.5531,2.6896,2.76,2.76,0.0,0.0,0.0,2.5485,2.5087,2.5384,2.6147,2.6678,2.7034,2.708,2.6378,2.5053,2.4029,2.3056,2.2194,2.1829,2.1695,2.1734,2.1983,2.2278,2.2701,2.3467,0.0,0.0,0.0,0.0,0.0,0.0,0.0,2.456,2.456,2.4797,2.5304,2.6387,2.752,2.8907,3.114,3.256,3.3694,3.4827,3.4788,3.4535,3.4535,3.5109,0.0,0.0,0.0,0.0,0.0,0.0,0.0,0.0,0.0,0.0,0.0,0.0,0.0,0.0,0.0,0.0,0.0,0.0,0.0,0.0,3.119,0.0,0.0,3.0311,2.9939,2.9583,2.8382,2.7807,2.779,2.7046,2.6691,2.6708,2.7097,2.7063,2.6691,2.6691,2.6691,2.6691,2.6691,2.6691,2.6691,2.6691,2.6691,2.6691,2.6691,2.6691,2.6691,0.0,0.0,0.0,0.0,0.0,0.0,0.0,0.0,0.0,0.0,0.0,0.0,0.0,0.0,0.0,0.0,0.0,0.0,0.0,2.2109,2.3597,2.5188,2.6538,2.7255,0.0,0.0,0.0,0.0,2.5099,2.5268,2.6669,2.5806,2.6142,2.7378,2.6703,2.5749,2.4545,2.3655,2.2592,2.1515,2.1395,2.135,2.135,2.135,2.1469,2.168,2.217,2.2708,2.3392,2.4529,0.0,0.0,0.0,0.0,2.3408,2.3481,2.3875,2.4625,2.6011,2.7691,2.9653,3.2357,3.3119,3.3406,3.4134,3.3846,3.3406,3.3406,0.0,0.0,0.0,0.0,0.0,0.0,0.0,0.0,0.0,0.0,0.0,0.0,0.0,0.0,0.0,0.0,0.0,0.0,0.0,0.0,3.119,3.1072,3.0734,3.0125,2.9835,2.9414,2.8807,2.801,2.7604,2.7604,2.6996,2.6691,2.6691,2.6691,2.6691,2.6691,2.6691,2.6691,2.6691,2.6691,2.6691,2.6691,2.6691,2.6691,2.6691,2.6691,2.6691,2.6691,0.0,0.0,0.0,0.0,0.0,0.0,0.0,0.0,0.0,0.0,2.0708,2.1232,2.0742,1.9748,0.0,0.0,0.0,0.0,2.072,0.0,0.0,2.3925,2.5192,2.5869,0.0,0.0,0.0,2.5726,2.4888,2.5519,2.7418,2.61,2.5897,2.6611,2.6006,2.5307,2.4485,2.2712,2.1515,2.0778,2.0198,1.9977,1.9977,1.9977,2.0531,2.1422,2.1954,2.2781,2.372,2.4356,2.4544,0.0,0.0,0.0,0.0,2.3746,2.3705,2.3788,2.4932,2.7076,2.9399,3.1072,3.1968,3.2649,0.0,0.0,3.3406,0.0,0.0,0.0,0.0,0.0,0.0,0.0,0.0,0.0,0.0,0.0,0.0,0.0,0.0,0.0,0.0,0.0,0.0,0.0,0.0,0.0,3.119,3.0598,3.019,3.0108,2.8804,2.806,2.7959,2.7215,2.6843,2.6843,2.6742,2.6691,2.6691,2.6691,2.6691,2.6691,2.6691,2.6691,2.6691,2.6691,2.6691,2.6691,2.6691,2.6691,2.6691,2.6691,2.6691,2.6691,0.0,0.0,0.0,0.0,0.0,0.0,0.0,0.0,0.0,0.0,0.0,2.0968,2.0717,1.9936,0.0,0.0,0.0,0.0,1.9819,2.1637,0.0,0.0,0.0,0.0,0.0,0.0,0.0,2.5038,2.3615,2.4532,2.757,2.6204,2.6512,2.8184,2.6793,2.5794,2.5008,2.2682,2.1321,2.0643,1.9959,2.0157,2.0741,1.9992,2.0466,2.1492,2.12,2.1564,2.2329,2.3204,2.3666,2.3881,2.3881,0.0,0.0,0.0,2.344,2.4047,2.5779,2.7255,2.8848,3.1,3.1627,3.2052,3.3231,3.3198,3.2903,0.0,0.0,0.0,0.0,0.0,0.0,0.0,0.0,0.0,0.0,0.0,0.0,0.0,0.0,0.0,0.0,0.0,0.0,0.0,0.0,3.1021,3.0615,3.0294,2.97,2.8838,2.8145,2.7604,2.7199,2.686,2.6691,2.6691,2.6691,2.6691,2.6691,2.6691,2.6691,2.6691,2.6691,2.6691,2.6691,2.6691,2.6824,2.7052,2.7052,2.7178,2.7363,2.7363,2.7241,2.7052,0.0,0.0,0.0,0.0,0.0,0.0,0.0,0.0,0.0,0.0,0.0,0.0,2.0691,0.0,0.0,0.0,0.0,0.0,1.8875,0.0,0.0,0.0,0.0,0.0,0.0,0.0,2.393,2.3857,2.2577,2.3811,2.733,2.6318,2.7365,2.9983,2.7814,2.6288,2.5187,2.2921,2.156,2.0917,2.0408,2.0816,2.164,2.1122,2.1523,2.2273,2.1497,2.1403,0.0,0.0,0.0,0.0,0.0,0.0,0.0,0.0,0.0,2.4226,2.6005,2.6965,2.8038,3.0243,3.1038,3.16,0.0,0.0,3.2501,0.0,0.0,0.0,0.0,0.0,0.0,0.0,0.0,0.0,0.0,0.0,0.0,0.0,0.0,0.0,0.0,0.0,0.0,0.0,0.0,3.0869,3.0142,2.9922,2.9193,2.7841,2.7621,2.7266,2.6725,2.6691,2.6691,2.6691,2.6691,2.6691,2.6708,2.6808,2.6808,2.6708,2.6808,2.6841,2.6857,2.6954,2.7178,2.7439,2.7439,2.7651,2.7897,2.7897,2.7707,2.7439,0.0,0.0,0.0,0.0,0.0,0.0,0.0,0.0,0.0,0.0,0.0,0.0,2.0691,1.971,1.9033,0.0,0.0,0.0,0.0,0.0,0.0,0.0,0.0,0.0,0.0,2.2469,2.2469,2.1844,2.2388,2.4021,2.6632,2.6572,2.8278,3.1286,2.8682,2.6467,2.456,2.3206,2.2269,2.1635,2.1605,2.1635,2.1894,2.3594,2.4209,2.4121,2.382,0.0,0.0,0.0,0.0,0.0,0.0,2.2347,2.2453,0.0,0.0,0.0,2.4322,2.557,2.6961,2.78,2.968,3.1319,0.0,0.0,0.0,0.0,0.0,0.0,0.0,0.0,0.0,0.0,0.0,0.0,0.0,0.0,0.0,0.0,0.0,0.0,0.0,0.0,0.0,0.0,0.0,3.0869,3.0142,2.9431,2.867,2.7824,2.7131,2.6725,2.6691,2.6691,2.6691,2.6691,2.6691,2.6691,2.6708,2.7099,2.7051,2.6725,2.7099,2.7272,2.7303,2.7678,2.7855,2.7869,2.7869,2.7883,2.7897,2.7897,2.7883,2.7869,0.0,0.0,0.0,0.0,0.0,0.0,0.0,0.0,0.0,0.0,0.0,0.0,0.0,1.9761,1.956,1.9631,1.8793,0.0,0.0,0.0,0.0,0.0,0.0,0.0,0.0,2.254,2.2324,2.1066,2.1129,2.2596,2.5315,2.4881,2.5989,2.8323,2.7365,2.6806,2.6348,2.3796,2.2568,2.2343,2.2343,2.2832,2.3601,2.3837,2.4425,2.5104,2.4828,0.0,0.0,0.0,0.0,0.0,2.2296,2.2296,2.2415,2.3026,2.3588,2.4109,2.4502,2.5229,2.623,2.7802,2.9395,3.0853,3.19,3.2766,0.0,0.0,0.0,0.0,0.0,0.0,0.0,0.0,0.0,0.0,0.0,0.0,0.0,0.0,0.0,0.0,0.0,0.0,0.0,0.0,0.0,0.0,2.9448,2.9145,2.8417,2.7131,2.6843,2.6691,2.6691,2.6691,2.6691,2.6691,2.6691,2.6841,2.7083,2.7224,2.7348,2.7485,2.7848,2.7733,2.7317,2.7722,2.8037,2.8224,2.8224,2.8386,2.8614,2.8614,2.8438,2.8224,0.0,0.0,0.0,0.0,0.0,0.0,0.0,0.0,0.0,1.9107,0.0,0.0,0.0,0.0,2.0383,2.0298,1.9454,1.8633,1.8004,0.0,0.0,0.0,0.0,0.0,0.0,2.2428,2.2196,2.0887,2.0727,2.1857,2.4157,2.3576,2.4358,2.6243,2.5593,2.5908,2.6776,2.4343,2.3212,2.3053,2.3474,2.4143,2.4947,2.5387,2.5937,2.6472,0.0,0.0,0.0,0.0,0.0,0.0,2.275,2.2647,2.2686,2.3087,2.3671,2.4261,2.4529,2.4991,2.5782,0.0,2.8797,3.0155,3.1482,0.0,0.0,0.0,0.0,0.0,0.0,0.0,0.0,0.0,0.0,0.0,0.0,0.0,0.0,0.0,0.0,0.0,0.0,0.0,0.0,0.0,0.0,0.0,2.9279,2.9066,2.837,2.6957,2.6906,2.6971,2.7099,2.6971,2.6971,2.7099,2.6971,2.7115,2.7517,2.7616,2.7747,2.7926,2.8399,2.825,2.7704,2.8088,2.8399,2.859,2.859,2.8761,2.9005,2.9005,2.8839,2.859,0.0,0.0,0.0,0.0,0.0,0.0,0.0,0.0,2.013,1.9702,0.0,0.0,0.0,0.0,0.0,2.0983,2.049,1.9886,1.9204,1.9753,0.0,0.0,0.0,0.0,2.1739,2.2118,2.1994,2.1286,2.1288,2.1966,2.3233,2.2838,2.3655,2.5435,2.3556,2.3751,2.548,2.4799,2.4178,2.3756,0.0,2.5512,2.5862,0.0,2.8936,0.0,2.8208,2.7629,0.0,2.5967,0.0,0.0,0.0,2.33,2.32,2.32,2.3671,2.419,0.0,0.0,0.0,0.0,0.0,0.0,3.0001,0.0,0.0,0.0,0.0,0.0,0.0,0.0,0.0,0.0,0.0,0.0,0.0,0.0,0.0,0.0,0.0,0.0,0.0,0.0,0.0,0.0,0.0,3.1132,2.9676,2.9194,2.8459,2.7338,2.7334,2.7517,2.7897,2.7515,2.7515,2.7897,2.75,2.753,2.7926,2.825,2.8237,2.7968,2.8688,2.8773,2.8446,2.8839,2.9005,2.9005,2.9005,2.9005,2.9005,2.9005,2.9005,2.9005,0.0,0.0,0.0,0.0,0.0,2.3732,2.2207,2.1842,2.1555,0.0,0.0,0.0,2.0729,2.1705,2.2339,2.2204,2.2172,2.1638,2.0473,2.0204,2.0471,2.131,2.1714,2.2066,2.2433,2.2669,2.2305,2.1286,2.1151,2.1338,2.184,2.1428,2.2054,2.3482,2.2942,2.3002,2.3467,2.2787,0.0,2.497,2.4787,2.5869,0.0,0.0,0.0,0.0,0.0,2.8852,2.7792,0.0,2.6826,2.5067,0.0,0.0,2.32,2.32,2.3671,2.419,2.419,0.0,0.0,0.0,0.0,0.0,0.0,0.0,0.0,0.0,0.0,0.0,0.0,0.0,0.0,0.0,0.0,0.0,0.0,0.0,0.0,0.0,0.0,0.0,0.0,0.0,0.0,0.0,3.1498,3.0595,2.9658,2.8435,2.7752,2.7725,2.7722,2.7797,2.7897,2.7797,2.7797,2.7897,2.7797,2.7922,2.8259,2.8368,2.8515,2.8718,2.8917,2.894,2.8839,2.8952,2.9005,2.9005,2.9005,2.9005,2.9005,2.9005,2.9005,2.9005,0.0,0.0,0.0,0.0,0.0,2.477,2.3634,2.2995,2.2506,0.0,0.0,0.0,2.2204,2.2945,2.3551,2.3879,2.3728,2.3155,2.2109,2.1743,2.1772,2.2217,2.2474,2.2765,2.3056,2.3319,2.2982,2.2005,2.1808,2.152,2.1163,2.0737,2.0865,2.1445,2.1445,2.161,2.1814,2.1141,0.0,0.0,2.5372,0.0,0.0,2.8924,2.9376,0.0,0.0,0.0,2.8982,2.9338,2.7943,0.0,0.0,0.0,0.0,2.3395,2.3916,0.0,0.0,0.0,0.0,0.0,0.0,0.0,0.0,2.9277,0.0,0.0,0.0,0.0,0.0,0.0,0.0,0.0,0.0,0.0,0.0,0.0,0.0,0.0,0.0,0.0,0.0,0.0,0.0,3.2793,3.1676,3.0433,2.9173,2.8117,2.7722,2.8102,2.8102,2.8201,2.8365,2.8183,2.8022,2.7862,2.7687,2.7805,2.8149,2.8149,2.8463,2.9005,2.9005,2.9005,2.9005,2.9005,2.9005,2.9005,2.9005,2.9005,2.9005,2.9005,2.9005,2.9005,0.0,0.0,2.6459,2.5941,2.5769,2.5403,2.435,2.3659,2.3296,0.0,2.2807,2.3064,2.4559,2.4584,2.4859,2.575,2.5128,2.4425,2.3759,2.364,2.3355,2.2823,2.331,2.3595,2.3595,2.3936,2.3781,2.3122,2.2834,2.218,2.1167,2.0581,2.0106,1.9764,1.9711,2.0034,2.0572,2.0109,0.0,2.36,2.6078,2.7566,0.0,0.0,3.0252,3.0253,3.0364,3.0319,3.0226,3.0123,2.8704,0.0,0.0,0.0,0.0,0.0,2.4377,0.0,2.4581,2.4417,0.0,0.0,0.0,0.0,2.7559,2.8096,0.0,0.0,0.0,0.0,0.0,0.0,0.0,0.0,0.0,0.0,0.0,0.0,0.0,0.0,0.0,0.0,0.0,3.3578,3.3652,3.3288,3.2067,3.0472,2.8507,2.8123,2.8102,2.8458,2.8458,2.8645,2.8994,2.8554,2.8149,2.7787,2.7349,2.7313,2.7658,2.7658,2.8117,2.8877,2.8877,2.8932,2.9005,2.9005,2.9005,2.9005,2.9005,2.9005,2.9005,2.9005,2.9005,2.9005,0.0,2.7079,2.7445,2.7327,2.6922,2.6349,2.5441,2.4833,2.4462,2.4462,2.4017,2.4447,2.6438,2.5798,2.5733,2.7086,2.6093,2.5113,2.4455,2.3909,2.355,2.343,2.3535,2.3595,2.3595,2.3936,2.4039,2.3893,2.3095,2.2584,2.2342,2.0936,2.0263,2.0176,1.9839,1.9783,1.9944,2.0902,0.0,2.3491,2.4502,0.0,2.9161,2.987,3.0485,3.0985,3.1004,3.101,3.0886,3.0311,2.9414,2.8282,0.0,0.0,0.0,2.4913,0.0,2.585,2.5687,0.0,0.0,0.0,0.0,0.0,2.6457,2.7112,2.783,0.0,0.0,0.0,0.0,0.0,0.0,0.0,0.0,0.0,0.0,0.0,0.0,0.0,0.0,0.0,0.0,3.3748,3.378,3.3694,3.2027,3.0226,2.8483,2.8335,2.8476,2.8863,2.8875,2.8917,2.9005,2.8269,2.7878,2.7787,2.7061,2.675,2.6833,2.6833,2.7273,2.8026,2.8026,2.8411,2.9005,2.9005,2.9005,2.9005,2.9005,2.9005,2.9005,2.9005,2.9005,2.9005,2.6408,2.7514,2.833,2.833,2.7779,2.7138,2.6723,2.58,2.531,2.5598,2.5398,2.5762,2.7056,2.6583,2.6722,2.7995,2.6871,2.5809,2.5128,2.447,2.3954,2.361,2.3595,2.3724,2.3991,2.4441,2.4588,2.4452,2.4249,2.3648,2.2682,2.1859,2.1388,2.1155,2.0364,2.0341,2.0891,0.0,2.169,2.3374,2.4823,0.0,2.8909,2.9838,3.0439,3.0797,3.1075,3.119,3.1089,3.0362,2.96,0.0,0.0,2.7246,2.7034,0.0,2.6191,2.6777,0.0,0.0,0.0,2.6049,0.0,0.0,0.0,0.0,2.7211,2.8102,0.0,0.0,0.0,0.0,0.0,0.0,0.0,0.0,0.0,0.0,0.0,0.0,0.0,0.0,0.0,3.3807,3.3391,3.2425,3.1609,3.0334,2.851,2.859,2.8785,2.8994,2.8601,2.8411,2.8411,2.7603,2.6998,2.6605,2.6201,2.5988,2.5988,2.5988,2.6429,2.7218,2.7622,2.8026,2.8429,2.8822,2.9005,2.9005,2.9005,2.9005,2.9005,2.9005,2.9005,2.9005,2.664,2.7797,2.8875,2.8875,2.8407,2.7943,2.7793,2.6902,2.6368,2.6684,2.6589,2.6832,2.7663,2.7393,2.7778,2.922,2.7769,2.6617,0.0,2.5187,2.441,2.3999,2.3744,2.3919,2.457,2.4993,2.5139,2.5036,2.5262,2.4572,2.3038,2.2663,2.2392,2.2182,2.1124,2.1283,2.2224,0.0,0.0,2.3882,0.0,2.7083,2.8222,2.9704,3.0261,3.0336,3.0965,3.119,3.1089,3.0362,0.0,2.9061,2.8094,2.8135,0.0,0.0,0.0,0.0,0.0,0.0,0.0,0.0,0.0,2.6244,0.0,0.0,0.0,2.8191,0.0,0.0,0.0,0.0,0.0,0.0,0.0,0.0,0.0,0.0,0.0,0.0,0.0,0.0,0.0,3.3421,3.2619,3.088,3.0879,3.0228,2.8594,2.8827,2.9005,2.9005,2.8374,2.7952,2.7798,2.6998,2.619,2.5393,2.5246,2.5172,2.5172,2.5172,2.5613,2.641,2.7053,2.7523,2.7842,2.8503,2.8858,2.9005,2.9005,2.9005,2.9005,2.9005,2.9005,2.9005,2.8097,2.824,2.8397,2.8397,2.8782,2.8854,2.8078,2.8351,2.8346,2.767,2.6939,2.7304,2.9458,2.8598,2.9007,3.1812,0.0,0.0,2.8233,0.0,2.4829,2.536,2.4238,2.4124,2.5255,2.5227,2.5416,2.5863,2.5027,2.4509,2.426,2.2538,2.2058,2.2603,2.2117,0.0,0.0,0.0,2.3957,0.0,2.6154,2.6631,0.0,2.9403,3.0131,3.0215,3.0934,3.119,3.1089,0.0,3.004,2.9736,0.0,2.8317,2.8641,0.0,0.0,0.0,0.0,0.0,0.0,0.0,2.7216,0.0,0.0,0.0,2.608,2.6307,0.0,0.0,0.0,0.0,0.0,0.0,0.0,0.0,0.0,0.0,0.0,0.0,0.0,0.0,0.0,0.0,3.128,3.0363,2.9654,2.9177,2.894,2.8982,2.9005,2.9005,2.8913,2.851,2.7816,2.6998,2.619,2.5393,2.4677,2.4337,2.4337,2.4337,2.4787,2.554,2.5631,2.6476,2.7816,2.7897,2.8356,2.9005,2.9005,2.9005,2.9005,2.9005,2.9005,2.9021,2.7858,2.8487,2.9042,2.9042,2.8883,2.8727,2.8744,2.9495,2.9783,2.9114,2.9006,2.9584,3.1118,0.0,0.0,0.0,0.0,2.9086,0.0,0.0,2.6275,2.6138,2.4874,2.4872,2.6354,2.5609,2.5598,2.6401,2.5983,2.5337,2.4474,2.3664,2.3453,2.3723,2.3325,0.0,2.5177,0.0,2.4606,0.0,0.0,0.0,0.0,2.9365,3.0426,3.0784,3.1089,3.119,3.1089,0.0,2.982,0.0,0.0,0.0,0.0,0.0,0.0,0.0,0.0,0.0,0.0,0.0,0.0,0.0,2.5512,0.0,2.5989,0.0,0.0,0.0,0.0,0.0,0.0,0.0,0.0,0.0,0.0,0.0,0.0,0.0,0.0,0.0,0.0,0.0,0.0,0.0,0.0,2.9005,2.9005,2.9005,2.9005,2.9005,2.8088,2.7446,2.7108,2.5841,2.5034,2.4695,2.4355,2.419,2.419,2.419,2.4373,2.4732,2.5191,2.6054,2.7145,2.7603,2.8282,2.9017,2.916,2.9145,2.9028,2.916,2.9225,2.9267,2.7545,2.8349,2.9052,2.9052,2.8687,2.8665,2.9493,3.0213,3.0564,3.0349,3.0484,0.0,3.2339,3.1498,0.0,0.0,3.1943,3.0726,0.0,0.0,2.7893,2.7901,2.6121,2.5928,2.7638,2.6398,2.6051,2.6691,2.6488,2.5845,2.4795,2.4389,2.4305,2.4492,2.4411,2.5229,2.6641,0.0,2.5874,2.6843,2.6868,2.7308,2.811,2.9665,3.0634,3.119,3.119,3.119,3.1089,3.0362,2.9736,0.0,2.9431,0.0,0.0,0.0,0.0,0.0,2.7739,0.0,0.0,0.0,0.0,0.0,0.0,0.0,0.0,0.0,0.0,0.0,0.0,0.0,0.0,0.0,0.0,0.0,0.0,0.0,0.0,0.0,0.0,0.0,0.0,0.0,0.0,0.0,0.0,0.0,2.8987,2.9005,2.8895,2.8675,2.7548,2.6722,2.6282,2.5107,2.442,2.419,2.419,2.419,2.419,2.419,2.419,2.4226,2.4824,2.554,2.6347,2.7203,2.8035,2.8776,2.903,2.914,2.9198,2.9134,2.9288,2.9476,2.7604,2.7619,2.766,2.766,2.8188,2.9014,3.0285,3.0382,3.0528,3.1089,0.0,0.0,0.0,0.0,0.0,0.0,0.0,3.2687,3.3311,0.0,2.9419,3.135,2.8227,2.729,0.0,2.7756,2.6924,2.6691,2.5981,2.5609,2.5525,2.4103,2.3831,0.0,2.5221,2.5981,2.6742,2.7418,2.8566,2.9886,2.9194,2.977,3.0987,0.0,3.0562,3.119,3.119,0.0,0.0,3.0362,3.0072,0.0,0.0,0.0,0.0,0.0,0.0,0.0,0.0,0.0,0.0,2.5866,0.0,0.0,0.0,0.0,2.6806,0.0,0.0,0.0,0.0,0.0,0.0,0.0,0.0,0.0,0.0,0.0,0.0,0.0,0.0,0.0,0.0,0.0,0.0,0.0,0.0,0.0,2.8932,2.9005,2.8638,2.786,2.7787,2.7008,2.5448,2.5393,2.497,2.419,2.419,2.419,2.419,2.419,2.419,2.419,2.4226,2.4695,2.5533,2.6507,2.741,2.8156,2.8357,2.8944,2.9584,2.8736,2.8971,2.9609,2.8248,2.8248,2.8113,2.7675,2.7794,2.8393,2.9684,3.0951,3.1989,0.0,0.0,0.0,0.0,3.4135,3.4201,0.0,0.0,3.397,3.4278,3.2394,0.0,0.0,0.0,2.9621,0.0,0.0,2.7709,2.7418,2.6691,2.6082,2.5576,2.4577,2.4254,2.4525,0.0,2.6269,0.0,0.0,0.0,0.0,0.0,2.989,3.1173,0.0,0.0,3.119,3.119,3.119,0.0,3.0362,2.9786,2.9279,2.8755,2.8096,2.7469,2.7452,2.7249,0.0,0.0,0.0,2.7135,2.6464,0.0,0.0,0.0,0.0,0.0,0.0,0.0,0.0,0.0,0.0,0.0,0.0,0.0,0.0,0.0,0.0,0.0,0.0,0.0,0.0,0.0,0.0,0.0,0.0,0.0,0.0,0.0,2.9089,2.862,2.7835,2.7273,2.6484,2.5411,2.4879,2.4475,2.419,2.419,2.419,2.419,2.419,2.419,2.4199,2.433,2.4856,2.5681,2.6686,2.756,2.8385,2.9158,2.9635,2.9806,2.897,2.9198,2.9893,2.8951,2.8757,0.0,0.0,0.0,2.8678,2.9771,3.139,0.0,0.0,3.3709,0.0,3.5385,0.0,3.5026,0.0,3.51,3.4771,3.4649,3.3823,0.0,3.4312,3.2632,0.0,0.0,3.0342,2.8932,2.823,0.0,2.6708,2.5981,2.5236,2.4897,2.4915,0.0,2.6657,2.7874,2.8941,2.9551,0.0,0.0,3.0364,0.0,0.0,3.119,3.119,0.0,3.119,3.1089,3.0362,2.9786,2.9314,2.8738,2.7892,2.7131,2.7351,2.708,2.6758,2.702,2.7083,0.0,2.6442,2.6009,0.0,2.6016,0.0,0.0,0.0,0.0,0.0,0.0,0.0,0.0,0.0,0.0,0.0,0.0,0.0,0.0,0.0,0.0,0.0,0.0,0.0,2.8536,2.8941,0.0,0.0,0.0,0.0,2.8603,2.7402,2.6869,2.608,2.4989,2.4456,2.419,2.419,2.4266,2.4312,2.4312,2.4384,2.44,2.4428,2.4561,2.4891,2.5479,2.6801,2.7661,2.8218,2.9272,2.9875,3.0047,2.9212,2.9232,2.9742,2.9651,0.0,0.0,0.0,2.9205,0.0,0.0,0.0,3.2706,0.0,3.4068,3.4773,3.5429,3.5504,3.5504,3.5504,3.5504,3.5238,3.4639,3.4678,0.0,0.0,3.4442,3.3966,3.4539,3.2374,3.055,0.0,0.0,0.0,2.6742,2.5964,2.5592,2.5626,2.6336,0.0,2.7908,2.9413,3.0497,3.119,3.119,3.119,3.119,3.119,3.119,3.119,3.119,3.119,3.1072,3.0311,3.0057,2.9786,2.8229,2.7756,2.7604,2.6911,2.6691,2.6691,2.6691,2.6691,2.6522,2.5845,0.0,0.0,0.0,0.0,2.8142,0.0,0.0,0.0,0.0,0.0,0.0,0.0,0.0,0.0,0.0,0.0,0.0,0.0,0.0,0.0,0.0,0.0,2.8286,2.9773,2.8264,0.0,0.0,0.0,2.8491,2.667,2.6605,2.5844,2.4227,2.4228,2.4228,2.4237,2.4409,2.452,2.4528,2.4716,2.4804,2.4804,2.4811,2.4818,2.4946,2.6796,2.7574,2.7701,2.871,2.9621,3.0308,2.9467,2.9165,2.928,3.0268,3.0133,3.0178,0.0,3.0118,2.9968,0.0,0.0,0.0,0.0,3.4068,3.4773,3.5429,3.5504,3.5504,3.5504,3.5504,0.0,0.0,0.0,0.0,3.719,3.586,3.5169,3.5312,3.3136,0.0,3.0632,0.0,0.0,2.7486,2.6201,2.5592,0.0,0.0,0.0,2.7874,2.8856,3.0025,3.119,3.119,3.119,0.0,0.0,3.119,3.119,3.119,3.119,3.1004,2.9721,2.9281,2.9008,2.7469,2.6979,2.6945,2.6759,2.6691,2.6691,2.6691,2.6691,2.664,2.6454,2.6063,2.5951,0.0,0.0,0.0,0.0,0.0,0.0,0.0,0.0,0.0,0.0,0.0,0.0,0.0,0.0,0.0,0.0,0.0,0.0,0.0,0.0,2.8647,2.8443,0.0,0.0,0.0,0.0,0.0,2.686,2.6822,2.6042,2.4428,2.4559,2.4647,2.4647,2.47,2.4723,2.4723,2.4775,2.4804,2.4811,2.491,2.4943,2.5051,2.6339,2.7245,2.7904,2.8764,2.9621,3.0365,3.0154,3.0077,3.0096,3.133,0.0,0.0,3.2813,0.0,0.0,3.2316,0.0,0.0,3.3365,3.4068,0.0,3.5011,3.5325,3.5504,3.5504,3.5504,0.0,3.5675,0.0,0.0,3.733,3.6856,3.6589,3.6614,3.4726,0.0,3.1684,0.0,0.0,2.7773,2.6607,0.0,0.0,0.0,2.6928,2.8399,2.9517,3.0448,3.119,3.119,0.0,0.0,3.119,3.119,3.119,3.119,3.119,3.1021,2.9871,2.9281,2.879,2.7571,2.6962,2.6691,2.6691,2.6691,2.6691,2.6691,2.6691,2.6691,2.6691,2.6387,2.6249,2.6885,2.6726,2.6795,0.0,0.0,0.0,0.0,0.0,0.0,0.0,0.0,0.0,0.0,0.0,0.0,0.0,0.0,0.0,0.0,0.0,0.0,0.0,0.0,0.0,0.0,0.0,0.0,2.6545,2.6854,2.6255,2.465,2.4746,2.4804,2.4804,2.4862,2.4884,2.4884,2.4975,2.5025,2.5012,2.5101,2.5141,2.5204,2.6186,2.7101,2.803,2.9217,2.9737,2.989,3.0269,3.0404,3.0404,3.2822,0.0,0.0,0.0,0.0,0.0,0.0,3.3426,0.0,3.3834,0.0,3.4922,3.4922,3.5466,3.5797,3.5797,0.0,3.554,3.4968,3.6091,3.6861,3.7062,3.7541,3.7875,3.8034,3.6428,0.0,0.0,0.0,2.9362,2.7942,2.7097,0.0,0.0,0.0,0.0,0.0,3.0463,3.1157,3.1345,3.1241,3.1309,3.1461,3.1258,3.1258,3.1326,3.1224,3.119,3.1089,3.0362,2.9668,2.901,2.8196,2.7452,2.6843,2.6843,2.6776,2.6691,2.6691,2.6691,2.6691,2.6691,2.6691,2.6708,2.6775,2.6791,2.7191,2.8644,2.8457,2.8441,0.0,0.0,0.0,0.0,0.0,0.0,0.0,0.0,0.0,0.0,0.0,0.0,0.0,0.0,0.0,0.0,0.0,0.0,0.0,0.0,0.0,2.6088,2.6718,0.0,2.484,0.0,2.4874,2.4874,2.4987,2.5034,2.504,2.5219,2.5308,2.5308,2.5308,2.5365,2.5538,2.6288,2.7178,2.8203,2.9654,2.9833,2.9357,2.9981,3.0308,3.0404,3.5197,0.0,0.0,0.0,0.0,3.5961,3.6901,3.5998,3.5467,3.6137,3.6809,3.7223,3.7223,3.7334,3.7383,3.7383,3.7383,0.0,0.0,0.0,0.0,3.8494,3.8044,3.8107,3.8802,3.6698,3.5092,0.0,3.1427,2.9651,2.8773,2.7368,0.0,0.0,0.0,0.0,2.9061,2.9922,0.0,3.2056,3.1427,3.1935,3.2882,3.1664,3.1562,3.2039,3.141,3.119,3.1089,3.0362,3.0004,2.9786,2.9025,2.8247,2.7604,2.7604,2.7182,2.6691,2.6691,2.6691,2.6691,2.6691,2.6691,2.6791,2.7115,2.7194,2.7369,2.797,2.8467,2.8792,2.8727,0.0,0.0,0.0,0.0,0.0,0.0,0.0,0.0,0.0,0.0,0.0,0.0,0.0,0.0,0.0,0.0,0.0,0.0,0.0,0.0,0.0,0.0,0.0,0.0,0.0,2.5217,2.5217,2.5243,2.5253,2.5253,2.5279,2.5308,2.5308,2.5308,2.5712,2.6385,2.6544,2.7505,2.8915,2.9204,2.9679,3.0096,2.9544,2.9775,3.0404,0.0,0.0,0.0,0.0,0.0,0.0,0.0,3.7968,0.0,3.6913,3.7078,3.7274,3.7274,3.7582,3.7793,3.7793,3.7793,3.7793,3.7793,3.7793,3.8149,3.8881,3.8552,0.0,3.9005,3.755,3.6045,3.4489,3.2307,3.0463,2.8976,0.0,0.0,0.0,0.0,2.8316,0.0,0.0,0.0,3.2293,3.2324,3.278,3.3288,3.2192,3.1989,3.2209,3.1464,3.119,3.114,3.0784,3.0429,3.004,2.9685,2.9042,2.8416,2.8416,2.8163,2.7893,2.7893,2.7588,2.7283,2.7283,2.6979,2.6808,2.721,2.7303,2.747,2.8047,2.8443,2.8681,2.8718,2.8863,0.0,0.0,0.0,0.0,0.0,0.0,0.0,0.0,0.0,0.0,0.0,0.0,0.0,0.0,0.0,0.0,0.0,0.0,0.0,0.0,0.0,0.0,0.0,0.0,0.0,2.5308,2.5308,2.5308,2.5308,2.5308,2.5308,2.5327,2.5788,2.5962,2.6,2.6909,2.7755,2.8569,2.9429,2.9756,2.9737,2.9756,3.0038,3.0404,0.0,3.8828,0.0,0.0,3.9361,0.0,3.8626,3.9378,3.9461,3.7731,3.7513,3.7513,3.7513,3.7978,3.829,3.829,3.829,3.829,3.829,3.829,3.8541,3.9139,3.9166,3.917,3.9225,3.8514,3.7094,0.0,0.0,3.1481,2.945,0.0,0.0,0.0,0.0,0.0,0.0,0.0,3.2479,3.2801,3.3366,3.3698,3.3761,3.2822,3.2496,3.2429,3.1512,3.119,3.119,3.119,3.0818,3.0345,3.0345,2.9837,2.923,2.923,2.9128,2.9011,2.9102,2.8607,2.8063,2.8066,2.7572,2.7143,2.7459,2.7527,2.7718,2.8394,2.854,2.8615,2.894,2.9005,0.0,0.0,0.0,0.0,0.0,0.0,0.0,0.0,0.0,0.0,0.0,0.0,0.0,0.0,0.0,0.0,2.6563,2.6601,0.0,0.0,0.0,2.6505,2.6327,0.0,2.5673,0.0,2.5673,2.5769,2.5577,2.5769,2.5846,2.5885,2.6582,2.6582,2.6231,2.7794,2.8429,2.8563,2.9885,2.9987,2.9467,3.0154,3.0404,3.041,0.0,0.0,0.0,0.0,0.0,0.0,0.0,4.0011,4.0028,3.98,3.98,3.98,3.98,3.9868,3.9876,3.9876,3.9876,3.9876,3.9876,3.9876,3.9901,3.9978,3.9995,3.9986,4.0011,3.9259,3.8125,0.0,0.0,3.251,3.0954,2.9551,0.0,0.0,0.0,0.0,0.0,3.2085,3.3072,3.4278,3.4169,3.4631,3.5226,3.3621,3.3125,3.3119,3.1698,3.119,3.119,3.119,3.114,3.1089,3.1089,3.0581,3.0006,3.0006,2.9516,2.9084,2.9437,2.9213,2.8902,2.895,2.8615,2.8246,2.8286,2.8298,2.842,2.8851,2.894,2.897,2.8994,2.9005,2.9005,0.0,0.0,0.0,0.0,0.0,0.0,0.0,0.0,0.0,0.0,0.0,0.0,0.0,0.0,0.0,0.0,2.6601,0.0,2.5442,0.0,2.6212,2.5423,2.6909,0.0,2.5327,2.6909,2.7236,2.6505,2.7294,2.7659,2.7659,2.7736,2.8145,2.8819,2.9769,3.0173,3.0173,3.0346,3.0346,3.0288,3.0365,3.0404,3.0402,0.0,0.0,0.0,0.0,0.0,0.0,0.0,4.0096,4.0096,4.0096,4.0096,4.0096,4.0096,4.0096,4.0096,4.0096,4.0096,4.0096,4.0096,4.0096,4.0096,4.0096,4.0096,4.0096,4.0096,3.9377,3.8481,0.0,0.0,3.4134,3.2977,3.1949,0.0,0.0,0.0,3.2422,3.2677,3.3971,3.4861,3.5436,3.5843,3.6241,3.6426,3.5265,3.4894,3.4826,3.3783,3.312,3.2701,3.2701,3.2187,3.1547,3.1547,3.1561,3.1551,3.1551,3.1324,3.1132,3.1301,3.0902,3.0326,2.9872,2.9294,2.8762,2.8452,2.8407,2.8509,2.8917,2.9005,2.9005,2.9005,2.9005,2.9005,0.0,0.0,0.0,0.0,0.0,0.0,0.0,0.0,0.0,0.0,0.0,0.0,0.0,0.0,0.0,0.0,0.0,0.0,2.6077,0.0,2.6678,2.6851,2.7544,2.7294,2.6096,2.6794,2.6659,2.5827,2.6173,2.6909,2.7895,2.7895,2.864,2.9871,2.9698,2.9929,3.0404,3.0404,3.0404,3.0396,3.0451,3.0462,3.0463,4.0146,0.0,4.0096,0.0,4.0096,4.0096,4.0096,4.0096,4.0096,4.0096,4.0096,4.0096,4.0096,4.0096,4.0096,4.0096,4.0096,4.0096,4.0096,4.0096,4.0096,4.0096,4.0237,0.0,4.0096,3.9922,3.9367,3.8461,3.7334,0.0,3.5448,0.0,0.0,0.0,3.4375,3.4571,3.4251,3.5738,3.6341,3.6413,3.7128,3.7323,3.714,3.6488,3.615,3.5899,3.5155,3.4534,3.4038,3.4038,3.3546,3.2809,3.2196,3.223,3.2501,3.2501,3.2501,3.2534,3.2665,3.2224,3.1604,3.1035,3.0251,2.9479,2.9039,2.8741,2.8658,2.894,2.9005,2.9005,2.9005,2.9005,2.9005,2.9005,0.0,0.0,0.0,0.0,0.0,0.0,2.8989,2.8591,2.7622,0.0,0.0,0.0,0.0,0.0,0.0,0.0,0.0,0.0,0.0,0.0,0.0,2.839,2.8082,2.6986,2.7486,2.725,2.6423,2.6673,2.7488,2.8651,2.8651,2.9346,3.0419,2.9786,2.9902,3.0452,3.0452,3.0452,3.0467,3.052,3.0529,3.0545,4.0248,4.0096,4.0096,4.0096,4.0096,4.0096,4.0096,4.0096,4.0096,4.0096,4.0096,4.0096,4.0096,4.0096,4.0096,4.0096,4.0096,4.0096,4.0096,4.0096,4.0096,0.0,0.0,4.0631,4.0121,4.1196,4.1104,3.9777,0.0,0.0,3.8422,0.0,3.7077,3.6755,3.7113,3.7024,3.6673,3.7022,3.7192,3.7229,3.7702,3.7614,3.7177,3.6892,3.6466,3.5899,3.5155,3.4888,3.4888,3.4888,3.518,3.5209,3.3128,3.2501,3.2501,3.2501,3.2501,3.2599,3.306,3.284,3.2501,3.2561,3.167,3.0663,3.0259,2.9555,2.8994,2.9005,2.9005,2.9005,2.9005,2.9005,2.9005,2.9005,0.0,0.0,0.0,0.0,0.0,0.0,2.7583,2.7335,2.7573,0.0,0.0,0.0,0.0,0.0,0.0,0.0,0.0,2.664,2.8203,0.0,2.7915,2.9538,2.9519,2.7895,2.9558,2.991,2.9088,2.9942,3.0392,3.0479,3.0479,3.0521,3.06,3.058,3.058,3.06,3.06,3.06,3.06,3.0603,3.0603,3.0614,4.0146,4.0096,4.0096,4.0096,4.0096,4.0096,4.0096,4.0096,4.0096,4.0096,4.0096,4.0096,4.0096,4.0096,4.0096,0.0,4.0096,4.0096,0.0,4.0424,4.0655,4.0655,4.1201,4.1424,4.1263,4.1599,4.1601,4.1165,0.0,0.0,0.0,3.9857,3.9638,3.9191,3.911,3.8804,3.8326,3.826,3.8218,3.8236,3.8401,3.835,3.8216,3.8125,3.7984,3.7816,3.7578,3.7124,3.6667,3.6667,3.6416,3.5966,3.5302,3.509,3.509,3.509,3.4676,3.4236,3.4385,3.3927,3.3265,3.2732,3.2321,3.1707,3.0467,2.9574,2.9005,2.9005,2.9005,2.9005,2.9005,2.9005,2.9189,2.9721,2.9983,0.0,0.0,0.0,0.0,0.0,0.0,2.8974,0.0,2.8426,0.0,0.0,0.0,0.0,0.0,0.0,0.0,0.0,2.8727,0.0,2.8937,2.9997,2.9997,2.8937,2.9458,2.9264,2.8443,2.9322,2.9725,2.9775,3.0331,3.0581,3.0603,3.0603,3.0603,3.0603,3.0603,3.0603,3.0611,3.0659,3.0673,3.068,4.0146,4.0096,4.0096,4.0096,4.0096,4.0096,4.0096,4.0096,4.0096,4.0096,4.0096,4.0096,4.0096,4.0096,0.0,4.0096,4.0096,4.0096,4.0096,4.0601,4.0903,4.0903,4.1703,4.2021,4.1793,0.0,0.0,4.2142,4.1882,4.1665,4.1505,4.1838,4.1674,4.1032,4.0886,4.0451,3.9832,3.9678,3.9441,3.9148,3.9148,3.8964,3.8707,3.8707,3.8707,3.8707,3.8707,3.8377,3.7936,3.7936,3.7624,3.7202,3.7202,3.7202,3.7074,3.6486,3.5665,3.5004,3.5004,3.4399,3.3678,3.3183,3.2821,3.2252,3.0944,3.0026,2.9537,2.9831,2.9647,2.9445,2.9445,2.9702,3.0007,3.03,3.049,3.0638,3.0748,0.0,0.0,0.0,0.0,0.0,0.0,2.906,0.0,0.0,0.0,0.0,0.0,0.0,0.0,2.8576,2.9408,0.0,2.985,3.0353,3.0353,2.985,2.985,2.9561,2.9063,2.9599,2.9866,2.9929,3.0414,3.0678,3.0716,3.0716,3.0716,3.0716,3.0716,3.0716,3.0719,3.0764,3.0771,3.0792,4.0231,4.0172,0.0,0.0,4.0146,0.0,4.0113,4.0096,4.0096,4.0096,4.0121,4.0171,4.0171,4.0179,4.0204,4.0204,0.0,0.0,0.0,4.0703,4.1018,4.1018,4.2142,4.2482,4.1937,4.2959,4.325,4.2769,4.325,4.3515,4.3515,4.3515,4.3094,4.2378,4.2323,4.1882,4.1168,4.1113,4.0671,3.9974,3.9974,3.9496,3.8799,3.8854,3.8836,3.8799,3.8854,3.8872,3.8872,3.8872,3.8872,3.8872,3.8872,3.8836,3.8487,3.6909,3.5862,3.5169,3.5114,3.4491,3.3862,3.3807,3.3201,3.2399,3.1641,3.0852,3.0497,3.1274,3.0821,3.0295,3.0324,3.095,3.1285,3.0868,3.0816,3.0879,3.109,0.0,0.0,0.0,0.0,0.0,0.0,2.909,2.9492,0.0,0.0,0.0,0.0,0.0,2.8524,2.9477,3.0233,3.062,3.062,3.062,3.062,3.062,3.062,3.062,3.062,3.062,3.0655,3.0718,3.0718,3.0772,3.0898,3.0898,3.0898,3.0918,3.0976,3.0996,3.0996,3.1055,3.1074,3.1074,0.0,0.0,4.1315,4.0273,4.0561,4.0747,4.0197,4.0096,4.0096,4.0096,4.0449,4.0726,4.0726,4.1127,4.1397,4.1397,4.099,4.0726,4.0726,4.1686,4.2264,4.2264,4.294,4.3232,4.3105,4.3356,4.3427,4.3303,4.3427,4.3515,4.3515,4.3515,4.3387,4.3185,4.2561,4.2194,4.1992,4.1352,4.0985,4.0836,4.0836,4.0341,3.968,4.0304,4.0157,3.9698,4.0306,4.0526,4.0526,4.0526,4.0526,4.0526,4.0526,4.012,3.9423,3.8414,3.7551,3.6762,3.6156,3.5371,3.4564,3.3954,3.3201,3.2546,3.2362,3.1696,3.1231,3.1618,3.1394,3.1241,3.165,3.1715,3.193,3.2616,3.2901,3.2843,3.2232,3.2134,0.0,0.0,2.9985,3.0023,3.001,3.0059,2.9916,0.0,0.0,0.0,0.0,2.937,2.9578,3.0521,3.0736,3.0833,3.0833,3.0833,3.0833,3.0833,3.0833,3.0833,3.0833,3.0833,3.0836,3.0858,3.0858,3.0878,3.0898,3.0898,3.0898,3.0976,3.1621,3.1894,3.1973,3.2578,3.2812,3.2812,4.1007,4.205,4.2637,4.1239,4.138,4.15,4.1064,4.0688,4.0552,4.0838,4.1127,4.1313,4.1313,4.1599,4.181,4.181,4.1512,4.1313,4.1313,4.2183,4.2711,4.2711,4.3214,4.3515,4.3515,4.3515,4.3515,4.3515,4.3515,4.3515,4.3515,4.3515,4.3515,4.3478,4.3039,4.2837,4.2818,4.2378,4.1992,4.1662,4.1662,4.1167,4.0506,4.093,4.082,4.0506,4.093,4.1095,4.1095,4.1095,4.1095,4.1095,4.1095,4.0802,4.0286,3.9478,3.8429,3.7401,3.6978,3.5954,3.4821,3.4009,3.3476,3.3185,3.3302,3.2723,3.2319,3.2986,3.2678,3.2398,3.2685,3.2955,3.3236,3.3524,3.3369,3.3085,3.2721,3.2154,0.0,3.1058,3.0635,3.0558,3.0962,3.0635,3.0235,2.9816,0.0,0.0,3.0031,3.0106,3.0368,3.0879,3.0898,3.0898,3.0898,3.0898,3.0898,3.0898,3.0898,3.0898,3.0898,3.0898,3.0898,3.0898,3.0898,3.0898,3.0898,3.0898,3.1133,3.1543,3.2012,3.2422,3.2793,3.3242,3.3398,3.3398,4.2314,4.3425,4.4023,4.2492,4.2386,4.2392,4.2096,4.1453,4.1223,4.1729,4.1874,4.1937,4.1937,4.2021,4.2062,4.2062,4.2062,4.2021,4.1937,4.2482,4.2826,4.2826,4.325,4.3515,4.3515,4.3515,4.3515,4.3515,4.3515,4.3515,4.3515,4.3515,4.3515,4.3515,4.3515,4.3515,4.3515,4.3515,4.3112,4.2488,4.2488,4.2011,4.1279,4.1407,4.1389,4.1297,4.1407,4.1462,4.1462,4.1462,4.1462,4.1462,4.1462,4.137,4.1113,4.0322,3.9035,3.7804,3.7566,3.6285,3.4853,3.4204,3.396,3.3923,3.4218,3.3747,3.3537,3.4553,3.414,3.362,3.3695,3.4283,3.4614,3.4135,3.3444,3.2928,3.291,0.0,3.0954,3.1459,3.0862,3.0708,3.1445,3.0865,3.0447,3.052,3.0578,3.0652,0.0,3.0837,3.0898,3.0898,3.0898,3.0898,3.0898,3.0898,3.0898,3.0898,3.0898,3.0898,3.0898,3.0898,3.0898,3.0898,3.0898,3.0898,3.0918,3.1035,3.1523,3.2226,3.248,3.2988,3.3613,3.373,3.3789,3.3789,4.3948,4.4943,4.5251,4.3209,4.3381,4.3358,4.2048,4.1731,4.1686,4.1789,4.2244,4.2577,4.2577,4.2958,4.3232,4.3232,4.3232,4.3032,4.2596,4.3069,4.3375,4.3375,4.3463,4.3515,4.3515,4.3515,4.3515,4.3515,4.3515,4.3515,4.3515,4.3515,4.3515,4.3515,4.3515,4.3515,4.3515,4.3515,4.3441,4.3296,4.3296,4.2818,4.2194,4.2873,4.2708,4.2194,4.2873,4.313,4.313,4.313,4.313,4.313,4.313,4.2653,4.1956,4.1148,4.0267,3.9237,3.7878,3.6285,3.5037,3.5206,3.4686,3.4218,3.4551,3.4538,3.4563,3.4943,3.4756,3.4643,3.5086,3.5103,3.5083,3.5199,3.5112,3.4531,3.3096,0.0,3.2054,3.0825,3.0568,3.0549,3.0665,3.0614,3.0571,3.0584,3.0655,3.074,3.0858,3.0898,3.0898,3.0898,3.0898,3.0898,3.0898,3.0898,3.0898,3.0898,3.0898,3.0898,3.0898,3.0898,3.0898,3.0898,3.0898,3.0898,3.0957,3.1699,3.207,3.2344,3.3769,3.4394,3.459,3.5312,3.5605,3.5605,4.5253,4.6317,4.6769,4.5021,4.515,4.5197,4.4313,4.3826,4.3681,4.396,4.3866,4.3779,4.3779,4.3613,4.3515,4.3515,4.3515,4.3392,4.316,4.3375,4.3515,4.3515,4.3515,4.3515,4.3515,4.3515,4.3515,4.3515,4.3515,4.3515,4.3515,4.3515,4.3515,4.3515,4.3515,4.3515,4.3515,4.3515,4.3515,4.3515,4.3515,4.3277,4.2983,4.3368,4.3276,4.2983,4.3369,4.3515,4.3515,4.3515,4.3515,4.3531,4.371,4.3513,4.3069,4.2255,4.0695,3.9029,3.7997,3.7146,3.6536,3.6447,3.5747,3.5192,3.5476,3.5552,3.5645,3.5905,3.6236,3.6561,3.6798,3.6358,3.5994,3.6121,3.5391,0.0,0.0,3.3265,3.2898,3.2585,3.219,3.2131,3.2617,3.2266,3.1816,3.1382,3.1388,3.1256,3.0918,3.0898,3.0898,3.0898,3.0898,3.0898,3.0898,3.0898,3.1133,3.1582,3.1113,3.1152,3.1582,3.1113,3.0898,3.0937,3.1406,3.1601,3.168,3.25,3.3125,3.3613,3.4394,3.498,3.5449,3.5859,3.5996,3.5996,4.6581,4.7462,4.7896,4.6622,4.6627,4.6651,4.6205,4.5639,4.5434,4.5847,4.5369,4.4984,4.4984,4.4268,4.3773,4.3773,4.3625,4.3515,4.3515,4.3515,4.3515,4.3515,4.3515,4.3515,4.3515,4.3515,4.3515,4.3515,4.3515,4.3515,4.3515,4.3515,4.3515,4.3515,4.3515,4.3515,4.3515,4.3515,4.3515,4.3515,4.3515,4.3515,4.3515,4.3515,4.3515,4.3515,4.3515,4.3515,4.3513,4.3597,4.3631,4.3679,4.4031,4.4132,4.3982,4.317,4.1161,3.9081,3.8456,3.8159,3.7934,3.7646,3.6924,3.6378,3.6636,3.6697,3.6747,3.6952,3.7526,3.8007,3.8007,3.745,3.6942,3.6731,0.0,0.0,0.0,3.3766,3.3587,3.4011,3.3563,3.3487,3.4166,3.3636,3.2974,3.2355,3.2148,3.1809,3.123,3.1016,3.0898,3.0898,3.0898,3.0898,3.0898,3.1094,3.1543,3.2187,3.1523,3.1543,3.2187,3.1504,3.1094,3.0957,3.2012,3.2363,3.2285,3.3281,3.4101,3.4726,3.4922,3.541,3.5996,3.5996,3.5996,3.5996,4.8141,4.8233,4.803,4.7166,4.7057,4.6819,4.603,4.5865,4.5865,4.5883,4.5847,4.581,4.581,4.5094,4.4617,4.4617,4.392,4.3515,4.3515,4.3515,4.3515,4.3515,4.3515,4.3515,4.3515,4.3515,4.3515,4.3515,4.3515,4.3515,4.3515,4.3515,4.3515,4.3515,4.3515,4.3515,4.3515,4.3515,4.3515,4.3515,4.3515,4.3515,4.3515,4.3515,4.3515,4.3515,4.3515,4.3515,4.3548,4.3849,4.3971,4.4031,4.4433,4.4553,4.4384,4.3529,4.2065,4.0544,3.9696,3.8935,3.8409,3.8622,3.808,3.7551,3.7813,3.787,3.7877,3.7911,3.7969,3.8007,3.8007,3.795,3.7642,3.6827,0.0,0.0,3.4511,3.4353,3.4136,3.3456,3.3328,3.3329,3.3388,3.3391,3.3336,3.3219,3.2573,3.2168,3.2109,3.1348,3.0898,3.0898,3.0898,3.0898,3.0898,3.1699,3.2148,3.2207,3.2129,3.2148,3.2207,3.2129,3.166,3.0996,3.2617,3.2891,3.2324,3.3945,3.4648,3.4785,3.5586,3.5937,3.5996,3.5996,3.5996,3.5996,4.8306,4.8306,4.8214,4.7901,4.7828,4.7736,4.7443,4.7388,4.7388,4.7388,4.6948,4.6636,4.6636,4.5938,4.5443,4.5443,4.5149,4.4984,4.4984,4.4984,4.4525,4.3551,4.3515,4.3515,4.3515,4.3515,4.3515,4.3515,4.3515,4.3515,4.3515,4.3515,4.3515,4.3515,4.3515,4.3515,4.3515,4.3515,4.3515,4.3515,4.3515,4.3515,4.3515,4.3515,4.3515,4.3531,4.3742,4.382,4.3865,4.4252,4.4359,4.4447,4.4793,4.4908,4.4772,4.41,4.3351,4.2444,4.1275,4.0233,3.9527,3.9789,3.9243,3.8673,3.8781,3.8815,3.8815,3.8815,3.92,3.9554,3.9554,3.87,3.7892,3.7565,0.0,3.5862,3.5204,3.5269,3.526,3.4947,3.4949,3.4977,3.4977,3.4999,3.4785,3.4215,3.3417,3.2734,3.2226,3.1367,3.0898,3.0898,3.1426,3.1719,3.1719,3.2539,3.3223,3.373,3.3203,3.3223,3.3711,3.2676,3.2285,3.248,3.3125,3.3535,3.3848,3.5019,3.5508,3.5547,3.5879,3.5996,3.5996,3.5996,3.5996,3.5996,4.8306,4.8306,4.8306,4.8306,4.8306,4.8306,4.8306,4.8306,4.8306,4.8306,4.781,4.748,4.748,4.6746,4.6287,4.6287,4.6049,4.5902,4.5902,4.5902,4.5296,4.3938,4.4121,4.4029,4.3515,4.3736,4.3754,4.3515,4.3515,4.3515,4.3515,4.3515,4.3515,4.3515,4.3515,4.3515,4.3515,4.3515,4.3515,4.3515,4.3515,4.3515,4.3496,4.3631,4.3662,4.3693,4.4061,4.419,4.4247,4.4631,4.4763,4.4825,4.514,4.5253,4.5168,4.483,4.4354,4.3761,4.2823,4.1822,4.0948,4.0592,4.0092,3.9688,3.9688,3.9688,3.9688,3.9688,4.0112,4.0496,4.0496,3.936,3.8355,3.8073,3.6927,3.5974,3.5725,3.5831,3.5921,3.5921,3.5974,3.5996,3.5996,3.5996,3.5742,3.5156,3.4297,3.3457,3.2617,3.2012,3.1699,3.1699,3.2539,3.2988,3.2988,3.3535,3.4101,3.4687,3.4082,3.4121,3.4668,3.3516,3.3144,3.3437,3.3984,3.4394,3.4766,3.5644,3.5996,3.5996,3.5996,3.5996,3.5996,3.5996,3.5996,3.5996,4.8306,4.8306,4.8306,4.8306,4.8306,4.8306,4.8306,4.8306,4.8306,4.8306,4.8306,4.8306,4.8306,4.759,4.7113,4.7113,4.6379,4.592,4.592,4.592,4.5571,4.4746,4.548,4.5149,4.3551,4.4287,4.4305,4.3515,4.3515,4.3515,4.3515,4.3515,4.3515,4.3515,4.3515,4.3515,4.3515,4.3515,4.3496,4.3496,4.3496,4.3515,4.3548,4.3881,4.3998,4.4061,4.446,4.4593,4.4663,4.4988,4.5096,4.515,4.5495,4.5594,4.5594,4.5594,4.4998,4.4316,4.4297,4.372,4.2681,4.0958,4.0516,4.0516,4.0496,4.0516,4.0516,4.0496,4.0496,4.0496,4.0496,3.9901,3.9112,3.8233,3.7536,3.6813,3.6019,3.5951,3.5996,3.5996,3.5996,3.5996,3.5996,3.5996,3.5996,3.5996,3.5195,3.4316,3.3457,3.3398,3.3398,3.3398,3.4258,3.4707,3.4707,3.4707,3.4707,3.4707,3.4707,3.4707,3.4707,3.4707,3.4238,3.3516,3.5234,3.5508,3.4785,3.5644,3.5996,3.5996,3.5996,3.5996,3.5996,3.5996,3.5996,3.5996,4.8306,4.8306,4.8306,4.8306,4.8306,4.8306,4.8306,4.8306,4.8306,4.8306,4.8306,4.8306,4.8306,4.8104,4.7938,4.7938,4.7719,4.759,4.759,4.759,4.7223,4.6415,4.6067,4.5406,4.436,4.458,4.4305,4.3515,4.3515,4.3515,4.3515,4.3515,4.3515,4.3515,4.3515,4.3515,4.3515,4.3515,4.3629,4.3849,4.3849,4.4035,4.428,4.4392,4.4433,4.4474,4.4818,4.4943,4.5,4.5342,4.5448,4.5476,4.5568,4.5594,4.5594,4.5594,4.5421,4.5075,4.447,4.4124,4.3528,4.1835,4.1873,4.1989,4.0785,4.0969,4.1239,4.0631,4.0496,4.0534,4.0623,3.9952,3.9148,3.8367,3.7642,3.6877,3.6019,3.5951,3.5996,3.5996,3.5996,3.5996,3.5996,3.5996,3.5996,3.5996,3.5195,3.4316,3.3457,3.3398,3.3398,3.3398,3.4258,3.4707,3.4707,3.5312,3.5605,3.5605,3.5605,3.5605,3.5586,3.498,3.4883,3.5215,3.5137,3.5293,3.5625,3.5898,3.5996,3.5996,3.5996,3.5996,3.5996,3.5996,3.5996,3.5996,4.8306,4.8306,4.8306,4.8306,4.8306,4.8306,4.8306,4.8306,4.8306,4.8306,4.8306,4.8306,4.8306,4.8306,4.8306,4.8306,4.8306,4.8306,4.8306,4.8306,4.8067,4.759,4.726,4.6486,4.5204,4.548,4.5112,4.3975,4.4108,4.4007,4.3693,4.3852,4.3931,4.3931,4.3931,4.3931,4.3931,4.3931,4.405,4.4233,4.4233,4.4373,4.4606,4.4751,4.48,4.4849,4.5191,4.5302,4.5332,4.5522,4.5594,4.5594,4.5594,4.5594,4.5594,4.5594,4.5594,4.5498,4.496,4.4797,4.4489,4.3124,4.2951,4.2816,4.1758,4.1662,4.1662,4.1123,4.0788,4.0603,4.068,4.0058,3.9369,3.8922,3.7948,3.7058,3.653,3.6189,3.5996,3.5996,3.5996,3.5996,3.5996,3.5996,3.5996,3.5996,3.5508,3.498,3.4453,3.4434,3.4434,3.4434,3.4941,3.5215,3.5215,3.5742,3.5996,3.5996,3.5996,3.5996,3.5976,3.5449,3.5508,3.5976,3.5449,3.5508,3.5996,3.5996,3.5996,3.5996,3.5996,3.5996,3.5996,3.5996,3.5996,3.5996,4.8306,4.8306,4.8306,4.8306,4.8306,4.8306,4.8306,4.8306,4.8306,4.8306,4.8306,4.8306,4.8306,4.8306,4.8306,4.8306,4.8306,4.8306,4.8306,4.8326,4.8345,4.8345,4.8745,4.8108,4.6267,4.6874,4.6451,4.4905,4.514,4.4882,4.417,4.4452,4.4593,4.4593,4.4593,4.4593,4.4593,4.4687,4.4719,4.4757,4.4833,4.4884,4.4947,4.5174,4.5273,4.5286,4.5514,4.5594,4.5594,4.5594,4.5594,4.5594,4.5594,4.5594,4.5594,4.5594,4.5594,4.5594,4.5594,4.5594,4.5421,4.4605,4.3874,4.3278,4.3124,4.2547,4.197,4.1851,4.1285,4.0806,4.0732,4.0236,3.9784,3.9731,3.8489,3.7519,3.7422,3.6738,3.6191,3.6133,3.6113,3.6094,3.6016,3.5996,3.5996,3.5996,3.5996,3.5996,3.5996,3.5996,3.5996,3.5996,3.5996,3.5996,3.5996,3.5996,3.5996,3.5996,3.5996,3.5996,3.5996,3.5996,3.5996,3.5996,3.5996,3.5996,3.5996,3.5996,3.5996,3.5996,3.5996,3.5996,3.5996,3.5996,3.5996,3.5975,4.8306,4.8306,4.8306,4.8306,4.8306,4.8306,4.8306,4.8306,4.8306,4.8306,4.8306,4.8306,4.8306,4.8306,4.8306,4.8306,4.8306,4.8306,4.8306,4.8604,4.8761,4.8761,4.9155,4.9157,4.8724,4.8269,4.7571,4.659,4.597,4.5584,4.541,4.4855,4.4593,4.4593,4.4593,4.4593,4.4649,4.5272,4.5691,4.599,4.6667,4.7109,4.7279,4.6714,4.6503,4.6436,4.5818,4.5594,4.5594,4.5594,4.5594,4.5594,4.5594,4.5594,4.5594,4.5594,4.5594,4.5594,4.5594,4.5594,4.5556,4.5364,4.519,4.471,4.3393,4.3431,4.3423,4.2221,4.1835,4.156,4.1026,4.0823,4.0538,3.9957,3.955,3.9101,3.8418,3.8164,3.7773,3.7109,3.7012,3.6758,3.6074,3.5996,3.5996,3.5996,3.5996,3.5996,3.5996,3.5996,3.5996,3.5996,3.5996,3.5996,3.5996,3.5996,3.5996,3.5996,3.5996,3.5996,3.5996,3.5996,3.5996,3.5996,3.5996,3.5996,3.5996,3.5996,3.5996,3.5996,3.5996,3.5996,3.5996,3.5945,3.5916,3.589,4.8306,4.8306,4.8306,4.8306,4.8306,4.8306,4.8306,4.8306,4.8306,4.8306,4.8306,4.8306,4.8306,4.8306,4.8306,4.8306,4.8477,4.8586,4.8586,4.8963,4.9187,4.9187,4.9575,4.9787,4.9787,4.9568,4.8859,4.7659,4.696,4.6411,4.6018,4.538,4.5295,4.5695,4.5695,4.5905,4.6298,4.6725,4.7005,4.72,4.766,4.7933,4.8048,4.7625,4.7471,4.7355,4.6528,4.5951,4.5594,4.5594,4.5594,4.5594,4.5594,4.5594,4.5594,4.5594,4.5594,4.5594,4.5594,4.5594,4.562,4.5688,4.5692,4.548,4.4592,4.4399,4.4179,4.3438,4.2679,4.2031,4.1688,4.1327,4.097,4.0586,4.0176,3.9746,3.9277,3.8867,3.8437,3.7969,3.793,3.7578,3.6699,3.623,3.5996,3.5996,3.5996,3.5996,3.5996,3.5996,3.5996,3.5996,3.5996,3.5996,3.5996,3.5996,3.5996,3.5996,3.5996,3.5996,3.5996,3.5996,3.5996,3.5996,3.5996,3.5996,3.5996,3.5996,3.5996,3.5996,3.5996,3.5996,3.5996,3.5917,3.5848,3.5758,4.8306,4.8306,4.8306,4.8306,4.8306,4.8306,4.8306,4.8306,4.8306,4.8306,4.8306,4.8306,4.8306,4.8364,4.8421,4.8495,4.8813,4.8994,4.8994,4.9386,4.9589,4.9589,4.9987,5.0195,5.0195,5.0534,5.0054,4.8704,4.8126,4.7491,4.6817,4.6282,4.6413,4.7096,4.7096,4.749,4.8105,4.8259,4.8317,4.8336,4.849,4.8548,4.8529,4.8375,4.8317,4.8221,4.7413,4.6547,4.5825,4.5825,4.5729,4.5594,4.5594,4.5594,4.5594,4.5594,4.5594,4.5594,4.5594,4.562,4.5657,4.5763,4.5803,4.5814,4.5858,4.5264,4.4749,4.4724,4.3554,4.2483,4.2336,4.1694,4.1191,4.1191,4.0586,4.0117,4.0117,3.9492,3.8984,3.8848,3.8691,3.832,3.7598,3.6738,3.6211,3.6211,3.6074,3.5996,3.5996,3.5996,3.5996,3.5996,3.5996,3.5996,3.5996,3.5996,3.5996,3.5996,3.5996,3.5996,3.5996,3.5996,3.5996,3.5996,3.5996,3.5996,3.5996,3.5996,3.5996,3.5996,3.5996,3.5996,3.5996,3.5917,3.5788,3.5626,4.8306,4.8306,4.8306,4.8306,4.8306,4.8306,4.8306,4.8306,4.8306,4.8306,4.8306,4.8306,4.8306,4.8622,4.8963,4.9311,4.9386,4.9416,4.9416,4.98,5.0031,5.0031,5.041,5.0614,5.0614,5.0673,5.0596,5.0371,4.9557,4.9096,4.8962,4.8145,4.7817,4.7952,4.7952,4.8009,4.8144,4.8894,4.9221,4.9298,5.0029,5.0346,5.0269,4.951,4.9221,4.9106,4.8259,4.7413,4.6721,4.6721,4.622,4.5594,4.5594,4.5594,4.5594,4.5594,4.5594,4.5594,4.5594,4.5677,4.5789,4.5796,4.5847,4.5923,4.6027,4.5889,4.5538,4.4911,4.4051,4.3212,4.2517,4.1738,4.1191,4.1191,4.1094,4.1016,4.1016,4.0918,4.0566,3.9805,3.9062,3.8555,3.8437,3.7637,3.7129,3.7129,3.6426,3.5996,3.5996,3.5996,3.5996,3.5996,3.5996,3.5996,3.5996,3.5996,3.5996,3.5996,3.5996,3.5996,3.5996,3.5996,3.5996,3.5996,3.5996,3.5996,3.5996,3.5996,3.5996,3.5996,3.5996,3.5996,3.5996,3.5917,3.5802,3.5686,4.8306,4.8306,4.8306,4.8306,4.8306,4.8306,4.8306,4.8306,4.8306,4.8306,4.8306,4.8383,4.8622,4.8996,4.9311,4.9475,4.9706,4.9846,4.9846,5.0206,5.0451,5.0451,5.0604,5.0712,5.0712,5.0712,5.0712,5.0712,4.9817,4.9394,4.9375,4.8509,4.8355,4.8836,4.8836,4.9106,4.9586,4.9952,5.0125,5.0164,5.0558,5.0712,5.0654,5.0269,5.0125,5.001,4.9144,4.8298,4.7567,4.7567,4.7028,4.6336,4.6336,4.599,4.562,4.5685,4.5715,4.5718,4.5764,4.5805,4.5871,4.5942,4.5994,4.6045,4.6175,4.6171,4.6027,4.5692,4.4972,4.4271,4.3926,4.2773,4.1875,4.1875,4.1484,4.1191,4.1191,4.1191,4.1055,4.0664,3.9863,3.9336,3.9336,3.8535,3.8027,3.8027,3.7676,3.7246,3.6758,3.7187,3.7226,3.6738,3.6738,3.6738,3.6738,3.623,3.5996,3.5996,3.5996,3.5996,3.5996,3.5996,3.5996,3.5996,3.5996,3.5996,3.5996,3.5996,3.5996,3.5996,3.5996,3.5975,3.5945,3.591,3.5829,3.5707]}]]